| time (UTC) | temp C | wind direction | speed KPH | gust KPH | rain 1hr cm | rain 24hr cm | rain mn cm | humidity % | barometer mb |
| 20260904145828 | 26 | 360 | 8.0 | 19.3 | 0.00 | 0.10 | 0.00 | 85 | 1016.0 |
| 20260904145727 | 26 | 360 | 8.0 | 19.3 | 0.00 | 0.10 | 0.00 | 85 | 1016.1 |
| 20260904145627 | 27 | 360 | 9.7 | 19.3 | 0.00 | 0.10 | 0.00 | 85 | 1016.0 |
| 20260904145528 | 27 | 360 | 8.0 | 17.7 | 0.00 | 0.10 | 0.00 | 85 | 1016.1 |
| 20260904145448 | 27 | 360 | 6.4 | 17.7 | 0.00 | 0.10 | 0.00 | 86 | 1016.1 |
| 20260904145328 | 27 | 360 | 6.4 | 17.7 | 0.00 | 0.10 | 0.00 | 86 | 1016.0 |
| 20260904145228 | 26 | 360 | 4.8 | 17.7 | 0.00 | 0.10 | 0.00 | 85 | 1016.0 |
| 20260904145133 | 26 | 360 | 4.8 | 17.7 | 0.00 | 0.10 | 0.00 | 85 | 1016.1 |
| 20260904145034 | 27 | 360 | 4.8 | 16.1 | 0.00 | 0.10 | 0.00 | 85 | 1016.2 |
| 20260904144935 | 27 | 360 | 4.8 | 14.5 | 0.00 | 0.10 | 0.00 | 85 | 1016.1 |
| 20260904144816 | 27 | 360 | 4.8 | 14.5 | 0.00 | 0.10 | 0.00 | 85 | 1016.1 |
| 20260904144716 | 27 | 360 | 4.8 | 14.5 | 0.00 | 0.10 | 0.00 | 85 | 1016.2 |
| 20260904144638 | 27 | 360 | 4.8 | 14.5 | 0.00 | 0.10 | 0.00 | 85 | 1016.1 |
| 20260904144539 | 27 | 360 | 6.4 | 14.5 | 0.00 | 0.10 | 0.00 | 85 | 1016.2 |
| 20260904144423 | 27 | 360 | 6.4 | 14.5 | 0.00 | 0.10 | 0.00 | 85 | 1016.2 |
| 20260904144344 | 27 | 360 | 4.8 | 14.5 | 0.00 | 0.10 | 0.00 | 85 | 1016.2 |
| 20260904144224 | 27 | 360 | 3.2 | 12.9 | 0.00 | 0.10 | 0.00 | 85 | 1016.2 |
| 20260904144144 | 27 | 360 | 3.2 | 12.9 | 0.00 | 0.10 | 0.00 | 85 | 1016.2 |
| 20260904144023 | 27 | 226 | 3.2 | 12.9 | 0.00 | 0.10 | 0.00 | 85 | 1016.2 |
| 20260904143923 | 26 | 360 | 4.8 | 12.9 | 0.00 | 0.10 | 0.00 | 85 | 1016.2 |
| 20260904143823 | 26 | 360 | 4.8 | 12.9 | 0.00 | 0.10 | 0.00 | 85 | 1016.2 |
| 20260904143724 | 26 | 360 | 4.8 | 12.9 | 0.00 | 0.10 | 0.00 | 85 | 1016.2 |
| 20260904143629 | 26 | 360 | 4.8 | 12.9 | 0.00 | 0.10 | 0.00 | 85 | 1016.2 |
| 20260904143529 | 26 | 360 | 4.8 | 12.9 | 0.00 | 0.10 | 0.00 | 85 | 1016.2 |
| 20260904143430 | 26 | 360 | 4.8 | 9.7 | 0.00 | 0.10 | 0.00 | 85 | 1016.2 |
| 20260904143330 | 26 | 360 | 4.8 | 12.9 | 0.00 | 0.10 | 0.00 | 85 | 1016.2 |
| 20260904143231 | 26 | 360 | 4.8 | 12.9 | 0.00 | 0.10 | 0.00 | 85 | 1016.2 |
| 20260904143131 | 26 | 360 | 4.8 | 12.9 | 0.00 | 0.10 | 0.00 | 85 | 1016.2 |
| 20260904143052 | 26 | 360 | 3.2 | 12.9 | 0.00 | 0.10 | 0.00 | 85 | 1016.2 |
| 20260904142935 | 26 | 360 | 3.2 | 12.9 | 0.00 | 0.10 | 0.00 | 85 | 1016.1 |
| 20260904142834 | 26 | 360 | 3.2 | 12.9 | 0.00 | 0.10 | 0.00 | 85 | 1016.2 |
| 20260904142733 | 26 | 360 | 4.8 | 12.9 | 0.00 | 0.10 | 0.00 | 85 | 1016.2 |
| 20260904142633 | 26 | 360 | 4.8 | 12.9 | 0.00 | 0.10 | 0.00 | 85 | 1016.2 |
| 20260904142534 | 26 | 360 | 3.2 | 12.9 | 0.00 | 0.10 | 0.00 | 85 | 1016.2 |
| 20260904142434 | 26 | 360 | 3.2 | 8.0 | 0.00 | 0.10 | 0.00 | 85 | 1016.1 |
| 20260904142334 | 26 | 360 | 3.2 | 8.0 | 0.00 | 0.10 | 0.00 | 85 | 1016.1 |
| 20260904142219 | 26 | 360 | 3.2 | 8.0 | 0.00 | 0.10 | 0.00 | 86 | 1016.2 |
| 20260904142119 | 26 | 360 | 3.2 | 8.0 | 0.00 | 0.10 | 0.00 | 86 | 1016.2 |
| 20260904142019 | 26 | 360 | 4.8 | 8.0 | 0.00 | 0.10 | 0.00 | 86 | 1016.1 |
| 20260904141940 | 26 | 360 | 3.2 | 9.7 | 0.00 | 0.10 | 0.00 | 86 | 1016.1 |
| 20260904141819 | 26 | 360 | 4.8 | 9.7 | 0.00 | 0.10 | 0.00 | 86 | 1016.1 |
| 20260904141719 | 26 | 360 | 3.2 | 9.7 | 0.00 | 0.10 | 0.00 | 86 | 1016.1 |
| 20260904141620 | 26 | 360 | 3.2 | 9.7 | 0.00 | 0.10 | 0.00 | 86 | 1016.1 |
| 20260904141525 | 26 | 360 | 3.2 | 9.7 | 0.00 | 0.10 | 0.00 | 86 | 1016.0 |
| 20260904141446 | 26 | 360 | 4.8 | 9.7 | 0.00 | 0.10 | 0.00 | 86 | 1016.1 |
| 20260904141326 | 26 | 360 | 4.8 | 9.7 | 0.00 | 0.10 | 0.00 | 86 | 1016.1 |
| 20260904141225 | 26 | 360 | 4.8 | 9.7 | 0.00 | 0.10 | 0.00 | 86 | 1016.1 |
| 20260904141125 | 26 | 360 | 4.8 | 9.7 | 0.00 | 0.10 | 0.00 | 86 | 1016.1 |
| 20260904141026 | 26 | 360 | 3.2 | 8.0 | 0.00 | 0.10 | 0.00 | 86 | 1016.0 |
| 20260904140926 | 26 | 360 | 3.2 | 8.0 | 0.00 | 0.10 | 0.00 | 86 | 1016.1 |
| 20260904140847 | 26 | 360 | 3.2 | 8.0 | 0.00 | 0.10 | 0.00 | 86 | 1016.1 |
| 20260904140747 | 26 | 360 | 3.2 | 9.7 | 0.00 | 0.10 | 0.00 | 87 | 1016.0 |
| 20260904140631 | 26 | 360 | 3.2 | 14.5 | 0.00 | 0.10 | 0.00 | 86 | 1016.1 |
| 20260904140530 | 26 | 360 | 4.8 | 14.5 | 0.00 | 0.10 | 0.00 | 87 | 1016.0 |
| 20260904140431 | 26 | 360 | 3.2 | 14.5 | 0.00 | 0.10 | 0.00 | 87 | 1016.0 |
| 20260904140352 | 26 | 360 | 3.2 | 14.5 | 0.00 | 0.10 | 0.00 | 87 | 1016.0 |
| 20260904140230 | 26 | 360 | 3.2 | 14.5 | 0.00 | 0.10 | 0.00 | 87 | 1016.0 |
| 20260904140132 | 26 | 360 | 4.8 | 14.5 | 0.00 | 0.10 | 0.00 | 87 | 1015.9 |
| 20260904140032 | 26 | 360 | 6.4 | 14.5 | 0.00 | 0.10 | 0.00 | 87 | 1016.0 |
| 20260904135917 | 26 | 360 | 4.8 | 14.5 | 0.00 | 0.10 | 0.00 | 87 | 1016.0 |
| 20260904135819 | 26 | 360 | 4.8 | 14.5 | 0.00 | 0.10 | 0.00 | 87 | 1016.0 |
| 20260904135718 | 26 | 360 | 6.4 | 14.5 | 0.00 | 0.10 | 0.00 | 87 | 1015.9 |
| 20260904135619 | 26 | 360 | 8.0 | 14.5 | 0.00 | 0.10 | 0.00 | 87 | 1015.9 |
| 20260904135519 | 26 | 360 | 9.7 | 14.5 | 0.00 | 0.10 | 0.00 | 87 | 1015.9 |
| 20260904135420 | 26 | 360 | 8.0 | 14.5 | 0.00 | 0.10 | 0.00 | 87 | 1016.0 |
| 20260904135320 | 26 | 360 | 6.4 | 14.5 | 0.00 | 0.10 | 0.00 | 87 | 1016.0 |
| 20260904135225 | 26 | 360 | 6.4 | 14.5 | 0.00 | 0.10 | 0.00 | 87 | 1015.9 |
| 20260904135124 | 26 | 360 | 4.8 | 14.5 | 0.00 | 0.10 | 0.00 | 87 | 1015.9 |
| 20260904135025 | 26 | 360 | 6.4 | 14.5 | 0.00 | 0.10 | 0.00 | 87 | 1016.0 |
| 20260904134927 | 26 | 360 | 6.4 | 14.5 | 0.00 | 0.10 | 0.00 | 87 | 1015.9 |
| 20260904134828 | 26 | 360 | 8.0 | 14.5 | 0.00 | 0.10 | 0.00 | 87 | 1015.9 |
| 20260904134728 | 26 | 360 | 6.4 | 12.9 | 0.00 | 0.10 | 0.00 | 87 | 1015.9 |
| 20260904134648 | 26 | 360 | 4.8 | 12.9 | 0.00 | 0.10 | 0.00 | 87 | 1016.0 |
| 20260904134547 | 26 | 360 | 4.8 | 9.7 | 0.00 | 0.10 | 0.00 | 87 | 1015.9 |
| 20260904134448 | 26 | 360 | 4.8 | 8.0 | 0.00 | 0.10 | 0.00 | 87 | 1015.9 |
| 20260904134331 | 26 | 360 | 4.8 | 8.0 | 0.00 | 0.10 | 0.00 | 88 | 1015.9 |
| 20260904134231 | 26 | 203 | 4.8 | 6.4 | 0.00 | 0.10 | 0.00 | 88 | 1016.0 |
| 20260904134131 | 26 | 360 | 3.2 | 6.4 | 0.00 | 0.10 | 0.00 | 88 | 1016.0 |
| 20260904134032 | 26 | 360 | 1.6 | 6.4 | 0.00 | 0.10 | 0.00 | 88 | 1016.0 |
| 20260904133933 | 26 | 360 | 1.6 | 4.8 | 0.00 | 0.10 | 0.00 | 88 | 1016.0 |
| 20260904133833 | 26 | 360 | 0.0 | 4.8 | 0.00 | 0.10 | 0.00 | 88 | 1016.0 |
| 20260904133737 | 26 | 360 | 0.0 | 8.0 | 0.00 | 0.10 | 0.00 | 88 | 1016.0 |
| 20260904133617 | 26 | 360 | 1.6 | 8.0 | 0.00 | 0.10 | 0.00 | 88 | 1016.0 |
| 20260904133517 | 26 | 360 | 1.6 | 8.0 | 0.00 | 0.10 | 0.00 | 88 | 1015.9 |
| 20260904133438 | 26 | 360 | 1.6 | 8.0 | 0.00 | 0.10 | 0.00 | 88 | 1016.0 |
| 20260904133318 | 26 | 360 | 1.6 | 8.0 | 0.00 | 0.10 | 0.00 | 88 | 1015.9 |
| 20260904133217 | 26 | 360 | 3.2 | 8.0 | 0.00 | 0.10 | 0.00 | 88 | 1016.0 |
| 20260904133117 | 26 | 165 | 3.2 | 8.0 | 0.00 | 0.10 | 0.00 | 88 | 1016.0 |
| 20260904133038 | 26 | 163 | 3.2 | 8.0 | 0.00 | 0.10 | 0.00 | 88 | 1015.9 |
| 20260904132921 | 26 | 360 | 3.2 | 8.0 | 0.00 | 0.10 | 0.00 | 88 | 1015.9 |
| 20260904132823 | 26 | 360 | 3.2 | 8.0 | 0.00 | 0.10 | 0.00 | 88 | 1015.8 |
| 20260904132722 | 26 | 360 | 3.2 | 8.0 | 0.00 | 0.10 | 0.00 | 88 | 1015.8 |
| 20260904132622 | 26 | 360 | 4.8 | 8.0 | 0.00 | 0.10 | 0.00 | 88 | 1015.9 |
| 20260904132524 | 26 | 360 | 4.8 | 8.0 | 0.00 | 0.10 | 0.00 | 88 | 1015.8 |
| 20260904132425 | 26 | 360 | 4.8 | 9.7 | 0.00 | 0.10 | 0.00 | 88 | 1015.8 |
| 20260904132325 | 26 | 360 | 4.8 | 9.7 | 0.00 | 0.10 | 0.00 | 88 | 1015.8 |
| 20260904132230 | 26 | 360 | 3.2 | 9.7 | 0.00 | 0.10 | 0.00 | 88 | 1015.8 |
| 20260904132130 | 26 | 360 | 4.8 | 9.7 | 0.00 | 0.10 | 0.00 | 88 | 1015.8 |
| 20260904132031 | 26 | 360 | 4.8 | 9.7 | 0.00 | 0.10 | 0.00 | 88 | 1015.8 |
| 20260904131930 | 26 | 360 | 4.8 | 9.7 | 0.00 | 0.10 | 0.00 | 88 | 1015.8 |
| 20260904131851 | 26 | 360 | 4.8 | 9.7 | 0.00 | 0.10 | 0.00 | 88 | 1015.8 |
| 20260904131729 | 26 | 360 | 4.8 | 9.7 | 0.00 | 0.10 | 0.00 | 88 | 1015.7 |
| 20260904131630 | 26 | 360 | 6.4 | 9.7 | 0.00 | 0.10 | 0.00 | 88 | 1015.8 |
| 20260904131531 | 26 | 360 | 6.4 | 9.7 | 0.00 | 0.10 | 0.00 | 88 | 1015.8 |
| 20260904131417 | 26 | 360 | 6.4 | 9.7 | 0.00 | 0.10 | 0.00 | 88 | 1015.8 |
| 20260904131338 | 26 | 360 | 6.4 | 9.7 | 0.00 | 0.10 | 0.00 | 88 | 1015.8 |
| 20260904131217 | 26 | 360 | 6.4 | 9.7 | 0.00 | 0.10 | 0.00 | 88 | 1015.8 |
| 20260904131138 | 26 | 360 | 4.8 | 8.0 | 0.00 | 0.10 | 0.00 | 88 | 1015.8 |
| 20260904131018 | 26 | 360 | 4.8 | 8.0 | 0.00 | 0.10 | 0.00 | 88 | 1015.8 |
| 20260904130918 | 26 | 360 | 4.8 | 8.0 | 0.00 | 0.10 | 0.00 | 88 | 1015.8 |
| 20260904130820 | 26 | 360 | 4.8 | 8.0 | 0.00 | 0.10 | 0.00 | 88 | 1015.8 |
| 20260904130725 | 26 | 168 | 4.8 | 12.9 | 0.00 | 0.10 | 0.00 | 88 | 1015.8 |
| 20260904130626 | 26 | 360 | 4.8 | 14.5 | 0.00 | 0.10 | 0.00 | 88 | 1015.8 |
| 20260904130526 | 26 | 360 | 4.8 | 14.5 | 0.00 | 0.10 | 0.00 | 88 | 1015.8 |
| 20260904130426 | 26 | 360 | 4.8 | 16.1 | 0.00 | 0.10 | 0.00 | 88 | 1015.8 |
| 20260904130327 | 26 | 360 | 4.8 | 16.1 | 0.00 | 0.10 | 0.00 | 88 | 1015.8 |
| 20260904130247 | 26 | 360 | 4.8 | 16.1 | 0.00 | 0.10 | 0.00 | 88 | 1015.8 |
| 20260904130127 | 26 | 360 | 4.8 | 16.1 | 0.00 | 0.10 | 0.00 | 88 | 1015.8 |
| 20260904130032 | 26 | 360 | 6.4 | 16.1 | 0.00 | 0.10 | 0.00 | 89 | 1015.8 |
| 20260904125932 | 26 | 360 | 9.7 | 16.1 | 0.00 | 0.10 | 0.00 | 88 | 1015.8 |
| 20260904125834 | 26 | 360 | 9.7 | 16.1 | 0.00 | 0.10 | 0.00 | 88 | 1015.7 |
| 20260904125733 | 26 | 360 | 11.3 | 16.1 | 0.00 | 0.10 | 0.00 | 88 | 1015.8 |
| 20260904125634 | 26 | 360 | 9.7 | 16.1 | 0.00 | 0.10 | 0.00 | 88 | 1015.7 |
| 20260904125554 | 26 | 360 | 9.7 | 16.1 | 0.00 | 0.10 | 0.00 | 88 | 1015.6 |
| 20260904125418 | 26 | 360 | 8.0 | 16.1 | 0.00 | 0.10 | 0.00 | 88 | 1015.7 |
| 20260904125319 | 26 | 173 | 8.0 | 12.9 | 0.00 | 0.10 | 0.00 | 88 | 1015.6 |
| 20260904125220 | 26 | 360 | 8.0 | 12.9 | 0.00 | 0.10 | 0.00 | 88 | 1015.6 |
| 20260904125120 | 26 | 360 | 6.4 | 12.9 | 0.00 | 0.10 | 0.00 | 89 | 1015.6 |
| 20260904125021 | 26 | 360 | 6.4 | 12.9 | 0.00 | 0.10 | 0.00 | 89 | 1015.6 |
| 20260904124941 | 26 | 360 | 6.4 | 12.9 | 0.00 | 0.10 | 0.00 | 89 | 1015.7 |
| 20260904124820 | 26 | 360 | 6.4 | 12.9 | 0.00 | 0.10 | 0.00 | 89 | 1015.6 |
| 20260904124725 | 26 | 360 | 6.4 | 12.9 | 0.00 | 0.10 | 0.00 | 89 | 1015.6 |
| 20260904124626 | 26 | 360 | 6.4 | 12.9 | 0.00 | 0.10 | 0.00 | 89 | 1015.6 |
| 20260904124525 | 26 | 172 | 6.4 | 12.9 | 0.00 | 0.10 | 0.00 | 89 | 1015.6 |
| 20260904124426 | 26 | 360 | 8.0 | 12.9 | 0.00 | 0.10 | 0.00 | 89 | 1015.5 |
| 20260904124326 | 26 | 360 | 9.7 | 12.9 | 0.00 | 0.10 | 0.00 | 89 | 1015.5 |
| 20260904124247 | 26 | 360 | 8.0 | 14.5 | 0.00 | 0.10 | 0.00 | 89 | 1015.6 |
| 20260904124127 | 26 | 360 | 6.4 | 14.5 | 0.00 | 0.10 | 0.00 | 89 | 1015.5 |
| 20260904124028 | 26 | 360 | 6.4 | 14.5 | 0.00 | 0.10 | 0.00 | 89 | 1015.5 |
| 20260904123952 | 26 | 360 | 6.4 | 14.5 | 0.00 | 0.10 | 0.00 | 89 | 1015.5 |
| 20260904123852 | 26 | 360 | 6.4 | 16.1 | 0.00 | 0.10 | 0.00 | 89 | 1015.5 |
| 20260904123751 | 26 | 360 | 8.0 | 16.1 | 0.00 | 0.10 | 0.00 | 89 | 1015.5 |
| 20260904123651 | 26 | 360 | 8.0 | 16.1 | 0.00 | 0.10 | 0.00 | 89 | 1015.4 |
| 20260904123550 | 26 | 360 | 8.0 | 16.1 | 0.00 | 0.10 | 0.00 | 89 | 1015.4 |
| 20260904123429 | 26 | 360 | 8.0 | 16.1 | 0.00 | 0.10 | 0.00 | 89 | 1015.4 |
| 20260904123350 | 26 | 360 | 8.0 | 16.1 | 0.00 | 0.10 | 0.00 | 89 | 1015.4 |
| 20260904123229 | 26 | 360 | 9.7 | 16.1 | 0.00 | 0.10 | 0.00 | 89 | 1015.4 |
| 20260904123130 | 26 | 360 | 9.7 | 16.1 | 0.00 | 0.10 | 0.00 | 89 | 1015.4 |
| 20260904123050 | 26 | 360 | 9.7 | 16.1 | 0.00 | 0.10 | 0.00 | 89 | 1015.3 |
| 20260904122934 | 26 | 360 | 8.0 | 12.9 | 0.00 | 0.10 | 0.00 | 89 | 1015.4 |
| 20260904122835 | 26 | 360 | 6.4 | 12.9 | 0.00 | 0.10 | 0.00 | 89 | 1015.4 |
| 20260904122735 | 26 | 360 | 6.4 | 12.9 | 0.00 | 0.10 | 0.00 | 89 | 1015.3 |
| 20260904122616 | 26 | 360 | 6.4 | 12.9 | 0.00 | 0.10 | 0.00 | 89 | 1015.3 |
| 20260904122518 | 26 | 360 | 6.4 | 14.5 | 0.00 | 0.10 | 0.00 | 89 | 1015.3 |
| 20260904122438 | 26 | 360 | 6.4 | 14.5 | 0.00 | 0.10 | 0.00 | 89 | 1015.4 |
| 20260904122338 | 26 | 360 | 6.4 | 19.3 | 0.00 | 0.10 | 0.00 | 89 | 1015.3 |
| 20260904122221 | 26 | 360 | 6.4 | 19.3 | 0.00 | 0.10 | 0.00 | 89 | 1015.3 |
| 20260904122121 | 26 | 360 | 8.0 | 19.3 | 0.00 | 0.10 | 0.00 | 89 | 1015.3 |
| 20260904122042 | 26 | 360 | 8.0 | 19.3 | 0.00 | 0.10 | 0.00 | 89 | 1015.3 |
| 20260904121916 | 26 | 360 | 8.0 | 19.3 | 0.00 | 0.10 | 0.00 | 89 | 1015.2 |
| 20260904121836 | 26 | 360 | 8.0 | 19.3 | 0.00 | 0.10 | 0.00 | 89 | 1015.2 |
| 20260904121735 | 26 | 360 | 11.3 | 19.3 | 0.00 | 0.10 | 0.00 | 89 | 1015.2 |
| 20260904121634 | 26 | 360 | 11.3 | 19.3 | 0.00 | 0.10 | 0.00 | 89 | 1015.2 |
| 20260904121519 | 26 | 360 | 8.0 | 17.7 | 0.00 | 0.10 | 0.00 | 89 | 1015.2 |
| 20260904121420 | 26 | 360 | 6.4 | 14.5 | 0.00 | 0.10 | 0.00 | 89 | 1015.1 |
| 20260904121341 | 26 | 360 | 6.4 | 17.7 | 0.00 | 0.10 | 0.00 | 89 | 1015.1 |
| 20260904121220 | 26 | 360 | 9.7 | 17.7 | 0.00 | 0.10 | 0.00 | 89 | 1015.1 |
| 20260904121120 | 26 | 360 | 9.7 | 17.7 | 0.00 | 0.10 | 0.00 | 89 | 1015.0 |
| 20260904121040 | 26 | 360 | 9.7 | 17.7 | 0.00 | 0.10 | 0.00 | 89 | 1015.0 |
| 20260904120939 | 26 | 169 | 9.7 | 17.7 | 0.00 | 0.10 | 0.00 | 89 | 1015.0 |
| 20260904120818 | 26 | 360 | 8.0 | 17.7 | 0.00 | 0.10 | 0.00 | 89 | 1015.0 |
| 20260904120722 | 26 | 360 | 11.3 | 17.7 | 0.00 | 0.10 | 0.00 | 89 | 1015.0 |
| 20260904120622 | 26 | 360 | 11.3 | 17.7 | 0.00 | 0.10 | 0.00 | 89 | 1014.9 |
| 20260904120523 | 26 | 360 | 11.3 | 17.7 | 0.00 | 0.10 | 0.00 | 89 | 1014.9 |
| 20260904120423 | 26 | 360 | 9.7 | 16.1 | 0.00 | 0.10 | 0.00 | 89 | 1014.8 |
| 20260904120345 | 26 | 360 | 11.3 | 16.1 | 0.00 | 0.10 | 0.00 | 89 | 1014.8 |
| 20260904120224 | 26 | 178 | 11.3 | 16.1 | 0.00 | 0.10 | 0.00 | 89 | 1014.8 |
| 20260904120124 | 26 | 360 | 9.7 | 17.7 | 0.00 | 0.10 | 0.00 | 89 | 1014.8 |
| 20260904120024 | 26 | 360 | 8.0 | 17.7 | 0.00 | 0.10 | 0.00 | 89 | 1014.7 |
| 20260904115929 | 26 | 360 | 8.0 | 17.7 | 0.00 | 0.10 | 0.00 | 89 | 1014.8 |
| 20260904115830 | 26 | 360 | 9.7 | 19.3 | 0.00 | 0.10 | 0.00 | 89 | 1014.8 |
| 20260904115729 | 26 | 360 | 9.7 | 19.3 | 0.00 | 0.10 | 0.00 | 89 | 1014.7 |
| 20260904115628 | 26 | 360 | 9.7 | 19.3 | 0.00 | 0.10 | 0.00 | 89 | 1014.8 |
| 20260904115529 | 26 | 360 | 11.3 | 19.3 | 0.00 | 0.10 | 0.00 | 89 | 1014.7 |
| 20260904115430 | 26 | 360 | 11.3 | 19.3 | 0.00 | 0.10 | 0.00 | 89 | 1014.8 |
| 20260904115350 | 26 | 360 | 11.3 | 19.3 | 0.00 | 0.10 | 0.00 | 89 | 1014.8 |
| 20260904115234 | 26 | 360 | 11.3 | 19.3 | 0.00 | 0.10 | 0.00 | 89 | 1014.7 |
| 20260904115134 | 26 | 360 | 12.9 | 19.3 | 0.00 | 0.10 | 0.00 | 89 | 1014.8 |
| 20260904115035 | 26 | 360 | 11.3 | 19.3 | 0.00 | 0.10 | 0.00 | 89 | 1014.7 |
| 20260904114936 | 26 | 360 | 11.3 | 17.7 | 0.00 | 0.10 | 0.00 | 89 | 1014.8 |
| 20260904114857 | 26 | 360 | 11.3 | 22.5 | 0.00 | 0.10 | 0.00 | 89 | 1014.8 |
| 20260904114756 | 26 | 360 | 12.9 | 22.5 | 0.00 | 0.10 | 0.00 | 89 | 1014.7 |
| 20260904114655 | 26 | 360 | 12.9 | 22.5 | 0.00 | 0.10 | 0.00 | 89 | 1014.8 |
| 20260904114535 | 26 | 360 | 11.3 | 22.5 | 0.00 | 0.10 | 0.00 | 89 | 1014.8 |
| 20260904114419 | 26 | 360 | 9.7 | 22.5 | 0.00 | 0.10 | 0.00 | 89 | 1014.7 |
| 20260904114320 | 26 | 360 | 11.3 | 22.5 | 0.00 | 0.10 | 0.00 | 89 | 1014.8 |
| 20260904114221 | 26 | 360 | 14.5 | 22.5 | 0.00 | 0.10 | 0.00 | 89 | 1014.8 |
| 20260904114121 | 26 | 360 | 14.5 | 22.5 | 0.00 | 0.10 | 0.00 | 89 | 1014.8 |
| 20260904114022 | 26 | 360 | 14.5 | 22.5 | 0.00 | 0.10 | 0.00 | 89 | 1014.8 |
| 20260904113942 | 26 | 360 | 12.9 | 22.5 | 0.00 | 0.10 | 0.00 | 89 | 1014.7 |
| 20260904113842 | 26 | 360 | 11.3 | 22.5 | 0.00 | 0.10 | 0.00 | 89 | 1014.7 |
| 20260904113725 | 26 | 360 | 9.7 | 22.5 | 0.00 | 0.10 | 0.00 | 89 | 1014.6 |
| 20260904113627 | 26 | 360 | 9.7 | 22.5 | 0.00 | 0.10 | 0.00 | 89 | 1014.7 |
| 20260904113526 | 26 | 360 | 9.7 | 22.5 | 0.00 | 0.10 | 0.00 | 89 | 1014.7 |
| 20260904113447 | 26 | 155 | 11.3 | 22.5 | 0.00 | 0.10 | 0.00 | 89 | 1014.6 |
| 20260904113326 | 26 | 360 | 11.3 | 22.5 | 0.00 | 0.10 | 0.00 | 89 | 1014.6 |
| 20260904113227 | 26 | 360 | 11.3 | 19.3 | 0.00 | 0.10 | 0.00 | 89 | 1014.6 |
| 20260904113129 | 26 | 161 | 11.3 | 19.3 | 0.00 | 0.10 | 0.00 | 89 | 1014.6 |
| 20260904113049 | 26 | 360 | 11.3 | 19.3 | 0.00 | 0.10 | 0.00 | 89 | 1014.6 |
| 20260904112953 | 26 | 360 | 12.9 | 20.9 | 0.00 | 0.10 | 0.00 | 89 | 1014.5 |
| 20260904112854 | 26 | 360 | 12.9 | 20.9 | 0.00 | 0.10 | 0.00 | 89 | 1014.5 |
| 20260904112732 | 26 | 360 | 12.9 | 20.9 | 0.00 | 0.10 | 0.00 | 89 | 1014.6 |
| 20260904112652 | 26 | 360 | 12.9 | 20.9 | 0.00 | 0.10 | 0.00 | 89 | 1014.6 |
| 20260904112532 | 26 | 360 | 9.7 | 20.9 | 0.00 | 0.10 | 0.00 | 89 | 1014.6 |
| 20260904112432 | 26 | 360 | 8.0 | 20.9 | 0.00 | 0.10 | 0.00 | 89 | 1014.5 |
| 20260904112333 | 26 | 360 | 11.3 | 20.9 | 0.00 | 0.10 | 0.00 | 89 | 1014.6 |
| 20260904112217 | 26 | 360 | 12.9 | 20.9 | 0.00 | 0.10 | 0.00 | 89 | 1014.6 |
| 20260904112119 | 26 | 360 | 11.3 | 20.9 | 0.00 | 0.10 | 0.00 | 89 | 1014.5 |
| 20260904112020 | 26 | 360 | 8.0 | 16.1 | 0.00 | 0.10 | 0.00 | 89 | 1014.6 |
| 20260904111921 | 26 | 161 | 8.0 | 16.1 | 0.00 | 0.10 | 0.00 | 89 | 1014.6 |
| 20260904111842 | 26 | 360 | 8.0 | 17.7 | 0.00 | 0.10 | 0.00 | 89 | 1014.5 |
| 20260904111722 | 26 | 360 | 8.0 | 19.3 | 0.00 | 0.10 | 0.00 | 89 | 1014.5 |
| 20260904111623 | 26 | 360 | 8.0 | 19.3 | 0.00 | 0.10 | 0.00 | 89 | 1014.5 |
| 20260904111528 | 26 | 360 | 8.0 | 19.3 | 0.00 | 0.10 | 0.00 | 89 | 1014.5 |
| 20260904111429 | 26 | 360 | 8.0 | 19.3 | 0.00 | 0.10 | 0.00 | 89 | 1014.4 |
| 20260904111329 | 26 | 360 | 8.0 | 19.3 | 0.00 | 0.10 | 0.00 | 89 | 1014.5 |
| 20260904111230 | 26 | 360 | 9.7 | 19.3 | 0.00 | 0.10 | 0.00 | 89 | 1014.5 |
| 20260904111130 | 26 | 360 | 11.3 | 19.3 | 0.00 | 0.10 | 0.00 | 89 | 1014.6 |
| 20260904111031 | 26 | 360 | 12.9 | 19.3 | 0.00 | 0.10 | 0.00 | 89 | 1014.5 |
| 20260904110952 | 26 | 360 | 12.9 | 19.3 | 0.00 | 0.10 | 0.00 | 89 | 1014.5 |
| 20260904110834 | 25 | 360 | 11.3 | 17.7 | 0.00 | 0.10 | 0.00 | 89 | 1014.4 |
| 20260904110735 | 25 | 360 | 11.3 | 17.7 | 0.00 | 0.10 | 0.00 | 89 | 1014.5 |
| 20260904110655 | 25 | 360 | 9.7 | 17.7 | 0.00 | 0.10 | 0.00 | 89 | 1014.5 |
| 20260904110535 | 25 | 360 | 9.7 | 17.7 | 0.00 | 0.10 | 0.00 | 89 | 1014.5 |
| 20260904110456 | 25 | 360 | 9.7 | 17.7 | 0.00 | 0.10 | 0.00 | 89 | 1014.6 |
| 20260904110356 | 25 | 360 | 9.7 | 17.7 | 0.00 | 0.10 | 0.00 | 89 | 1014.5 |
| 20260904110235 | 25 | 360 | 9.7 | 17.7 | 0.00 | 0.10 | 0.00 | 89 | 1014.5 |
| 20260904110155 | 25 | 360 | 8.0 | 17.7 | 0.00 | 0.10 | 0.00 | 89 | 1014.5 |
| 20260904110019 | 25 | 360 | 9.7 | 17.7 | 0.00 | 0.10 | 0.00 | 89 | 1014.5 |
| 20260904105919 | 25 | 360 | 9.7 | 17.7 | 0.00 | 0.10 | 0.00 | 89 | 1014.4 |
| 20260904105821 | 25 | 360 | 9.7 | 16.1 | 0.00 | 0.10 | 0.00 | 89 | 1014.5 |
| 20260904105720 | 25 | 360 | 9.7 | 16.1 | 0.00 | 0.10 | 0.00 | 89 | 1014.4 |
| 20260904105640 | 25 | 360 | 9.7 | 16.1 | 0.00 | 0.10 | 0.00 | 89 | 1014.4 |
| 20260904105520 | 25 | 360 | 9.7 | 16.1 | 0.00 | 0.10 | 0.00 | 89 | 1014.4 |
| 20260904105420 | 25 | 360 | 8.0 | 12.9 | 0.00 | 0.10 | 0.00 | 89 | 1014.4 |
| 20260904105342 | 25 | 360 | 8.0 | 12.9 | 0.00 | 0.10 | 0.00 | 89 | 1014.4 |
| 20260904105226 | 25 | 360 | 8.0 | 12.9 | 0.00 | 0.10 | 0.00 | 89 | 1014.4 |
| 20260904105127 | 25 | 360 | 8.0 | 12.9 | 0.00 | 0.10 | 0.00 | 89 | 1014.4 |
| 20260904105026 | 25 | 360 | 8.0 | 14.5 | 0.00 | 0.10 | 0.00 | 89 | 1014.4 |
| 20260904104925 | 25 | 360 | 8.0 | 14.5 | 0.00 | 0.10 | 0.00 | 89 | 1014.4 |
| 20260904104826 | 25 | 360 | 6.4 | 14.5 | 0.00 | 0.10 | 0.00 | 89 | 1014.3 |
| 20260904104727 | 25 | 360 | 6.4 | 14.5 | 0.00 | 0.10 | 0.00 | 89 | 1014.3 |
| 20260904104627 | 25 | 360 | 6.4 | 14.5 | 0.00 | 0.10 | 0.00 | 89 | 1014.2 |
| 20260904104528 | 25 | 360 | 6.4 | 14.5 | 0.00 | 0.10 | 0.00 | 89 | 1014.3 |
| 20260904104431 | 25 | 360 | 8.0 | 14.5 | 0.00 | 0.10 | 0.00 | 89 | 1014.3 |
| 20260904104333 | 25 | 360 | 8.0 | 14.5 | 0.00 | 0.10 | 0.00 | 89 | 1014.2 |
| 20260904104233 | 25 | 360 | 8.0 | 14.5 | 0.00 | 0.10 | 0.00 | 89 | 1014.2 |
| 20260904104154 | 25 | 360 | 6.4 | 14.5 | 0.00 | 0.10 | 0.00 | 89 | 1014.1 |
| 20260904104032 | 25 | 360 | 6.4 | 14.5 | 0.00 | 0.10 | 0.00 | 89 | 1014.2 |
| 20260904103933 | 25 | 360 | 6.4 | 14.5 | 0.00 | 0.10 | 0.00 | 89 | 1014.2 |
| 20260904103832 | 25 | 360 | 8.0 | 14.5 | 0.00 | 0.10 | 0.00 | 89 | 1014.2 |
| 20260904103716 | 25 | 360 | 8.0 | 14.5 | 0.00 | 0.10 | 0.00 | 89 | 1014.2 |
| 20260904103617 | 25 | 360 | 8.0 | 14.5 | 0.00 | 0.10 | 0.00 | 89 | 1014.2 |
| 20260904103518 | 25 | 360 | 8.0 | 17.7 | 0.00 | 0.10 | 0.00 | 89 | 1014.1 |
| 20260904103419 | 25 | 360 | 8.0 | 17.7 | 0.00 | 0.10 | 0.00 | 89 | 1014.2 |
| 20260904103319 | 25 | 360 | 8.0 | 17.7 | 0.00 | 0.10 | 0.00 | 89 | 1014.2 |
| 20260904103220 | 25 | 360 | 8.0 | 17.7 | 0.00 | 0.10 | 0.00 | 89 | 1014.1 |
| 20260904103120 | 25 | 360 | 8.0 | 17.7 | 0.00 | 0.10 | 0.00 | 89 | 1014.1 |
| 20260904103025 | 25 | 360 | 8.0 | 17.7 | 0.00 | 0.10 | 0.00 | 89 | 1014.1 |
| 20260904102926 | 25 | 360 | 8.0 | 17.7 | 0.00 | 0.10 | 0.00 | 89 | 1014.1 |
| 20260904102828 | 25 | 360 | 9.7 | 17.7 | 0.00 | 0.10 | 0.00 | 89 | 1014.1 |
| 20260904102727 | 25 | 360 | 8.0 | 17.7 | 0.00 | 0.10 | 0.00 | 89 | 1014.1 |
| 20260904102627 | 25 | 360 | 9.7 | 17.7 | 0.00 | 0.10 | 0.00 | 89 | 1014.1 |
| 20260904102527 | 25 | 360 | 8.0 | 14.5 | 0.00 | 0.10 | 0.00 | 89 | 1014.1 |
| 20260904102432 | 25 | 360 | 8.0 | 12.9 | 0.00 | 0.10 | 0.00 | 89 | 1014.1 |
| 20260904102334 | 25 | 360 | 8.0 | 12.9 | 0.00 | 0.10 | 0.00 | 89 | 1014.0 |
| 20260904102254 | 25 | 360 | 6.4 | 12.9 | 0.00 | 0.10 | 0.00 | 89 | 1014.1 |
| 20260904102134 | 25 | 360 | 6.4 | 12.9 | 0.00 | 0.10 | 0.00 | 89 | 1014.1 |
| 20260904102054 | 25 | 360 | 6.4 | 11.3 | 0.00 | 0.10 | 0.00 | 89 | 1014.1 |
| 20260904101934 | 25 | 360 | 6.4 | 11.3 | 0.00 | 0.10 | 0.00 | 89 | 1014.1 |
| 20260904101834 | 25 | 360 | 6.4 | 9.7 | 0.00 | 0.10 | 0.00 | 89 | 1014.1 |
| 20260904101720 | 25 | 360 | 6.4 | 9.7 | 0.00 | 0.10 | 0.00 | 89 | 1014.1 |
| 20260904101640 | 25 | 360 | 6.4 | 9.7 | 0.00 | 0.10 | 0.00 | 89 | 1014.1 |
| 20260904101520 | 25 | 360 | 6.4 | 9.7 | 0.00 | 0.10 | 0.00 | 89 | 1014.1 |
| 20260904101421 | 25 | 360 | 6.4 | 9.7 | 0.00 | 0.10 | 0.00 | 89 | 1014.1 |
| 20260904101342 | 25 | 360 | 8.0 | 9.7 | 0.00 | 0.10 | 0.00 | 89 | 1014.1 |
| 20260904101222 | 25 | 360 | 6.4 | 9.7 | 0.00 | 0.10 | 0.00 | 89 | 1014.1 |
| 20260904101121 | 25 | 360 | 6.4 | 9.7 | 0.00 | 0.10 | 0.00 | 90 | 1014.1 |
| 20260904101022 | 25 | 360 | 6.4 | 9.7 | 0.00 | 0.10 | 0.00 | 89 | 1014.1 |
| 20260904100946 | 25 | 360 | 6.4 | 9.7 | 0.00 | 0.10 | 0.00 | 89 | 1014.1 |
| 20260904100826 | 25 | 360 | 6.4 | 9.7 | 0.00 | 0.10 | 0.00 | 89 | 1014.1 |
| 20260904100727 | 25 | 360 | 6.4 | 9.7 | 0.00 | 0.10 | 0.00 | 89 | 1014.1 |
| 20260904100628 | 25 | 360 | 6.4 | 14.5 | 0.00 | 0.10 | 0.00 | 89 | 1014.1 |
| 20260904100529 | 25 | 360 | 6.4 | 16.1 | 0.00 | 0.10 | 0.00 | 89 | 1014.1 |
| 20260904100428 | 25 | 360 | 6.4 | 16.1 | 0.00 | 0.10 | 0.00 | 89 | 1014.2 |
| 20260904100328 | 25 | 360 | 6.4 | 16.1 | 0.00 | 0.10 | 0.00 | 89 | 1014.2 |
| 20260904100232 | 25 | 360 | 6.4 | 16.1 | 0.00 | 0.10 | 0.00 | 89 | 1014.2 |
| 20260904100153 | 25 | 360 | 6.4 | 16.1 | 0.00 | 0.10 | 0.00 | 89 | 1014.2 |
| 20260904100033 | 25 | 360 | 8.0 | 16.1 | 0.00 | 0.10 | 0.00 | 89 | 1014.1 |
| 20260904095953 | 25 | 360 | 9.7 | 16.1 | 0.00 | 0.10 | 0.00 | 89 | 1014.2 |
| 20260904095834 | 25 | 360 | 11.3 | 16.1 | 0.00 | 0.10 | 0.00 | 89 | 1014.1 |
| 20260904095733 | 25 | 360 | 9.7 | 16.1 | 0.00 | 0.10 | 0.00 | 89 | 1014.1 |
| 20260904095634 | 25 | 360 | 8.0 | 16.1 | 0.00 | 0.10 | 0.00 | 89 | 1014.1 |
| 20260904095519 | 25 | 360 | 8.0 | 16.1 | 0.00 | 0.10 | 0.00 | 89 | 1014.1 |
| 20260904095420 | 25 | 360 | 6.4 | 12.9 | 0.00 | 0.10 | 0.00 | 89 | 1014.1 |
| 20260904095320 | 25 | 360 | 8.0 | 12.9 | 0.00 | 0.10 | 0.00 | 89 | 1014.0 |
| 20260904095221 | 25 | 360 | 8.0 | 12.9 | 0.00 | 0.10 | 0.00 | 89 | 1014.0 |
| 20260904095142 | 25 | 360 | 6.4 | 14.5 | 0.00 | 0.10 | 0.00 | 89 | 1014.1 |
| 20260904095021 | 25 | 360 | 6.4 | 14.5 | 0.00 | 0.10 | 0.00 | 89 | 1014.0 |
| 20260904094921 | 25 | 360 | 4.8 | 14.5 | 0.00 | 0.10 | 0.00 | 89 | 1014.1 |
| 20260904094821 | 25 | 360 | 4.8 | 14.5 | 0.00 | 0.10 | 0.00 | 89 | 1014.0 |
| 20260904094726 | 25 | 360 | 6.4 | 14.5 | 0.00 | 0.10 | 0.00 | 89 | 1014.1 |
| 20260904094624 | 25 | 360 | 6.4 | 14.5 | 0.00 | 0.10 | 0.00 | 89 | 1014.1 |
| 20260904094524 | 25 | 360 | 9.7 | 14.5 | 0.00 | 0.10 | 0.00 | 88 | 1014.0 |
| 20260904094425 | 25 | 360 | 9.7 | 14.5 | 0.00 | 0.10 | 0.00 | 88 | 1014.0 |
| 20260904094346 | 25 | 360 | 8.0 | 16.1 | 0.00 | 0.10 | 0.00 | 88 | 1014.1 |
| 20260904094225 | 25 | 360 | 6.4 | 16.1 | 0.00 | 0.10 | 0.00 | 88 | 1013.9 |
| 20260904094126 | 25 | 360 | 6.4 | 16.1 | 0.00 | 0.10 | 0.00 | 88 | 1014.0 |
| 20260904094030 | 25 | 360 | 6.4 | 16.1 | 0.00 | 0.10 | 0.00 | 88 | 1014.0 |
| 20260904093931 | 25 | 360 | 8.0 | 16.1 | 0.00 | 0.10 | 0.00 | 88 | 1014.0 |
| 20260904093831 | 25 | 360 | 8.0 | 17.7 | 0.00 | 0.10 | 0.00 | 88 | 1014.0 |
| 20260904093732 | 25 | 360 | 8.0 | 17.7 | 0.00 | 0.10 | 0.00 | 88 | 1014.0 |
| 20260904093633 | 25 | 360 | 8.0 | 17.7 | 0.00 | 0.10 | 0.00 | 88 | 1014.0 |
| 20260904093533 | 26 | 360 | 8.0 | 17.7 | 0.00 | 0.10 | 0.00 | 88 | 1014.1 |
| 20260904093454 | 26 | 360 | 8.0 | 17.7 | 0.00 | 0.10 | 0.00 | 88 | 1014.0 |
| 20260904093338 | 26 | 360 | 9.7 | 17.7 | 0.00 | 0.10 | 0.00 | 88 | 1014.0 |
| 20260904093218 | 26 | 360 | 11.3 | 17.7 | 0.00 | 0.10 | 0.00 | 88 | 1014.0 |
| 20260904093118 | 26 | 360 | 11.3 | 17.7 | 0.00 | 0.10 | 0.00 | 88 | 1013.9 |
| 20260904093019 | 26 | 360 | 9.7 | 17.7 | 0.00 | 0.10 | 0.00 | 87 | 1014.1 |
| 20260904092919 | 26 | 360 | 8.0 | 16.1 | 0.00 | 0.10 | 0.00 | 87 | 1014.0 |
| 20260904092840 | 26 | 360 | 8.0 | 16.1 | 0.00 | 0.10 | 0.00 | 87 | 1014.0 |
| 20260904092719 | 26 | 360 | 8.0 | 16.1 | 0.00 | 0.10 | 0.00 | 87 | 1013.9 |
| 20260904092640 | 26 | 360 | 8.0 | 16.1 | 0.00 | 0.10 | 0.00 | 87 | 1013.9 |
| 20260904092524 | 26 | 360 | 8.0 | 16.1 | 0.00 | 0.10 | 0.00 | 87 | 1013.9 |
| 20260904092445 | 26 | 360 | 8.0 | 16.1 | 0.00 | 0.10 | 0.00 | 87 | 1014.0 |
| 20260904092343 | 26 | 360 | 8.0 | 14.5 | 0.00 | 0.10 | 0.00 | 87 | 1014.0 |
| 20260904092224 | 26 | 360 | 6.4 | 9.7 | 0.00 | 0.10 | 0.00 | 87 | 1014.0 |
| 20260904092124 | 26 | 360 | 4.8 | 9.7 | 0.00 | 0.10 | 0.00 | 87 | 1013.9 |
| 20260904092025 | 26 | 360 | 4.8 | 9.7 | 0.00 | 0.10 | 0.00 | 87 | 1014.0 |
| 20260904091925 | 26 | 360 | 6.4 | 9.7 | 0.00 | 0.10 | 0.00 | 87 | 1014.0 |
| 20260904091830 | 26 | 360 | 6.4 | 9.7 | 0.00 | 0.10 | 0.00 | 86 | 1014.0 |
| 20260904091729 | 26 | 360 | 4.8 | 9.7 | 0.00 | 0.10 | 0.00 | 86 | 1014.0 |
| 20260904091630 | 26 | 360 | 4.8 | 19.3 | 0.00 | 0.10 | 0.00 | 86 | 1014.0 |
| 20260904091531 | 26 | 360 | 4.8 | 19.3 | 0.00 | 0.10 | 0.00 | 86 | 1013.9 |
| 20260904091432 | 26 | 180 | 4.8 | 19.3 | 0.00 | 0.10 | 0.00 | 86 | 1014.0 |
| 20260904091332 | 26 | 360 | 4.8 | 19.3 | 0.00 | 0.10 | 0.00 | 86 | 1013.9 |
| 20260904091232 | 26 | 360 | 4.8 | 19.3 | 0.00 | 0.10 | 0.00 | 86 | 1013.9 |
| 20260904091132 | 26 | 360 | 3.2 | 19.3 | 0.00 | 0.10 | 0.00 | 86 | 1013.9 |
| 20260904091056 | 26 | 360 | 3.2 | 19.3 | 0.00 | 0.10 | 0.00 | 86 | 1013.9 |
| 20260904090935 | 26 | 190 | 6.4 | 19.3 | 0.00 | 0.10 | 0.00 | 86 | 1014.0 |
| 20260904090856 | 26 | 360 | 8.0 | 19.3 | 0.00 | 0.10 | 0.00 | 86 | 1013.9 |
| 20260904090734 | 26 | 360 | 9.7 | 17.7 | 0.00 | 0.10 | 0.00 | 86 | 1013.8 |
| 20260904090635 | 26 | 360 | 8.0 | 17.7 | 0.00 | 0.10 | 0.00 | 86 | 1013.9 |
| 20260904090516 | 26 | 360 | 8.0 | 17.7 | 0.00 | 0.10 | 0.00 | 86 | 1013.8 |
| 20260904090417 | 26 | 360 | 8.0 | 17.7 | 0.00 | 0.10 | 0.00 | 87 | 1013.7 |
| 20260904090321 | 26 | 360 | 8.0 | 17.7 | 0.00 | 0.10 | 0.00 | 86 | 1013.8 |
| 20260904090222 | 26 | 360 | 6.4 | 12.9 | 0.00 | 0.10 | 0.00 | 86 | 1013.8 |
| 20260904090121 | 26 | 360 | 4.8 | 12.9 | 0.00 | 0.10 | 0.00 | 86 | 1013.8 |
| 20260904090023 | 26 | 360 | 4.8 | 12.9 | 0.00 | 0.10 | 0.00 | 86 | 1013.9 |
| 20260904085924 | 26 | 360 | 3.2 | 12.9 | 0.00 | 0.10 | 0.00 | 86 | 1013.9 |
| 20260904085826 | 26 | 360 | 4.8 | 12.9 | 0.00 | 0.10 | 0.00 | 86 | 1013.9 |
| 20260904085731 | 26 | 360 | 3.2 | 9.7 | 0.00 | 0.10 | 0.00 | 86 | 1013.9 |
| 20260904085631 | 26 | 360 | 4.8 | 9.7 | 0.00 | 0.10 | 0.00 | 86 | 1013.9 |
| 20260904085533 | 26 | 360 | 4.8 | 9.7 | 0.00 | 0.10 | 0.00 | 86 | 1014.0 |
| 20260904085433 | 26 | 188 | 4.8 | 16.1 | 0.00 | 0.10 | 0.00 | 86 | 1014.0 |
| 20260904085334 | 26 | 360 | 4.8 | 16.1 | 0.00 | 0.10 | 0.00 | 86 | 1014.0 |
| 20260904085255 | 26 | 360 | 4.8 | 16.1 | 0.00 | 0.10 | 0.00 | 86 | 1014.0 |
| 20260904085153 | 26 | 360 | 4.8 | 16.1 | 0.00 | 0.10 | 0.00 | 86 | 1014.0 |
| 20260904085017 | 26 | 360 | 3.2 | 16.1 | 0.00 | 0.10 | 0.00 | 86 | 1014.0 |
| 20260904084919 | 26 | 360 | 1.6 | 16.1 | 0.00 | 0.10 | 0.00 | 86 | 1014.1 |
| 20260904084820 | 26 | 360 | 4.8 | 16.1 | 0.00 | 0.10 | 0.00 | 86 | 1014.0 |
| 20260904084740 | 26 | 360 | 4.8 | 16.1 | 0.00 | 0.10 | 0.00 | 86 | 1014.1 |
| 20260904084620 | 26 | 360 | 8.0 | 16.1 | 0.00 | 0.10 | 0.00 | 86 | 1014.0 |
| 20260904084521 | 26 | 360 | 6.4 | 16.1 | 0.00 | 0.10 | 0.00 | 86 | 1014.0 |
| 20260904084421 | 26 | 360 | 6.4 | 16.1 | 0.00 | 0.10 | 0.00 | 86 | 1014.1 |
| 20260904084327 | 26 | 360 | 4.8 | 12.9 | 0.00 | 0.10 | 0.00 | 86 | 1014.0 |
| 20260904084228 | 26 | 360 | 4.8 | 12.9 | 0.00 | 0.10 | 0.00 | 86 | 1014.0 |
| 20260904084128 | 26 | 360 | 6.4 | 12.9 | 0.00 | 0.10 | 0.00 | 86 | 1014.0 |
| 20260904084028 | 26 | 360 | 6.4 | 14.5 | 0.00 | 0.10 | 0.00 | 86 | 1014.0 |
| 20260904083929 | 26 | 360 | 6.4 | 14.5 | 0.00 | 0.10 | 0.00 | 86 | 1014.0 |
| 20260904083830 | 26 | 360 | 6.4 | 14.5 | 0.00 | 0.10 | 0.00 | 86 | 1014.0 |
| 20260904083731 | 26 | 360 | 8.0 | 14.5 | 0.00 | 0.10 | 0.00 | 86 | 1014.0 |
| 20260904083616 | 26 | 360 | 8.0 | 14.5 | 0.00 | 0.10 | 0.00 | 86 | 1014.1 |
| 20260904083517 | 26 | 360 | 8.0 | 22.5 | 0.00 | 0.10 | 0.00 | 86 | 1014.1 |
| 20260904083419 | 26 | 360 | 8.0 | 22.5 | 0.00 | 0.10 | 0.00 | 86 | 1014.0 |
| 20260904083339 | 26 | 169 | 8.0 | 22.5 | 0.00 | 0.10 | 0.00 | 86 | 1014.0 |
| 20260904083239 | 26 | 360 | 9.7 | 22.5 | 0.00 | 0.10 | 0.00 | 86 | 1014.0 |
| 20260904083117 | 26 | 360 | 9.7 | 22.5 | 0.00 | 0.10 | 0.00 | 86 | 1014.1 |
| 20260904083018 | 26 | 360 | 8.0 | 22.5 | 0.00 | 0.10 | 0.00 | 86 | 1014.1 |
| 20260904082922 | 26 | 360 | 8.0 | 22.5 | 0.00 | 0.10 | 0.00 | 86 | 1014.1 |
| 20260904082825 | 26 | 360 | 9.7 | 22.5 | 0.00 | 0.10 | 0.00 | 86 | 1014.0 |
| 20260904082724 | 26 | 360 | 11.3 | 22.5 | 0.00 | 0.10 | 0.00 | 86 | 1014.1 |
| 20260904082624 | 26 | 360 | 9.7 | 22.5 | 0.00 | 0.10 | 0.00 | 86 | 1014.0 |
| 20260904082524 | 26 | 360 | 11.3 | 20.9 | 0.00 | 0.10 | 0.00 | 86 | 1014.0 |
| 20260904082424 | 26 | 360 | 9.7 | 19.3 | 0.00 | 0.10 | 0.00 | 86 | 1014.0 |
| 20260904082325 | 26 | 360 | 9.7 | 19.3 | 0.00 | 0.10 | 0.00 | 85 | 1014.0 |
| 20260904082228 | 26 | 360 | 8.0 | 19.3 | 0.00 | 0.10 | 0.00 | 85 | 1014.0 |
| 20260904082129 | 26 | 178 | 4.8 | 19.3 | 0.00 | 0.10 | 0.00 | 85 | 1013.9 |
| 20260904082030 | 26 | 360 | 6.4 | 19.3 | 0.00 | 0.10 | 0.00 | 85 | 1014.0 |
| 20260904081950 | 26 | 360 | 8.0 | 19.3 | 0.00 | 0.10 | 0.00 | 85 | 1014.0 |
| 20260904081830 | 26 | 360 | 11.3 | 25.7 | 0.00 | 0.10 | 0.00 | 85 | 1014.0 |
| 20260904081731 | 26 | 180 | 8.0 | 25.7 | 0.00 | 0.10 | 0.00 | 85 | 1013.9 |
| 20260904081632 | 26 | 360 | 8.0 | 25.7 | 0.00 | 0.10 | 0.00 | 85 | 1013.9 |
| 20260904081516 | 26 | 360 | 8.0 | 25.7 | 0.00 | 0.10 | 0.00 | 85 | 1013.9 |
| 20260904081437 | 26 | 360 | 8.0 | 25.7 | 0.00 | 0.10 | 0.00 | 85 | 1013.9 |
| 20260904081316 | 26 | 360 | 11.3 | 25.7 | 0.00 | 0.10 | 0.00 | 85 | 1013.9 |
| 20260904081217 | 26 | 360 | 11.3 | 25.7 | 0.00 | 0.10 | 0.00 | 85 | 1013.9 |
| 20260904081118 | 26 | 360 | 12.9 | 25.7 | 0.00 | 0.10 | 0.00 | 85 | 1013.9 |
| 20260904081020 | 26 | 360 | 11.3 | 25.7 | 0.00 | 0.10 | 0.00 | 85 | 1013.9 |
| 20260904080920 | 26 | 360 | 8.0 | 24.1 | 0.00 | 0.10 | 0.00 | 85 | 1014.0 |
| 20260904080825 | 26 | 360 | 8.0 | 24.1 | 0.00 | 0.10 | 0.00 | 85 | 1014.0 |
| 20260904080726 | 26 | 360 | 6.4 | 24.1 | 0.00 | 0.10 | 0.00 | 85 | 1013.9 |
| 20260904080626 | 26 | 360 | 8.0 | 24.1 | 0.00 | 0.10 | 0.00 | 85 | 1013.9 |
| 20260904080527 | 26 | 360 | 8.0 | 24.1 | 0.00 | 0.10 | 0.00 | 85 | 1013.9 |
| 20260904080427 | 26 | 360 | 6.4 | 19.3 | 0.00 | 0.10 | 0.00 | 85 | 1013.9 |
| 20260904080328 | 26 | 360 | 6.4 | 24.1 | 0.00 | 0.10 | 0.00 | 85 | 1014.0 |
| 20260904080230 | 26 | 186 | 6.4 | 24.1 | 0.00 | 0.10 | 0.00 | 85 | 1013.9 |
| 20260904080130 | 26 | 360 | 6.4 | 24.1 | 0.00 | 0.10 | 0.00 | 85 | 1014.0 |
| 20260904080051 | 26 | 360 | 8.0 | 24.1 | 0.00 | 0.10 | 0.00 | 85 | 1013.9 |
| 20260904075930 | 26 | 360 | 8.0 | 24.1 | 0.00 | 0.10 | 0.00 | 85 | 1013.9 |
| 20260904075832 | 26 | 360 | 9.7 | 24.1 | 0.00 | 0.10 | 0.00 | 85 | 1013.9 |
| 20260904075751 | 26 | 360 | 9.7 | 25.7 | 0.00 | 0.10 | 0.00 | 84 | 1013.9 |
| 20260904075630 | 26 | 360 | 12.9 | 25.7 | 0.00 | 0.10 | 0.00 | 84 | 1013.9 |
| 20260904075530 | 26 | 360 | 12.9 | 25.7 | 0.00 | 0.10 | 0.00 | 84 | 1013.9 |
| 20260904075434 | 26 | 360 | 11.3 | 25.7 | 0.00 | 0.10 | 0.00 | 85 | 1013.9 |
| 20260904075354 | 26 | 360 | 9.7 | 25.7 | 0.00 | 0.10 | 0.00 | 84 | 1013.9 |
| 20260904075255 | 26 | 360 | 11.3 | 25.7 | 0.00 | 0.10 | 0.00 | 84 | 1014.0 |
| 20260904075134 | 26 | 360 | 14.5 | 25.7 | 0.00 | 0.10 | 0.00 | 84 | 1013.9 |
| 20260904075035 | 26 | 360 | 14.5 | 25.7 | 0.00 | 0.10 | 0.00 | 84 | 1013.9 |
| 20260904074954 | 26 | 360 | 14.5 | 25.7 | 0.00 | 0.10 | 0.00 | 84 | 1013.9 |
| 20260904074834 | 26 | 360 | 11.3 | 25.7 | 0.00 | 0.10 | 0.00 | 84 | 1014.0 |
| 20260904074731 | 26 | 360 | 11.3 | 25.7 | 0.00 | 0.10 | 0.00 | 84 | 1013.9 |
| 20260904074631 | 26 | 360 | 11.3 | 25.7 | 0.00 | 0.10 | 0.00 | 84 | 1014.0 |
| 20260904074551 | 26 | 360 | 12.9 | 25.7 | 0.00 | 0.10 | 0.00 | 84 | 1013.9 |
| 20260904074435 | 26 | 360 | 14.5 | 25.7 | 0.00 | 0.10 | 0.00 | 84 | 1014.0 |
| 20260904074315 | 26 | 360 | 11.3 | 25.7 | 0.00 | 0.10 | 0.00 | 84 | 1014.0 |
| 20260904074216 | 26 | 360 | 9.7 | 25.7 | 0.00 | 0.10 | 0.00 | 84 | 1014.0 |
| 20260904074116 | 26 | 360 | 8.0 | 25.7 | 0.00 | 0.10 | 0.00 | 84 | 1014.1 |
| 20260904074037 | 26 | 360 | 9.7 | 25.7 | 0.00 | 0.10 | 0.00 | 84 | 1014.0 |
| 20260904073916 | 26 | 360 | 9.7 | 25.7 | 0.00 | 0.10 | 0.00 | 84 | 1014.1 |
| 20260904073817 | 26 | 360 | 11.3 | 24.1 | 0.00 | 0.10 | 0.00 | 84 | 1014.1 |
| 20260904073722 | 26 | 360 | 12.9 | 24.1 | 0.00 | 0.10 | 0.00 | 84 | 1014.1 |
| 20260904073622 | 26 | 360 | 14.5 | 24.1 | 0.00 | 0.10 | 0.00 | 84 | 1014.1 |
| 20260904073523 | 26 | 360 | 11.3 | 24.1 | 0.00 | 0.10 | 0.00 | 84 | 1014.2 |
| 20260904073425 | 26 | 360 | 8.0 | 27.4 | 0.00 | 0.10 | 0.00 | 84 | 1014.2 |
| 20260904073346 | 26 | 360 | 6.4 | 29.0 | 0.00 | 0.10 | 0.00 | 84 | 1014.2 |
| 20260904073225 | 26 | 360 | 8.0 | 29.0 | 0.00 | 0.10 | 0.00 | 84 | 1014.1 |
| 20260904073148 | 26 | 360 | 9.7 | 29.0 | 0.00 | 0.10 | 0.00 | 84 | 1014.1 |
| 20260904073032 | 26 | 360 | 9.7 | 29.0 | 0.00 | 0.10 | 0.00 | 84 | 1014.1 |
| 20260904072933 | 26 | 360 | 9.7 | 29.0 | 0.00 | 0.10 | 0.00 | 84 | 1014.1 |
| 20260904072816 | 26 | 360 | 11.3 | 29.0 | 0.00 | 0.10 | 0.00 | 84 | 1014.2 |
| 20260904072716 | 26 | 360 | 16.1 | 29.0 | 0.00 | 0.10 | 0.00 | 84 | 1014.2 |
| 20260904072617 | 26 | 360 | 14.5 | 29.0 | 0.00 | 0.10 | 0.00 | 84 | 1014.2 |
| 20260904072537 | 26 | 360 | 14.5 | 29.0 | 0.00 | 0.10 | 0.00 | 84 | 1014.1 |
| 20260904072419 | 26 | 360 | 14.5 | 29.0 | 0.00 | 0.10 | 0.00 | 84 | 1014.2 |
| 20260904072323 | 26 | 360 | 14.5 | 29.0 | 0.00 | 0.10 | 0.00 | 84 | 1014.2 |
| 20260904072244 | 26 | 175 | 16.1 | 29.0 | 0.00 | 0.10 | 0.00 | 84 | 1014.1 |
| 20260904072123 | 26 | 360 | 14.5 | 29.0 | 0.00 | 0.10 | 0.00 | 84 | 1014.1 |
| 20260904072024 | 26 | 360 | 11.3 | 20.9 | 0.00 | 0.10 | 0.00 | 84 | 1014.1 |
| 20260904071924 | 26 | 360 | 11.3 | 20.9 | 0.00 | 0.10 | 0.00 | 84 | 1014.1 |
| 20260904071826 | 26 | 360 | 11.3 | 20.9 | 0.00 | 0.10 | 0.00 | 84 | 1014.2 |
| 20260904071727 | 26 | 360 | 12.9 | 20.9 | 0.00 | 0.10 | 0.00 | 84 | 1014.2 |
| 20260904071631 | 26 | 360 | 11.3 | 20.9 | 0.00 | 0.10 | 0.00 | 84 | 1014.2 |
| 20260904071532 | 26 | 360 | 9.7 | 19.3 | 0.00 | 0.10 | 0.00 | 84 | 1014.2 |
| 20260904071434 | 26 | 360 | 6.4 | 19.3 | 0.00 | 0.10 | 0.00 | 83 | 1014.2 |
| 20260904071354 | 26 | 360 | 6.4 | 19.3 | 0.00 | 0.10 | 0.00 | 83 | 1014.3 |
| 20260904071233 | 26 | 360 | 8.0 | 19.3 | 0.00 | 0.10 | 0.00 | 83 | 1014.2 |
| 20260904071134 | 26 | 360 | 11.3 | 19.3 | 0.00 | 0.10 | 0.00 | 83 | 1014.3 |
| 20260904071056 | 26 | 360 | 11.3 | 19.3 | 0.00 | 0.10 | 0.00 | 83 | 1014.2 |
| 20260904070919 | 26 | 360 | 11.3 | 19.3 | 0.00 | 0.10 | 0.00 | 83 | 1014.3 |
| 20260904070839 | 26 | 360 | 8.0 | 19.3 | 0.00 | 0.10 | 0.00 | 83 | 1014.3 |
| 20260904070719 | 26 | 360 | 9.7 | 19.3 | 0.00 | 0.10 | 0.00 | 83 | 1014.2 |
| 20260904070621 | 26 | 360 | 8.0 | 19.3 | 0.00 | 0.10 | 0.00 | 83 | 1014.3 |
| 20260904070522 | 26 | 360 | 8.0 | 20.9 | 0.00 | 0.10 | 0.00 | 83 | 1014.3 |
| 20260904070443 | 26 | 360 | 8.0 | 20.9 | 0.00 | 0.10 | 0.00 | 83 | 1014.3 |
| 20260904070322 | 26 | 360 | 9.7 | 20.9 | 0.00 | 0.10 | 0.00 | 83 | 1014.3 |
| 20260904070223 | 26 | 360 | 11.3 | 20.9 | 0.00 | 0.10 | 0.00 | 83 | 1014.3 |
| 20260904070128 | 26 | 360 | 11.3 | 20.9 | 0.00 | 0.10 | 0.00 | 83 | 1014.3 |
| 20260904070029 | 26 | 360 | 11.3 | 22.5 | 0.00 | 0.10 | 0.00 | 83 | 1014.4 |
| 20260904065931 | 26 | 360 | 11.3 | 22.5 | 0.00 | 0.10 | 0.00 | 83 | 1014.4 |
| 20260904065833 | 26 | 360 | 11.3 | 22.5 | 0.00 | 0.10 | 0.00 | 83 | 1014.3 |
| 20260904065733 | 26 | 360 | 11.3 | 22.5 | 0.00 | 0.10 | 0.00 | 83 | 1014.3 |
| 20260904065634 | 26 | 360 | 11.3 | 22.5 | 0.00 | 0.10 | 0.00 | 83 | 1014.4 |
| 20260904065519 | 26 | 360 | 12.9 | 22.5 | 0.00 | 0.10 | 0.00 | 83 | 1014.4 |
| 20260904065418 | 26 | 360 | 11.3 | 20.9 | 0.00 | 0.10 | 0.00 | 83 | 1014.4 |
| 20260904065320 | 26 | 360 | 11.3 | 20.9 | 0.00 | 0.10 | 0.00 | 83 | 1014.4 |
| 20260904065221 | 26 | 360 | 9.7 | 20.9 | 0.00 | 0.10 | 0.00 | 83 | 1014.4 |
| 20260904065121 | 26 | 360 | 9.7 | 20.9 | 0.00 | 0.10 | 0.00 | 83 | 1014.4 |
| 20260904065021 | 26 | 360 | 9.7 | 22.5 | 0.00 | 0.10 | 0.00 | 83 | 1014.4 |
| 20260904064920 | 26 | 360 | 9.7 | 22.5 | 0.00 | 0.10 | 0.00 | 83 | 1014.4 |
| 20260904064825 | 26 | 360 | 8.0 | 24.1 | 0.00 | 0.10 | 0.00 | 83 | 1014.4 |
| 20260904064725 | 26 | 360 | 8.0 | 24.1 | 0.00 | 0.10 | 0.00 | 83 | 1014.4 |
| 20260904064645 | 26 | 360 | 8.0 | 24.1 | 0.00 | 0.10 | 0.00 | 83 | 1014.4 |
| 20260904064525 | 26 | 360 | 8.0 | 24.1 | 0.00 | 0.10 | 0.00 | 83 | 1014.4 |
| 20260904064446 | 26 | 360 | 11.3 | 24.1 | 0.00 | 0.10 | 0.00 | 83 | 1014.3 |
| 20260904064325 | 26 | 360 | 12.9 | 24.1 | 0.00 | 0.10 | 0.00 | 83 | 1014.3 |
| 20260904064247 | 26 | 360 | 12.9 | 30.6 | 0.00 | 0.10 | 0.00 | 83 | 1014.4 |
| 20260904064126 | 26 | 360 | 11.3 | 30.6 | 0.00 | 0.10 | 0.00 | 83 | 1014.4 |
| 20260904064026 | 26 | 360 | 8.0 | 30.6 | 0.00 | 0.10 | 0.00 | 83 | 1014.3 |
| 20260904063931 | 26 | 360 | 8.0 | 30.6 | 0.00 | 0.10 | 0.00 | 83 | 1014.3 |
| 20260904063832 | 26 | 360 | 8.0 | 30.6 | 0.00 | 0.10 | 0.00 | 83 | 1014.3 |
| 20260904063753 | 26 | 360 | 11.3 | 30.6 | 0.00 | 0.10 | 0.00 | 83 | 1014.3 |
| 20260904063653 | 26 | 360 | 11.3 | 30.6 | 0.00 | 0.10 | 0.00 | 83 | 1014.4 |
| 20260904063552 | 26 | 360 | 11.3 | 30.6 | 0.00 | 0.10 | 0.00 | 83 | 1014.3 |
| 20260904063431 | 26 | 360 | 11.3 | 20.9 | 0.00 | 0.10 | 0.00 | 83 | 1014.4 |
| 20260904063332 | 26 | 360 | 9.7 | 20.9 | 0.00 | 0.10 | 0.00 | 83 | 1014.4 |
| 20260904063252 | 26 | 360 | 9.7 | 20.9 | 0.00 | 0.10 | 0.00 | 83 | 1014.3 |
| 20260904063116 | 26 | 360 | 8.0 | 20.9 | 0.00 | 0.10 | 0.00 | 83 | 1014.4 |
| 20260904063016 | 26 | 360 | 9.7 | 20.9 | 0.00 | 0.10 | 0.00 | 83 | 1014.4 |
| 20260904062918 | 26 | 360 | 9.7 | 20.9 | 0.00 | 0.10 | 0.00 | 83 | 1014.4 |
| 20260904062820 | 26 | 360 | 11.3 | 20.9 | 0.00 | 0.10 | 0.00 | 83 | 1014.4 |
| 20260904062719 | 26 | 360 | 12.9 | 20.9 | 0.00 | 0.10 | 0.00 | 83 | 1014.3 |
| 20260904062619 | 26 | 360 | 14.5 | 20.9 | 0.00 | 0.10 | 0.00 | 83 | 1014.3 |
| 20260904062524 | 26 | 360 | 12.9 | 20.9 | 0.00 | 0.10 | 0.00 | 83 | 1014.3 |
| 20260904062444 | 26 | 360 | 11.3 | 20.9 | 0.00 | 0.10 | 0.00 | 83 | 1014.3 |
| 20260904062323 | 26 | 360 | 9.7 | 19.3 | 0.00 | 0.10 | 0.00 | 82 | 1014.3 |
| 20260904062223 | 26 | 360 | 9.7 | 19.3 | 0.00 | 0.10 | 0.00 | 82 | 1014.3 |
| 20260904062124 | 26 | 360 | 11.3 | 19.3 | 0.00 | 0.10 | 0.00 | 82 | 1014.3 |
| 20260904062024 | 26 | 360 | 11.3 | 19.3 | 0.00 | 0.10 | 0.00 | 82 | 1014.4 |
| 20260904061925 | 26 | 360 | 9.7 | 24.1 | 0.00 | 0.10 | 0.00 | 82 | 1014.3 |
| 20260904061830 | 26 | 360 | 9.7 | 24.1 | 0.00 | 0.10 | 0.00 | 82 | 1014.3 |
| 20260904061730 | 26 | 360 | 9.7 | 24.1 | 0.00 | 0.10 | 0.00 | 82 | 1014.3 |
| 20260904061630 | 26 | 360 | 9.7 | 24.1 | 0.00 | 0.10 | 0.00 | 82 | 1014.4 |
| 20260904061530 | 26 | 360 | 11.3 | 24.1 | 0.00 | 0.10 | 0.00 | 82 | 1014.3 |
| 20260904061431 | 26 | 360 | 11.3 | 24.1 | 0.00 | 0.10 | 0.00 | 82 | 1014.4 |
| 20260904061331 | 26 | 360 | 12.9 | 27.4 | 0.00 | 0.10 | 0.00 | 82 | 1014.3 |
| 20260904061251 | 26 | 360 | 12.9 | 27.4 | 0.00 | 0.10 | 0.00 | 82 | 1014.4 |
| 20260904061151 | 26 | 360 | 14.5 | 27.4 | 0.00 | 0.10 | 0.00 | 82 | 1014.4 |
| 20260904061034 | 26 | 360 | 12.9 | 27.4 | 0.00 | 0.10 | 0.00 | 82 | 1014.3 |
| 20260904060935 | 26 | 360 | 11.3 | 27.4 | 0.00 | 0.10 | 0.00 | 82 | 1014.4 |
| 20260904060854 | 26 | 360 | 12.9 | 27.4 | 0.00 | 0.10 | 0.00 | 82 | 1014.3 |
| 20260904060734 | 26 | 360 | 14.5 | 27.4 | 0.00 | 0.10 | 0.00 | 82 | 1014.4 |
| 20260904060655 | 26 | 360 | 16.1 | 27.4 | 0.00 | 0.10 | 0.00 | 82 | 1014.4 |
| 20260904060535 | 26 | 360 | 14.5 | 27.4 | 0.00 | 0.10 | 0.00 | 82 | 1014.4 |
| 20260904060435 | 26 | 360 | 14.5 | 30.6 | 0.00 | 0.10 | 0.00 | 82 | 1014.4 |
| 20260904060319 | 26 | 360 | 14.5 | 30.6 | 0.00 | 0.10 | 0.00 | 82 | 1014.4 |
| 20260904060219 | 26 | 360 | 12.9 | 30.6 | 0.00 | 0.10 | 0.00 | 82 | 1014.4 |
| 20260904060140 | 26 | 360 | 11.3 | 30.6 | 0.00 | 0.10 | 0.00 | 82 | 1014.3 |
| 20260904060020 | 26 | 360 | 9.7 | 30.6 | 0.00 | 0.10 | 0.00 | 82 | 1014.3 |
| 20260904055918 | 26 | 360 | 11.3 | 30.6 | 0.00 | 0.10 | 0.00 | 82 | 1014.4 |
| 20260904055820 | 26 | 360 | 14.5 | 30.6 | 0.00 | 0.10 | 0.00 | 81 | 1014.4 |
| 20260904055720 | 26 | 360 | 14.5 | 30.6 | 0.00 | 0.10 | 0.10 | 81 | 1014.4 |
| 20260904055626 | 26 | 360 | 16.1 | 30.6 | 0.00 | 0.10 | 0.10 | 81 | 1014.3 |
| 20260904055527 | 26 | 360 | 16.1 | 27.4 | 0.00 | 0.10 | 0.10 | 81 | 1014.3 |
| 20260904055427 | 26 | 360 | 16.1 | 27.4 | 0.00 | 0.10 | 0.10 | 81 | 1014.4 |
| 20260904055327 | 26 | 360 | 16.1 | 27.4 | 0.00 | 0.10 | 0.10 | 81 | 1014.4 |
| 20260904055228 | 26 | 360 | 16.1 | 27.4 | 0.00 | 0.10 | 0.10 | 81 | 1014.4 |
| 20260904055129 | 26 | 360 | 17.7 | 27.4 | 0.00 | 0.10 | 0.10 | 81 | 1014.4 |
| 20260904055030 | 26 | 360 | 17.7 | 27.4 | 0.00 | 0.10 | 0.10 | 81 | 1014.3 |
| 20260904054934 | 26 | 360 | 14.5 | 27.4 | 0.00 | 0.10 | 0.10 | 81 | 1014.4 |
| 20260904054835 | 26 | 360 | 14.5 | 29.0 | 0.00 | 0.10 | 0.10 | 81 | 1014.4 |
| 20260904054735 | 26 | 360 | 12.9 | 29.0 | 0.00 | 0.10 | 0.10 | 81 | 1014.4 |
| 20260904054635 | 26 | 360 | 16.1 | 29.0 | 0.00 | 0.10 | 0.10 | 81 | 1014.3 |
| 20260904054517 | 26 | 360 | 17.7 | 29.0 | 0.00 | 0.10 | 0.10 | 81 | 1014.4 |
| 20260904054437 | 26 | 360 | 16.1 | 32.2 | 0.00 | 0.10 | 0.10 | 81 | 1014.3 |
| 20260904054337 | 26 | 360 | 14.5 | 32.2 | 0.00 | 0.10 | 0.10 | 81 | 1014.3 |
| 20260904054220 | 26 | 360 | 14.5 | 33.8 | 0.00 | 0.10 | 0.10 | 81 | 1014.3 |
| 20260904054141 | 26 | 360 | 14.5 | 33.8 | 0.00 | 0.10 | 0.10 | 81 | 1014.3 |
| 20260904054021 | 26 | 360 | 16.1 | 33.8 | 0.00 | 0.10 | 0.10 | 81 | 1014.3 |
| 20260904053921 | 26 | 360 | 14.5 | 33.8 | 0.00 | 0.10 | 0.10 | 81 | 1014.3 |
| 20260904053822 | 26 | 360 | 14.5 | 33.8 | 0.00 | 0.10 | 0.10 | 81 | 1014.2 |
| 20260904053723 | 26 | 360 | 14.5 | 33.8 | 0.00 | 0.10 | 0.10 | 81 | 1014.2 |
| 20260904053624 | 26 | 360 | 16.1 | 33.8 | 0.00 | 0.10 | 0.10 | 81 | 1014.2 |
| 20260904053545 | 26 | 360 | 19.3 | 33.8 | 0.00 | 0.10 | 0.10 | 81 | 1014.2 |
| 20260904053448 | 26 | 360 | 20.9 | 33.8 | 0.00 | 0.10 | 0.10 | 81 | 1014.3 |
| 20260904053328 | 26 | 360 | 19.3 | 30.6 | 0.00 | 0.10 | 0.10 | 81 | 1014.2 |
| 20260904053248 | 26 | 360 | 17.7 | 29.0 | 0.00 | 0.10 | 0.10 | 81 | 1014.3 |
| 20260904053128 | 26 | 360 | 14.5 | 27.4 | 0.00 | 0.10 | 0.10 | 81 | 1014.1 |
| 20260904053028 | 26 | 360 | 14.5 | 30.6 | 0.00 | 0.10 | 0.10 | 81 | 1014.2 |
| 20260904052929 | 26 | 360 | 16.1 | 30.6 | 0.00 | 0.10 | 0.10 | 81 | 1014.3 |
| 20260904052830 | 26 | 360 | 16.1 | 30.6 | 0.00 | 0.10 | 0.10 | 81 | 1014.2 |
| 20260904052749 | 26 | 360 | 16.1 | 30.6 | 0.00 | 0.10 | 0.10 | 81 | 1014.2 |
| 20260904052633 | 26 | 360 | 14.5 | 30.6 | 0.00 | 0.10 | 0.10 | 81 | 1014.2 |
| 20260904052533 | 26 | 360 | 14.5 | 30.6 | 0.00 | 0.10 | 0.10 | 80 | 1014.2 |
| 20260904052434 | 26 | 360 | 14.5 | 30.6 | 0.00 | 0.10 | 0.10 | 80 | 1014.2 |
| 20260904052333 | 26 | 360 | 16.1 | 30.6 | 0.00 | 0.10 | 0.10 | 80 | 1014.2 |
| 20260904052254 | 26 | 360 | 16.1 | 30.6 | 0.00 | 0.10 | 0.10 | 80 | 1014.1 |
| 20260904052133 | 26 | 360 | 14.5 | 27.4 | 0.00 | 0.10 | 0.10 | 80 | 1014.2 |
| 20260904052054 | 26 | 360 | 14.5 | 27.4 | 0.00 | 0.10 | 0.10 | 80 | 1014.1 |
| 20260904051933 | 26 | 360 | 14.5 | 27.4 | 0.00 | 0.10 | 0.10 | 80 | 1014.1 |
| 20260904051817 | 26 | 360 | 16.1 | 29.0 | 0.00 | 0.10 | 0.10 | 80 | 1014.1 |
| 20260904051718 | 26 | 360 | 17.7 | 29.0 | 0.00 | 0.10 | 0.10 | 80 | 1014.1 |
| 20260904051639 | 26 | 360 | 17.7 | 29.0 | 0.00 | 0.10 | 0.10 | 80 | 1014.1 |
| 20260904051519 | 26 | 360 | 17.7 | 29.0 | 0.00 | 0.10 | 0.10 | 80 | 1014.1 |
| 20260904051417 | 26 | 360 | 17.7 | 29.0 | 0.00 | 0.10 | 0.10 | 80 | 1014.1 |
| 20260904051318 | 26 | 360 | 17.7 | 29.0 | 0.00 | 0.10 | 0.10 | 80 | 1014.1 |
| 20260904051218 | 26 | 180 | 17.7 | 29.0 | 0.00 | 0.10 | 0.10 | 80 | 1014.1 |
| 20260904051123 | 26 | 360 | 16.1 | 29.0 | 0.00 | 0.10 | 0.10 | 80 | 1014.1 |
| 20260904051044 | 26 | 360 | 16.1 | 29.0 | 0.00 | 0.10 | 0.10 | 80 | 1014.1 |
| 20260904050925 | 26 | 360 | 16.1 | 24.1 | 0.00 | 0.10 | 0.10 | 80 | 1014.1 |
| 20260904050825 | 26 | 360 | 16.1 | 24.1 | 0.00 | 0.10 | 0.10 | 80 | 1014.1 |
| 20260904050727 | 26 | 360 | 17.7 | 24.1 | 0.00 | 0.10 | 0.10 | 80 | 1014.1 |
| 20260904050628 | 26 | 360 | 16.1 | 24.1 | 0.00 | 0.10 | 0.10 | 80 | 1014.0 |
| 20260904050529 | 26 | 360 | 17.7 | 24.1 | 0.00 | 0.10 | 0.10 | 80 | 1014.1 |
| 20260904050432 | 26 | 360 | 17.7 | 24.1 | 0.00 | 0.10 | 0.10 | 80 | 1014.1 |
| 20260904050333 | 26 | 360 | 16.1 | 24.1 | 0.00 | 0.10 | 0.10 | 80 | 1014.1 |
| 20260904050234 | 26 | 360 | 17.7 | 24.1 | 0.00 | 0.10 | 0.10 | 80 | 1014.1 |
| 20260904050134 | 26 | 360 | 16.1 | 24.1 | 0.00 | 0.10 | 0.10 | 80 | 1014.1 |
| 20260904050036 | 26 | 360 | 16.1 | 24.1 | 0.00 | 0.10 | 0.10 | 80 | 1014.1 |
| 20260904045929 | 26 | 360 | 16.1 | 24.1 | 0.00 | 0.10 | 0.10 | 80 | 1014.2 |
| 20260904045832 | 26 | 360 | 16.1 | 24.1 | 0.00 | 0.10 | 0.10 | 80 | 1014.1 |
| 20260904045734 | 26 | 161 | 16.1 | 24.1 | 0.00 | 0.10 | 0.10 | 80 | 1014.2 |
| 20260904045635 | 26 | 360 | 16.1 | 24.1 | 0.00 | 0.10 | 0.10 | 80 | 1014.2 |
| 20260904045535 | 26 | 161 | 16.1 | 22.5 | 0.00 | 0.10 | 0.10 | 80 | 1014.2 |
| 20260904045435 | 26 | 180 | 16.1 | 22.5 | 0.00 | 0.10 | 0.10 | 80 | 1014.2 |
| 20260904045356 | 26 | 360 | 17.7 | 24.1 | 0.00 | 0.10 | 0.10 | 80 | 1014.2 |
| 20260904045235 | 26 | 360 | 17.7 | 33.8 | 0.00 | 0.10 | 0.10 | 80 | 1014.2 |
| 20260904045120 | 26 | 360 | 16.1 | 33.8 | 0.00 | 0.10 | 0.10 | 80 | 1014.1 |
| 20260904045020 | 26 | 360 | 16.1 | 33.8 | 0.00 | 0.10 | 0.10 | 80 | 1014.2 |
| 20260904044921 | 26 | 360 | 14.5 | 33.8 | 0.00 | 0.10 | 0.10 | 80 | 1014.1 |
| 20260904044823 | 26 | 360 | 14.5 | 33.8 | 0.00 | 0.10 | 0.10 | 80 | 1014.2 |
| 20260904044724 | 26 | 360 | 17.7 | 33.8 | 0.00 | 0.10 | 0.10 | 80 | 1014.1 |
| 20260904044624 | 26 | 360 | 20.9 | 33.8 | 0.00 | 0.10 | 0.10 | 80 | 1014.1 |
| 20260904044544 | 26 | 360 | 20.9 | 33.8 | 0.00 | 0.10 | 0.10 | 80 | 1014.1 |
| 20260904044445 | 26 | 360 | 19.3 | 32.2 | 0.00 | 0.10 | 0.10 | 80 | 1014.1 |
| 20260904044330 | 26 | 360 | 19.3 | 25.7 | 0.00 | 0.10 | 0.10 | 80 | 1014.1 |
| 20260904044230 | 26 | 360 | 17.7 | 25.7 | 0.00 | 0.10 | 0.10 | 80 | 1014.0 |
| 20260904044129 | 26 | 360 | 17.7 | 25.7 | 0.00 | 0.10 | 0.10 | 80 | 1014.0 |
| 20260904044030 | 26 | 360 | 17.7 | 25.7 | 0.00 | 0.10 | 0.10 | 80 | 1014.1 |
| 20260904043931 | 26 | 360 | 16.1 | 25.7 | 0.00 | 0.10 | 0.10 | 80 | 1014.0 |
| 20260904043832 | 26 | 360 | 14.5 | 25.7 | 0.00 | 0.10 | 0.10 | 80 | 1014.0 |
| 20260904043717 | 26 | 360 | 14.5 | 25.7 | 0.00 | 0.10 | 0.10 | 80 | 1014.0 |
| 20260904043617 | 26 | 360 | 14.5 | 25.7 | 0.00 | 0.10 | 0.10 | 80 | 1014.1 |
| 20260904043517 | 26 | 360 | 14.5 | 25.7 | 0.00 | 0.10 | 0.10 | 80 | 1014.1 |
| 20260904043418 | 26 | 360 | 16.1 | 25.7 | 0.00 | 0.10 | 0.10 | 80 | 1014.1 |
| 20260904043319 | 26 | 360 | 16.1 | 25.7 | 0.00 | 0.10 | 0.10 | 80 | 1014.1 |
| 20260904043220 | 26 | 360 | 16.1 | 25.7 | 0.00 | 0.10 | 0.10 | 80 | 1014.2 |
| 20260904043121 | 26 | 360 | 16.1 | 25.7 | 0.00 | 0.10 | 0.10 | 80 | 1014.1 |
| 20260904043025 | 26 | 360 | 14.5 | 22.5 | 0.00 | 0.10 | 0.10 | 80 | 1014.1 |
| 20260904042925 | 26 | 360 | 12.9 | 29.0 | 0.00 | 0.10 | 0.10 | 80 | 1014.1 |
| 20260904042828 | 26 | 360 | 14.5 | 29.0 | 0.00 | 0.10 | 0.10 | 80 | 1014.2 |
| 20260904042728 | 26 | 360 | 14.5 | 29.0 | 0.00 | 0.10 | 0.10 | 80 | 1014.2 |
| 20260904042629 | 26 | 360 | 14.5 | 29.0 | 0.00 | 0.10 | 0.10 | 80 | 1014.2 |
| 20260904042530 | 26 | 360 | 14.5 | 29.0 | 0.00 | 0.10 | 0.10 | 80 | 1014.2 |
| 20260904042434 | 26 | 360 | 14.5 | 29.0 | 0.00 | 0.10 | 0.10 | 80 | 1014.1 |
| 20260904042335 | 26 | 360 | 16.1 | 29.0 | 0.00 | 0.10 | 0.10 | 80 | 1014.1 |
| 20260904042235 | 26 | 360 | 19.3 | 29.0 | 0.00 | 0.10 | 0.10 | 80 | 1014.1 |
| 20260904042116 | 26 | 360 | 17.7 | 27.4 | 0.00 | 0.10 | 0.10 | 80 | 1014.2 |
| 20260904042017 | 26 | 360 | 17.7 | 27.4 | 0.00 | 0.10 | 0.10 | 80 | 1014.1 |
| 20260904041916 | 26 | 360 | 17.7 | 27.4 | 0.00 | 0.10 | 0.10 | 80 | 1014.1 |
| 20260904041821 | 26 | 360 | 16.1 | 27.4 | 0.00 | 0.10 | 0.10 | 80 | 1014.1 |
| 20260904041720 | 26 | 360 | 16.1 | 27.4 | 0.00 | 0.10 | 0.10 | 80 | 1014.1 |
| 20260904041621 | 26 | 360 | 16.1 | 27.4 | 0.00 | 0.10 | 0.10 | 80 | 1014.1 |
| 20260904041521 | 26 | 360 | 16.1 | 27.4 | 0.00 | 0.10 | 0.10 | 80 | 1014.1 |
| 20260904041441 | 26 | 360 | 17.7 | 27.4 | 0.00 | 0.10 | 0.10 | 79 | 1014.1 |
| 20260904041342 | 26 | 360 | 17.7 | 27.4 | 0.00 | 0.10 | 0.10 | 80 | 1014.1 |
| 20260904041220 | 26 | 360 | 16.1 | 27.4 | 0.00 | 0.10 | 0.10 | 80 | 1014.1 |
| 20260904041121 | 26 | 360 | 16.1 | 27.4 | 0.00 | 0.10 | 0.10 | 79 | 1014.1 |
| 20260904041026 | 26 | 360 | 14.5 | 27.4 | 0.00 | 0.10 | 0.10 | 79 | 1014.1 |
| 20260904040928 | 26 | 360 | 17.7 | 27.4 | 0.00 | 0.10 | 0.10 | 79 | 1014.1 |
| 20260904040828 | 26 | 360 | 19.3 | 27.4 | 0.00 | 0.10 | 0.10 | 79 | 1014.1 |
| 20260904040728 | 26 | 360 | 19.3 | 27.4 | 0.00 | 0.10 | 0.10 | 79 | 1014.1 |
| 20260904040628 | 26 | 360 | 17.7 | 27.4 | 0.00 | 0.10 | 0.10 | 79 | 1014.0 |
| 20260904040530 | 26 | 360 | 14.5 | 27.4 | 0.00 | 0.10 | 0.10 | 79 | 1014.1 |
| 20260904040430 | 26 | 360 | 14.5 | 27.4 | 0.00 | 0.10 | 0.10 | 79 | 1014.0 |
| 20260904040335 | 26 | 360 | 16.1 | 27.4 | 0.00 | 0.10 | 0.10 | 79 | 1014.0 |
| 20260904040216 | 26 | 360 | 17.7 | 33.8 | 0.00 | 0.10 | 0.10 | 79 | 1014.0 |
| 20260904040117 | 26 | 360 | 16.1 | 33.8 | 0.00 | 0.10 | 0.10 | 79 | 1014.1 |
| 20260904040017 | 26 | 360 | 16.1 | 33.8 | 0.00 | 0.10 | 0.10 | 79 | 1014.0 |
| 20260904035917 | 26 | 360 | 16.1 | 33.8 | 0.00 | 0.10 | 0.10 | 79 | 1014.0 |
| 20260904035819 | 27 | 360 | 17.7 | 33.8 | 0.00 | 0.10 | 0.10 | 79 | 1013.9 |
| 20260904035743 | 27 | 360 | 17.7 | 33.8 | 0.00 | 0.10 | 0.10 | 79 | 1014.0 |
| 20260904035623 | 27 | 360 | 19.3 | 33.8 | 0.00 | 0.10 | 0.10 | 79 | 1014.0 |
| 20260904035524 | 27 | 360 | 20.9 | 33.8 | 0.00 | 0.10 | 0.10 | 79 | 1014.0 |
| 20260904035423 | 27 | 360 | 20.9 | 33.8 | 0.00 | 0.10 | 0.10 | 79 | 1013.9 |
| 20260904035323 | 27 | 360 | 22.5 | 33.8 | 0.00 | 0.10 | 0.10 | 79 | 1014.0 |
| 20260904035224 | 27 | 360 | 20.9 | 30.6 | 0.00 | 0.10 | 0.10 | 79 | 1013.9 |
| 20260904035122 | 27 | 360 | 19.3 | 29.0 | 0.00 | 0.10 | 0.10 | 79 | 1014.0 |
| 20260904035023 | 27 | 360 | 19.3 | 29.0 | 0.00 | 0.10 | 0.10 | 79 | 1013.9 |
| 20260904034928 | 27 | 360 | 17.7 | 29.0 | 0.00 | 0.10 | 0.10 | 79 | 1013.9 |
| 20260904034828 | 27 | 360 | 19.3 | 29.0 | 0.00 | 0.10 | 0.10 | 78 | 1013.9 |
| 20260904034729 | 27 | 360 | 19.3 | 29.0 | 0.00 | 0.10 | 0.10 | 78 | 1014.0 |
| 20260904034629 | 27 | 360 | 20.9 | 29.0 | 0.00 | 0.10 | 0.10 | 78 | 1013.9 |
| 20260904034530 | 27 | 360 | 19.3 | 27.4 | 0.00 | 0.10 | 0.10 | 78 | 1013.9 |
| 20260904034430 | 27 | 360 | 19.3 | 27.4 | 0.00 | 0.10 | 0.10 | 78 | 1013.9 |
| 20260904034335 | 27 | 360 | 17.7 | 27.4 | 0.00 | 0.10 | 0.10 | 78 | 1013.9 |
| 20260904034236 | 27 | 360 | 17.7 | 27.4 | 0.00 | 0.10 | 0.10 | 78 | 1014.0 |
| 20260904034156 | 27 | 360 | 17.7 | 27.4 | 0.00 | 0.10 | 0.10 | 78 | 1013.9 |
| 20260904034035 | 27 | 360 | 17.7 | 27.4 | 0.00 | 0.10 | 0.10 | 78 | 1013.9 |
| 20260904033935 | 27 | 360 | 17.7 | 25.7 | 0.00 | 0.10 | 0.10 | 78 | 1014.0 |
| 20260904033836 | 27 | 360 | 16.1 | 25.7 | 0.00 | 0.10 | 0.10 | 78 | 1014.0 |
| 20260904033735 | 27 | 360 | 16.1 | 25.7 | 0.00 | 0.10 | 0.10 | 78 | 1014.0 |
| 20260904033619 | 27 | 360 | 14.5 | 25.7 | 0.00 | 0.10 | 0.10 | 78 | 1014.0 |
| 20260904033519 | 27 | 360 | 12.9 | 25.7 | 0.00 | 0.10 | 0.10 | 78 | 1014.0 |
| 20260904033440 | 27 | 360 | 12.9 | 25.7 | 0.00 | 0.10 | 0.10 | 78 | 1014.0 |
| 20260904033319 | 27 | 360 | 14.5 | 27.4 | 0.00 | 0.10 | 0.10 | 77 | 1014.0 |
| 20260904033219 | 27 | 360 | 16.1 | 27.4 | 0.00 | 0.10 | 0.10 | 77 | 1014.0 |
| 20260904033141 | 27 | 360 | 17.7 | 27.4 | 0.00 | 0.10 | 0.10 | 77 | 1013.9 |
| 20260904033021 | 27 | 360 | 17.7 | 27.4 | 0.00 | 0.10 | 0.10 | 77 | 1014.0 |
| 20260904032922 | 27 | 360 | 17.7 | 27.4 | 0.00 | 0.10 | 0.10 | 77 | 1014.0 |
| 20260904032827 | 27 | 360 | 17.7 | 27.4 | 0.00 | 0.10 | 0.10 | 77 | 1014.0 |
| 20260904032727 | 27 | 360 | 19.3 | 27.4 | 0.00 | 0.10 | 0.10 | 77 | 1014.0 |
| 20260904032629 | 27 | 360 | 20.9 | 27.4 | 0.00 | 0.10 | 0.10 | 77 | 1014.0 |
| 20260904032529 | 27 | 360 | 19.3 | 27.4 | 0.00 | 0.10 | 0.10 | 77 | 1014.0 |
| 20260904032429 | 27 | 360 | 17.7 | 27.4 | 0.00 | 0.10 | 0.10 | 77 | 1014.0 |
| 20260904032330 | 27 | 360 | 16.1 | 27.4 | 0.00 | 0.10 | 0.10 | 77 | 1014.0 |
| 20260904032235 | 27 | 360 | 14.5 | 27.4 | 0.00 | 0.10 | 0.10 | 77 | 1013.9 |
| 20260904032135 | 27 | 360 | 14.5 | 27.4 | 0.00 | 0.10 | 0.10 | 77 | 1013.9 |
| 20260904032017 | 27 | 360 | 14.5 | 27.4 | 0.00 | 0.10 | 0.10 | 77 | 1013.9 |
| 20260904031917 | 27 | 360 | 14.5 | 27.4 | 0.00 | 0.10 | 0.10 | 77 | 1013.9 |
| 20260904031818 | 27 | 360 | 16.1 | 27.4 | 0.00 | 0.10 | 0.10 | 77 | 1013.9 |
| 20260904031718 | 27 | 360 | 17.7 | 27.4 | 0.00 | 0.10 | 0.10 | 77 | 1013.9 |
| 20260904031623 | 27 | 360 | 16.1 | 27.4 | 0.00 | 0.10 | 0.10 | 77 | 1013.9 |
| 20260904031524 | 27 | 360 | 17.7 | 27.4 | 0.00 | 0.10 | 0.10 | 77 | 1013.8 |
| 20260904031446 | 27 | 360 | 17.7 | 27.4 | 0.00 | 0.10 | 0.10 | 77 | 1013.8 |
| 20260904031326 | 27 | 163 | 17.7 | 27.4 | 0.00 | 0.10 | 0.10 | 77 | 1013.8 |
| 20260904031246 | 27 | 360 | 17.7 | 27.4 | 0.00 | 0.10 | 0.10 | 77 | 1013.7 |
| 20260904031125 | 27 | 360 | 16.1 | 27.4 | 0.00 | 0.10 | 0.10 | 77 | 1013.8 |
| 20260904031026 | 27 | 360 | 17.7 | 27.4 | 0.00 | 0.10 | 0.10 | 77 | 1013.8 |
| 20260904030928 | 27 | 360 | 16.1 | 27.4 | 0.00 | 0.10 | 0.10 | 77 | 1013.7 |
| 20260904030852 | 27 | 360 | 16.1 | 27.4 | 0.00 | 0.10 | 0.10 | 76 | 1013.7 |
| 20260904030733 | 27 | 360 | 16.1 | 25.7 | 0.00 | 0.10 | 0.10 | 76 | 1013.7 |
| 20260904030654 | 27 | 360 | 14.5 | 25.7 | 0.00 | 0.10 | 0.10 | 76 | 1013.8 |
| 20260904030534 | 27 | 360 | 16.1 | 25.7 | 0.00 | 0.10 | 0.10 | 76 | 1013.7 |
| 20260904030434 | 27 | 360 | 17.7 | 25.7 | 0.00 | 0.10 | 0.10 | 76 | 1013.7 |
| 20260904030336 | 27 | 360 | 16.1 | 25.7 | 0.00 | 0.10 | 0.10 | 76 | 1013.7 |
| 20260904030235 | 27 | 158 | 14.5 | 25.7 | 0.00 | 0.10 | 0.10 | 76 | 1013.7 |
| 20260904030120 | 27 | 360 | 14.5 | 22.5 | 0.00 | 0.10 | 0.10 | 76 | 1013.6 |
| 20260904030040 | 27 | 360 | 14.5 | 22.5 | 0.00 | 0.10 | 0.10 | 76 | 1013.7 |
| 20260904025920 | 27 | 360 | 16.1 | 25.7 | 0.00 | 0.10 | 0.10 | 76 | 1013.7 |
| 20260904025821 | 27 | 360 | 16.1 | 29.0 | 0.00 | 0.10 | 0.10 | 76 | 1013.7 |
| 20260904025720 | 27 | 360 | 16.1 | 29.0 | 0.00 | 0.10 | 0.10 | 76 | 1013.7 |
| 20260904025621 | 27 | 360 | 12.9 | 29.0 | 0.00 | 0.10 | 0.10 | 76 | 1013.7 |
| 20260904025522 | 27 | 360 | 12.9 | 29.0 | 0.00 | 0.10 | 0.10 | 75 | 1013.7 |
| 20260904025426 | 27 | 360 | 12.9 | 29.0 | 0.00 | 0.10 | 0.10 | 75 | 1013.7 |
| 20260904025346 | 27 | 360 | 16.1 | 29.0 | 0.00 | 0.10 | 0.10 | 75 | 1013.7 |
| 20260904025226 | 27 | 360 | 19.3 | 29.0 | 0.00 | 0.10 | 0.10 | 75 | 1013.6 |
| 20260904025127 | 27 | 360 | 17.7 | 29.0 | 0.00 | 0.10 | 0.10 | 75 | 1013.6 |
| 20260904025048 | 27 | 360 | 19.3 | 29.0 | 0.00 | 0.10 | 0.10 | 75 | 1013.5 |
| 20260904024928 | 27 | 360 | 17.7 | 25.7 | 0.00 | 0.10 | 0.10 | 75 | 1013.6 |
| 20260904024849 | 27 | 360 | 17.7 | 25.7 | 0.00 | 0.10 | 0.10 | 75 | 1013.5 |
| 20260904024729 | 27 | 360 | 17.7 | 25.7 | 0.00 | 0.10 | 0.10 | 75 | 1013.5 |
| 20260904024633 | 27 | 360 | 17.7 | 25.7 | 0.00 | 0.10 | 0.10 | 75 | 1013.5 |
| 20260904024534 | 27 | 360 | 19.3 | 25.7 | 0.00 | 0.10 | 0.10 | 75 | 1013.5 |
| 20260904024433 | 27 | 360 | 16.1 | 27.4 | 0.00 | 0.10 | 0.10 | 75 | 1013.5 |
| 20260904024333 | 27 | 360 | 14.5 | 27.4 | 0.00 | 0.10 | 0.10 | 74 | 1013.5 |
| 20260904024252 | 27 | 360 | 14.5 | 27.4 | 0.00 | 0.10 | 0.10 | 74 | 1013.5 |
| 20260904024152 | 27 | 360 | 16.1 | 30.6 | 0.00 | 0.10 | 0.10 | 74 | 1013.4 |
| 20260904024031 | 27 | 360 | 17.7 | 30.6 | 0.00 | 0.10 | 0.10 | 74 | 1013.4 |
| 20260904023932 | 27 | 360 | 19.3 | 32.2 | 0.00 | 0.10 | 0.10 | 74 | 1013.3 |
| 20260904023831 | 27 | 360 | 20.9 | 33.8 | 0.00 | 0.10 | 0.10 | 74 | 1013.4 |
| 20260904023718 | 27 | 360 | 20.9 | 33.8 | 0.00 | 0.10 | 0.10 | 74 | 1013.4 |
| 20260904023639 | 27 | 360 | 19.3 | 33.8 | 0.00 | 0.10 | 0.10 | 74 | 1013.4 |
| 20260904023518 | 27 | 360 | 19.3 | 33.8 | 0.00 | 0.10 | 0.10 | 74 | 1013.3 |
| 20260904023418 | 27 | 360 | 20.9 | 33.8 | 0.00 | 0.10 | 0.10 | 74 | 1013.4 |
| 20260904023319 | 28 | 360 | 22.5 | 33.8 | 0.00 | 0.10 | 0.10 | 74 | 1013.3 |
| 20260904023220 | 28 | 360 | 22.5 | 33.8 | 0.00 | 0.10 | 0.10 | 74 | 1013.4 |
| 20260904023124 | 27 | 360 | 20.9 | 33.8 | 0.00 | 0.10 | 0.10 | 74 | 1013.4 |
| 20260904023024 | 28 | 360 | 19.3 | 33.8 | 0.00 | 0.10 | 0.10 | 74 | 1013.4 |
| 20260904022925 | 28 | 360 | 19.3 | 33.8 | 0.00 | 0.10 | 0.10 | 73 | 1013.4 |
| 20260904022826 | 28 | 360 | 20.9 | 33.8 | 0.00 | 0.10 | 0.10 | 73 | 1013.5 |
| 20260904022725 | 28 | 360 | 19.3 | 33.8 | 0.00 | 0.10 | 0.10 | 73 | 1013.4 |
| 20260904022645 | 28 | 360 | 20.9 | 29.0 | 0.00 | 0.10 | 0.10 | 73 | 1013.4 |
| 20260904022524 | 28 | 360 | 19.3 | 27.4 | 0.00 | 0.10 | 0.10 | 73 | 1013.4 |
| 20260904022430 | 28 | 360 | 19.3 | 29.0 | 0.00 | 0.10 | 0.10 | 73 | 1013.4 |
| 20260904022331 | 28 | 360 | 19.3 | 29.0 | 0.00 | 0.10 | 0.10 | 73 | 1013.3 |
| 20260904022231 | 28 | 360 | 16.1 | 29.0 | 0.00 | 0.10 | 0.10 | 73 | 1013.3 |
| 20260904022132 | 28 | 360 | 16.1 | 29.0 | 0.00 | 0.10 | 0.10 | 73 | 1013.3 |
| 20260904022031 | 28 | 360 | 17.7 | 29.0 | 0.00 | 0.10 | 0.10 | 72 | 1013.3 |
| 20260904021932 | 28 | 360 | 19.3 | 29.0 | 0.00 | 0.10 | 0.10 | 72 | 1013.2 |
| 20260904021817 | 28 | 360 | 19.3 | 29.0 | 0.00 | 0.10 | 0.10 | 72 | 1013.2 |
| 20260904021737 | 28 | 360 | 19.3 | 29.0 | 0.00 | 0.10 | 0.10 | 72 | 1013.2 |
| 20260904021616 | 28 | 360 | 20.9 | 29.0 | 0.00 | 0.10 | 0.10 | 72 | 1013.2 |
| 20260904021518 | 28 | 360 | 20.9 | 29.0 | 0.00 | 0.10 | 0.10 | 72 | 1013.2 |
| 20260904021418 | 28 | 360 | 17.7 | 29.0 | 0.00 | 0.10 | 0.10 | 72 | 1013.2 |
| 20260904021319 | 28 | 360 | 16.1 | 27.4 | 0.00 | 0.10 | 0.10 | 72 | 1013.2 |
| 20260904021240 | 28 | 360 | 12.9 | 25.7 | 0.00 | 0.10 | 0.10 | 72 | 1013.2 |
| 20260904021119 | 28 | 360 | 12.9 | 25.7 | 0.00 | 0.10 | 0.10 | 72 | 1013.2 |
| 20260904021023 | 28 | 360 | 16.1 | 25.7 | 0.00 | 0.10 | 0.10 | 72 | 1013.2 |
| 20260904020924 | 28 | 360 | 16.1 | 25.7 | 0.00 | 0.10 | 0.10 | 71 | 1013.2 |
| 20260904020825 | 28 | 360 | 17.7 | 25.7 | 0.00 | 0.10 | 0.10 | 71 | 1013.3 |
| 20260904020746 | 28 | 360 | 16.1 | 25.7 | 0.00 | 0.10 | 0.10 | 71 | 1013.2 |
| 20260904020645 | 28 | 360 | 14.5 | 22.5 | 0.00 | 0.10 | 0.10 | 71 | 1013.2 |
| 20260904020524 | 28 | 360 | 14.5 | 20.9 | 0.00 | 0.10 | 0.10 | 71 | 1013.2 |
| 20260904020425 | 28 | 360 | 14.5 | 20.9 | 0.00 | 0.10 | 0.10 | 71 | 1013.2 |
| 20260904020329 | 28 | 360 | 16.1 | 27.4 | 0.00 | 0.10 | 0.10 | 71 | 1013.2 |
| 20260904020230 | 28 | 360 | 16.1 | 27.4 | 0.00 | 0.10 | 0.10 | 71 | 1013.2 |
| 20260904020131 | 28 | 360 | 14.5 | 27.4 | 0.00 | 0.10 | 0.10 | 71 | 1013.2 |
| 20260904020030 | 28 | 360 | 14.5 | 27.4 | 0.00 | 0.10 | 0.10 | 71 | 1013.2 |
| 20260904015931 | 28 | 360 | 12.9 | 33.8 | 0.00 | 0.10 | 0.10 | 71 | 1013.1 |
| 20260904015834 | 28 | 360 | 14.5 | 33.8 | 0.00 | 0.10 | 0.10 | 71 | 1013.1 |
| 20260904015717 | 28 | 360 | 17.7 | 33.8 | 0.00 | 0.10 | 0.10 | 71 | 1013.1 |
| 20260904015618 | 28 | 360 | 19.3 | 33.8 | 0.00 | 0.10 | 0.10 | 71 | 1013.2 |
| 20260904015519 | 28 | 360 | 19.3 | 33.8 | 0.00 | 0.10 | 0.10 | 71 | 1013.0 |
| 20260904015440 | 28 | 360 | 16.1 | 33.8 | 0.00 | 0.10 | 0.10 | 71 | 1013.0 |
| 20260904015319 | 28 | 360 | 14.5 | 33.8 | 0.00 | 0.10 | 0.10 | 71 | 1013.0 |
| 20260904015220 | 28 | 360 | 16.1 | 33.8 | 0.00 | 0.10 | 0.10 | 70 | 1013.0 |
| 20260904015120 | 28 | 360 | 17.7 | 33.8 | 0.00 | 0.10 | 0.10 | 70 | 1013.0 |
| 20260904015025 | 28 | 360 | 19.3 | 33.8 | 0.00 | 0.10 | 0.10 | 70 | 1012.9 |
| 20260904014926 | 28 | 360 | 20.9 | 33.8 | 0.00 | 0.10 | 0.10 | 70 | 1012.9 |
| 20260904014827 | 28 | 360 | 20.9 | 33.8 | 0.00 | 0.10 | 0.10 | 70 | 1012.8 |
| 20260904014748 | 28 | 360 | 20.9 | 32.2 | 0.00 | 0.10 | 0.10 | 70 | 1012.9 |
| 20260904014627 | 28 | 360 | 20.9 | 32.2 | 0.00 | 0.10 | 0.10 | 70 | 1012.8 |
| 20260904014529 | 28 | 360 | 20.9 | 32.2 | 0.00 | 0.10 | 0.10 | 70 | 1012.8 |
| 20260904014428 | 28 | 360 | 20.9 | 32.2 | 0.00 | 0.10 | 0.10 | 70 | 1012.8 |
| 20260904014334 | 28 | 360 | 19.3 | 32.2 | 0.00 | 0.10 | 0.10 | 70 | 1012.7 |
| 20260904014234 | 28 | 360 | 19.3 | 32.2 | 0.00 | 0.10 | 0.10 | 70 | 1012.8 |
| 20260904014155 | 28 | 360 | 19.3 | 30.6 | 0.00 | 0.10 | 0.10 | 70 | 1012.7 |
| 20260904014035 | 28 | 360 | 19.3 | 30.6 | 0.00 | 0.10 | 0.10 | 70 | 1012.8 |
| 20260904013935 | 28 | 360 | 19.3 | 30.6 | 0.00 | 0.10 | 0.10 | 70 | 1012.8 |
| 20260904013856 | 28 | 360 | 19.3 | 30.6 | 0.00 | 0.10 | 0.10 | 70 | 1012.7 |
| 20260904013735 | 28 | 360 | 20.9 | 30.6 | 0.00 | 0.10 | 0.10 | 70 | 1012.7 |
| 20260904013616 | 28 | 360 | 19.3 | 30.6 | 0.00 | 0.10 | 0.10 | 69 | 1012.6 |
| 20260904013520 | 28 | 360 | 17.7 | 30.6 | 0.00 | 0.10 | 0.10 | 69 | 1012.5 |
| 20260904013420 | 28 | 360 | 16.1 | 29.0 | 0.00 | 0.10 | 0.10 | 69 | 1012.6 |
| 20260904013320 | 28 | 360 | 16.1 | 29.0 | 0.00 | 0.10 | 0.10 | 69 | 1012.5 |
| 20260904013220 | 29 | 360 | 17.7 | 29.0 | 0.00 | 0.10 | 0.10 | 69 | 1012.5 |
| 20260904013121 | 29 | 360 | 19.3 | 29.0 | 0.00 | 0.10 | 0.10 | 69 | 1012.5 |
| 20260904013021 | 29 | 360 | 20.9 | 29.0 | 0.00 | 0.10 | 0.10 | 69 | 1012.5 |
| 20260904012922 | 29 | 155 | 20.9 | 29.0 | 0.00 | 0.10 | 0.10 | 69 | 1012.6 |
| 20260904012827 | 29 | 360 | 20.9 | 33.8 | 0.00 | 0.10 | 0.10 | 69 | 1012.6 |
| 20260904012726 | 29 | 360 | 17.7 | 33.8 | 0.00 | 0.10 | 0.10 | 69 | 1012.6 |
| 20260904012627 | 29 | 360 | 16.1 | 33.8 | 0.00 | 0.10 | 0.10 | 69 | 1012.6 |
| 20260904012527 | 29 | 360 | 14.5 | 33.8 | 0.00 | 0.10 | 0.10 | 69 | 1012.5 |
| 20260904012428 | 29 | 360 | 16.1 | 33.8 | 0.00 | 0.10 | 0.10 | 68 | 1012.5 |
| 20260904012329 | 29 | 360 | 17.7 | 33.8 | 0.00 | 0.10 | 0.10 | 68 | 1012.6 |
| 20260904012233 | 29 | 360 | 17.7 | 33.8 | 0.00 | 0.10 | 0.10 | 68 | 1012.6 |
| 20260904012155 | 29 | 360 | 17.7 | 33.8 | 0.00 | 0.10 | 0.10 | 68 | 1012.5 |
| 20260904012034 | 29 | 360 | 16.1 | 33.8 | 0.00 | 0.10 | 0.10 | 68 | 1012.6 |
| 20260904011935 | 29 | 360 | 14.5 | 30.6 | 0.00 | 0.10 | 0.10 | 68 | 1012.5 |
| 20260904011835 | 29 | 360 | 16.1 | 30.6 | 0.00 | 0.10 | 0.10 | 68 | 1012.6 |
| 20260904011717 | 29 | 360 | 17.7 | 30.6 | 0.00 | 0.10 | 0.10 | 68 | 1012.6 |
| 20260904011616 | 29 | 360 | 17.7 | 30.6 | 0.00 | 0.10 | 0.10 | 68 | 1012.6 |
| 20260904011521 | 29 | 360 | 16.1 | 30.6 | 0.00 | 0.10 | 0.10 | 68 | 1012.6 |
| 20260904011422 | 29 | 360 | 19.3 | 30.6 | 0.00 | 0.10 | 0.10 | 68 | 1012.6 |
| 20260904011322 | 29 | 360 | 17.7 | 30.6 | 0.00 | 0.10 | 0.10 | 68 | 1012.6 |
| 20260904011224 | 29 | 360 | 19.3 | 30.6 | 0.00 | 0.10 | 0.10 | 68 | 1012.6 |
| 20260904011125 | 29 | 360 | 17.7 | 25.7 | 0.00 | 0.10 | 0.10 | 68 | 1012.6 |
| 20260904011026 | 29 | 360 | 17.7 | 24.1 | 0.00 | 0.10 | 0.10 | 68 | 1012.6 |
| 20260904010930 | 29 | 360 | 19.3 | 24.1 | 0.00 | 0.10 | 0.10 | 68 | 1012.6 |
| 20260904010832 | 29 | 360 | 17.7 | 25.7 | 0.00 | 0.10 | 0.10 | 68 | 1012.6 |
| 20260904010732 | 29 | 360 | 16.1 | 25.7 | 0.00 | 0.10 | 0.10 | 68 | 1012.6 |
| 20260904010633 | 29 | 360 | 14.5 | 32.2 | 0.00 | 0.10 | 0.10 | 68 | 1012.6 |
| 20260904010534 | 29 | 360 | 12.9 | 32.2 | 0.00 | 0.10 | 0.10 | 68 | 1012.6 |
| 20260904010435 | 29 | 360 | 14.5 | 32.2 | 0.00 | 0.10 | 0.10 | 68 | 1012.6 |
| 20260904010354 | 29 | 360 | 16.1 | 32.2 | 0.00 | 0.10 | 0.10 | 68 | 1012.5 |
| 20260904010218 | 29 | 360 | 16.1 | 32.2 | 0.00 | 0.10 | 0.10 | 68 | 1012.5 |
| 20260904010119 | 29 | 360 | 16.1 | 32.2 | 0.00 | 0.10 | 0.10 | 68 | 1012.6 |
| 20260904010019 | 29 | 360 | 17.7 | 32.2 | 0.00 | 0.10 | 0.10 | 68 | 1012.6 |
| 20260904005939 | 29 | 360 | 16.1 | 32.2 | 0.00 | 0.10 | 0.10 | 68 | 1012.6 |
| 20260904005821 | 30 | 360 | 16.1 | 32.2 | 0.00 | 0.10 | 0.10 | 68 | 1012.6 |
| 20260904005718 | 29 | 360 | 14.5 | 32.2 | 0.00 | 0.10 | 0.10 | 68 | 1012.5 |
| 20260904005639 | 30 | 360 | 11.3 | 29.0 | 0.00 | 0.10 | 0.10 | 68 | 1012.5 |
| 20260904005539 | 30 | 360 | 11.3 | 33.8 | 0.00 | 0.10 | 0.10 | 68 | 1012.5 |
| 20260904005443 | 30 | 360 | 11.3 | 33.8 | 0.00 | 0.10 | 0.10 | 68 | 1012.5 |
| 20260904005316 | 30 | 360 | 14.5 | 33.8 | 0.00 | 0.10 | 0.10 | 67 | 1012.6 |
| 20260904005216 | 30 | 360 | 14.5 | 33.8 | 0.00 | 0.10 | 0.10 | 67 | 1012.6 |
| 20260904005117 | 30 | 360 | 17.7 | 33.8 | 0.00 | 0.10 | 0.10 | 67 | 1012.5 |
| 20260904005017 | 30 | 360 | 17.7 | 33.8 | 0.00 | 0.10 | 0.10 | 67 | 1012.5 |
| 20260904004917 | 30 | 360 | 20.9 | 33.8 | 0.00 | 0.10 | 0.10 | 67 | 1012.5 |
| 20260904004817 | 30 | 360 | 20.9 | 33.8 | 0.00 | 0.10 | 0.10 | 67 | 1012.5 |
| 20260904004722 | 30 | 360 | 22.5 | 33.8 | 0.00 | 0.10 | 0.10 | 67 | 1012.5 |
| 20260904004624 | 30 | 360 | 20.9 | 30.6 | 0.00 | 0.10 | 0.10 | 67 | 1012.5 |
| 20260904004525 | 30 | 360 | 19.3 | 30.6 | 0.00 | 0.10 | 0.10 | 67 | 1012.5 |
| 20260904004425 | 30 | 360 | 16.1 | 29.0 | 0.00 | 0.10 | 0.10 | 67 | 1012.5 |
| 20260904004326 | 30 | 150 | 16.1 | 25.7 | 0.00 | 0.10 | 0.10 | 67 | 1012.6 |
| 20260904004225 | 30 | 360 | 17.7 | 25.7 | 0.00 | 0.10 | 0.10 | 67 | 1012.5 |
| 20260904004130 | 30 | 360 | 17.7 | 27.4 | 0.00 | 0.10 | 0.10 | 67 | 1012.6 |
| 20260904004051 | 30 | 360 | 17.7 | 27.4 | 0.00 | 0.10 | 0.10 | 66 | 1012.6 |
| 20260904003930 | 30 | 360 | 16.1 | 27.4 | 0.00 | 0.10 | 0.10 | 66 | 1012.6 |
| 20260904003830 | 30 | 360 | 17.7 | 35.4 | 0.00 | 0.10 | 0.10 | 66 | 1012.6 |
| 20260904003731 | 30 | 360 | 16.1 | 35.4 | 0.00 | 0.10 | 0.10 | 66 | 1012.6 |
| 20260904003632 | 30 | 360 | 16.1 | 35.4 | 0.00 | 0.10 | 0.10 | 66 | 1012.6 |
| 20260904003534 | 30 | 360 | 17.7 | 35.4 | 0.00 | 0.10 | 0.10 | 66 | 1012.6 |
| 20260904003439 | 30 | 360 | 19.3 | 35.4 | 0.00 | 0.10 | 0.10 | 66 | 1012.6 |
| 20260904003317 | 30 | 360 | 19.3 | 35.4 | 0.00 | 0.10 | 0.10 | 66 | 1012.6 |
| 20260904003218 | 30 | 360 | 20.9 | 41.8 | 0.00 | 0.10 | 0.10 | 66 | 1012.6 |
| 20260904003119 | 30 | 360 | 22.5 | 41.8 | 0.00 | 0.10 | 0.10 | 66 | 1012.6 |
| 20260904003019 | 30 | 360 | 22.5 | 41.8 | 0.00 | 0.10 | 0.10 | 66 | 1012.5 |
| 20260904002919 | 30 | 360 | 20.9 | 41.8 | 0.00 | 0.10 | 0.10 | 66 | 1012.5 |
| 20260904002821 | 30 | 360 | 19.3 | 43.5 | 0.00 | 0.10 | 0.10 | 65 | 1012.5 |
| 20260904002725 | 30 | 360 | 19.3 | 43.5 | 0.00 | 0.10 | 0.10 | 65 | 1012.5 |
| 20260904002625 | 30 | 360 | 20.9 | 43.5 | 0.00 | 0.10 | 0.10 | 65 | 1012.6 |
| 20260904002525 | 30 | 360 | 22.5 | 43.5 | 0.00 | 0.10 | 0.10 | 65 | 1012.5 |
| 20260904002426 | 30 | 360 | 27.4 | 43.5 | 0.00 | 0.10 | 0.10 | 65 | 1012.4 |
| 20260904002327 | 30 | 360 | 29.0 | 43.5 | 0.00 | 0.10 | 0.10 | 65 | 1012.5 |
| 20260904002229 | 30 | 360 | 27.4 | 43.5 | 0.00 | 0.10 | 0.10 | 65 | 1012.4 |
| 20260904002134 | 30 | 360 | 25.7 | 43.5 | 0.00 | 0.10 | 0.10 | 65 | 1012.5 |
| 20260904002034 | 30 | 360 | 22.5 | 43.5 | 0.00 | 0.10 | 0.10 | 65 | 1012.6 |
| 20260904001934 | 30 | 360 | 19.3 | 41.8 | 0.00 | 0.10 | 0.10 | 65 | 1012.5 |
| 20260904001835 | 30 | 360 | 19.3 | 41.8 | 0.00 | 0.10 | 0.10 | 65 | 1012.5 |
| 20260904001716 | 30 | 360 | 20.9 | 41.8 | 0.00 | 0.10 | 0.10 | 65 | 1012.5 |
| 20260904001616 | 30 | 360 | 24.1 | 41.8 | 0.00 | 0.10 | 0.10 | 65 | 1012.5 |
| 20260904001521 | 30 | 360 | 25.7 | 41.8 | 0.00 | 0.10 | 0.10 | 65 | 1012.5 |
| 20260904001421 | 30 | 360 | 25.7 | 41.8 | 0.00 | 0.10 | 0.10 | 65 | 1012.5 |
| 20260904001322 | 30 | 360 | 25.7 | 41.8 | 0.00 | 0.10 | 0.10 | 65 | 1012.5 |
| 20260904001223 | 30 | 360 | 22.5 | 35.4 | 0.00 | 0.10 | 0.10 | 65 | 1012.5 |
| 20260904001142 | 30 | 360 | 22.5 | 32.2 | 0.00 | 0.10 | 0.10 | 65 | 1012.4 |
| 20260904001022 | 30 | 360 | 20.9 | 33.8 | 0.00 | 0.10 | 0.10 | 66 | 1012.5 |
| 20260904000922 | 30 | 360 | 20.9 | 33.8 | 0.00 | 0.10 | 0.10 | 66 | 1012.4 |
| 20260904000842 | 30 | 360 | 22.5 | 33.8 | 0.00 | 0.10 | 0.10 | 65 | 1012.5 |
| 20260904000726 | 30 | 360 | 22.5 | 33.8 | 0.00 | 0.10 | 0.10 | 65 | 1012.5 |
| 20260904000626 | 30 | 360 | 22.5 | 33.8 | 0.00 | 0.10 | 0.10 | 65 | 1012.5 |
| 20260904000527 | 30 | 360 | 20.9 | 33.8 | 0.00 | 0.10 | 0.10 | 65 | 1012.4 |
| 20260904000427 | 31 | 360 | 19.3 | 33.8 | 0.00 | 0.10 | 0.10 | 65 | 1012.4 |
| 20260904000327 | 31 | 360 | 19.3 | 33.8 | 0.00 | 0.10 | 0.10 | 65 | 1012.4 |
| 20260904000248 | 31 | 360 | 20.9 | 33.8 | 0.00 | 0.10 | 0.10 | 65 | 1012.4 |
| 20260904000128 | 31 | 360 | 20.9 | 33.8 | 0.00 | 0.10 | 0.10 | 65 | 1012.4 |
| 20260904000030 | 31 | 360 | 20.9 | 33.8 | 0.00 | 0.10 | 0.10 | 65 | 1012.4 |
| 20260903235952 | 31 | 360 | 19.3 | 33.8 | 0.00 | 0.10 | 0.10 | 64 | 1012.4 |
| 20260903235833 | 31 | 360 | 17.7 | 29.0 | 0.00 | 0.10 | 0.10 | 64 | 1012.3 |
| 20260903235754 | 31 | 360 | 17.7 | 29.0 | 0.00 | 0.10 | 0.10 | 64 | 1012.4 |
| 20260903235633 | 31 | 163 | 16.1 | 29.0 | 0.00 | 0.10 | 0.10 | 64 | 1012.4 |
| 20260903235533 | 31 | 360 | 16.1 | 29.0 | 0.00 | 0.10 | 0.10 | 64 | 1012.4 |
| 20260903235434 | 31 | 360 | 16.1 | 29.0 | 0.00 | 0.10 | 0.10 | 64 | 1012.5 |
| 20260903235318 | 31 | 360 | 16.1 | 27.4 | 0.00 | 0.10 | 0.10 | 63 | 1012.4 |
| 20260903235239 | 31 | 360 | 16.1 | 27.4 | 0.00 | 0.10 | 0.10 | 64 | 1012.4 |
| 20260903235119 | 31 | 360 | 14.5 | 27.4 | 0.00 | 0.10 | 0.10 | 63 | 1012.4 |
| 20260903235019 | 31 | 360 | 14.5 | 25.7 | 0.00 | 0.10 | 0.10 | 63 | 1012.4 |
| 20260903234941 | 31 | 360 | 14.5 | 25.7 | 0.00 | 0.10 | 0.10 | 63 | 1012.4 |
| 20260903234816 | 31 | 360 | 14.5 | 30.6 | 0.00 | 0.10 | 0.10 | 64 | 1012.3 |
| 20260903234737 | 31 | 360 | 12.9 | 30.6 | 0.00 | 0.10 | 0.10 | 63 | 1012.3 |
| 20260903234637 | 31 | 360 | 14.5 | 30.6 | 0.00 | 0.10 | 0.10 | 63 | 1012.2 |
| 20260903234516 | 31 | 360 | 14.5 | 30.6 | 0.00 | 0.10 | 0.10 | 63 | 1012.3 |
| 20260903234422 | 31 | 360 | 16.1 | 33.8 | 0.00 | 0.10 | 0.10 | 63 | 1012.2 |
| 20260903234322 | 31 | 360 | 19.3 | 33.8 | 0.00 | 0.10 | 0.10 | 63 | 1012.3 |
| 20260903234223 | 31 | 360 | 20.9 | 33.8 | 0.00 | 0.10 | 0.10 | 63 | 1012.3 |
| 20260903234124 | 31 | 360 | 20.9 | 33.8 | 0.00 | 0.10 | 0.10 | 63 | 1012.2 |
| 20260903234026 | 31 | 360 | 20.9 | 33.8 | 0.00 | 0.10 | 0.10 | 63 | 1012.2 |
| 20260903233927 | 31 | 360 | 19.3 | 33.8 | 0.00 | 0.10 | 0.10 | 63 | 1012.1 |
| 20260903233831 | 31 | 360 | 19.3 | 33.8 | 0.00 | 0.10 | 0.10 | 63 | 1012.1 |
| 20260903233731 | 31 | 360 | 19.3 | 33.8 | 0.03 | 0.10 | 0.10 | 63 | 1012.1 |
| 20260903233632 | 31 | 360 | 17.7 | 33.8 | 0.03 | 0.10 | 0.10 | 64 | 1012.2 |
| 20260903233533 | 31 | 360 | 16.1 | 30.6 | 0.03 | 0.10 | 0.10 | 64 | 1012.1 |
| 20260903233434 | 31 | 360 | 16.1 | 30.6 | 0.03 | 0.10 | 0.10 | 64 | 1012.1 |
| 20260903233336 | 31 | 360 | 17.7 | 30.6 | 0.03 | 0.10 | 0.10 | 64 | 1012.2 |
| 20260903233219 | 31 | 360 | 17.7 | 32.2 | 0.03 | 0.10 | 0.10 | 64 | 1012.2 |
| 20260903233120 | 31 | 360 | 19.3 | 32.2 | 0.03 | 0.10 | 0.10 | 65 | 1012.1 |
| 20260903233021 | 31 | 360 | 17.7 | 32.2 | 0.03 | 0.10 | 0.10 | 65 | 1012.3 |
| 20260903232922 | 31 | 360 | 17.7 | 33.8 | 0.05 | 0.10 | 0.10 | 65 | 1012.2 |
| 20260903232824 | 31 | 360 | 19.3 | 33.8 | 0.05 | 0.10 | 0.10 | 65 | 1012.1 |
| 20260903232723 | 31 | 360 | 19.3 | 33.8 | 0.05 | 0.10 | 0.10 | 66 | 1012.1 |
| 20260903232623 | 31 | 360 | 22.5 | 33.8 | 0.08 | 0.10 | 0.10 | 65 | 1012.2 |
| 20260903232528 | 31 | 360 | 22.5 | 33.8 | 0.08 | 0.10 | 0.10 | 65 | 1012.1 |
| 20260903232429 | 31 | 360 | 22.5 | 33.8 | 0.10 | 0.10 | 0.10 | 66 | 1012.2 |
| 20260903232329 | 31 | 360 | 20.9 | 33.8 | 0.10 | 0.10 | 0.10 | 66 | 1012.2 |
| 20260903232230 | 31 | 360 | 19.3 | 33.8 | 0.10 | 0.10 | 0.10 | 66 | 1012.1 |
| 20260903232130 | 31 | 360 | 17.7 | 33.8 | 0.10 | 0.10 | 0.10 | 66 | 1012.1 |
| 20260903232031 | 31 | 360 | 14.5 | 33.8 | 0.10 | 0.10 | 0.10 | 67 | 1012.2 |
| 20260903231952 | 31 | 360 | 16.1 | 33.8 | 0.10 | 0.10 | 0.10 | 67 | 1012.0 |
| 20260903231835 | 31 | 360 | 16.1 | 37.0 | 0.10 | 0.10 | 0.10 | 67 | 1012.1 |
| 20260903231736 | 31 | 360 | 17.7 | 46.7 | 0.10 | 0.10 | 0.10 | 66 | 1012.1 |
| 20260903231635 | 31 | 360 | 20.9 | 46.7 | 0.10 | 0.10 | 0.10 | 67 | 1012.1 |
| 20260903231516 | 31 | 360 | 22.5 | 46.7 | 0.10 | 0.10 | 0.10 | 67 | 1012.1 |
| 20260903231417 | 31 | 360 | 22.5 | 46.7 | 0.10 | 0.10 | 0.10 | 66 | 1012.2 |
| 20260903231318 | 31 | 360 | 22.5 | 46.7 | 0.10 | 0.10 | 0.10 | 67 | 1012.3 |
| 20260903231223 | 31 | 360 | 24.1 | 46.7 | 0.10 | 0.10 | 0.10 | 67 | 1012.3 |
| 20260903231124 | 31 | 360 | 27.4 | 48.3 | 0.10 | 0.10 | 0.10 | 67 | 1012.3 |
| 20260903231024 | 31 | 360 | 30.6 | 48.3 | 0.10 | 0.10 | 0.10 | 68 | 1012.3 |
| 20260903230925 | 31 | 360 | 32.2 | 48.3 | 0.10 | 0.10 | 0.10 | 67 | 1012.2 |
| 20260903230826 | 31 | 360 | 32.2 | 48.3 | 0.10 | 0.10 | 0.10 | 67 | 1012.3 |
| 20260903230725 | 31 | 360 | 32.2 | 48.3 | 0.10 | 0.10 | 0.10 | 67 | 1012.3 |
| 20260903230626 | 31 | 360 | 32.2 | 48.3 | 0.10 | 0.10 | 0.10 | 67 | 1012.3 |
| 20260903230531 | 31 | 360 | 33.8 | 48.3 | 0.10 | 0.10 | 0.10 | 67 | 1012.2 |
| 20260903230432 | 31 | 360 | 33.8 | 48.3 | 0.10 | 0.10 | 0.10 | 67 | 1012.1 |
| 20260903230332 | 31 | 360 | 30.6 | 48.3 | 0.10 | 0.10 | 0.10 | 66 | 1012.1 |
| 20260903230231 | 31 | 360 | 27.4 | 48.3 | 0.10 | 0.10 | 0.10 | 66 | 1012.1 |
| 20260903230131 | 31 | 360 | 24.1 | 38.6 | 0.10 | 0.10 | 0.10 | 66 | 1012.1 |
| 20260903230053 | 31 | 360 | 24.1 | 38.6 | 0.10 | 0.10 | 0.10 | 65 | 1012.0 |
| 20260903225952 | 31 | 360 | 24.1 | 38.6 | 0.10 | 0.10 | 0.10 | 63 | 1012.0 |
| 20260903225832 | 31 | 360 | 24.1 | 43.5 | 0.10 | 0.10 | 0.10 | 63 | 1012.0 |
| 20260903225716 | 31 | 360 | 25.7 | 43.5 | 0.10 | 0.10 | 0.10 | 63 | 1012.0 |
| 20260903225617 | 31 | 360 | 27.4 | 43.5 | 0.10 | 0.10 | 0.10 | 62 | 1012.0 |
| 20260903225517 | 31 | 360 | 27.4 | 43.5 | 0.10 | 0.10 | 0.10 | 62 | 1011.9 |
| 20260903225417 | 31 | 360 | 25.7 | 43.5 | 0.10 | 0.10 | 0.10 | 62 | 1011.9 |
| 20260903225318 | 31 | 360 | 27.4 | 43.5 | 0.10 | 0.10 | 0.10 | 61 | 1011.9 |
| 20260903225220 | 32 | 360 | 25.7 | 43.5 | 0.10 | 0.10 | 0.10 | 61 | 1011.9 |
| 20260903225124 | 32 | 360 | 24.1 | 43.5 | 0.10 | 0.10 | 0.10 | 60 | 1011.8 |
| 20260903225042 | 32 | 360 | 20.9 | 43.5 | 0.10 | 0.10 | 0.10 | 60 | 1011.8 |
| 20260903224921 | 32 | 360 | 19.3 | 43.5 | 0.10 | 0.10 | 0.10 | 60 | 1011.8 |
| 20260903224842 | 32 | 360 | 17.7 | 37.0 | 0.10 | 0.10 | 0.10 | 60 | 1011.7 |
| 20260903224716 | 32 | 360 | 14.5 | 29.0 | 0.10 | 0.10 | 0.10 | 60 | 1011.7 |
| 20260903224617 | 32 | 360 | 14.5 | 33.8 | 0.10 | 0.10 | 0.10 | 61 | 1011.6 |
| 20260903224518 | 31 | 360 | 14.5 | 33.8 | 0.10 | 0.10 | 0.10 | 62 | 1011.7 |
| 20260903224424 | 31 | 360 | 16.1 | 33.8 | 0.10 | 0.10 | 0.10 | 61 | 1011.6 |
| 20260903224323 | 31 | 360 | 16.1 | 33.8 | 0.10 | 0.10 | 0.10 | 61 | 1011.7 |
| 20260903224224 | 31 | 360 | 16.1 | 33.8 | 0.10 | 0.10 | 0.10 | 62 | 1011.7 |
| 20260903224124 | 31 | 360 | 17.7 | 33.8 | 0.10 | 0.10 | 0.10 | 63 | 1011.7 |
| 20260903224025 | 31 | 360 | 19.3 | 33.8 | 0.10 | 0.10 | 0.10 | 63 | 1011.7 |
| 20260903223945 | 31 | 360 | 20.9 | 33.8 | 0.10 | 0.10 | 0.10 | 63 | 1011.7 |
| 20260903223824 | 31 | 360 | 22.5 | 33.8 | 0.08 | 0.08 | 0.08 | 62 | 1011.6 |
| 20260903223723 | 31 | 360 | 20.9 | 33.8 | 0.08 | 0.08 | 0.08 | 62 | 1011.7 |
| 20260903223628 | 31 | 360 | 20.9 | 29.0 | 0.08 | 0.08 | 0.08 | 62 | 1011.6 |
| 20260903223549 | 31 | 360 | 19.3 | 33.8 | 0.08 | 0.08 | 0.08 | 63 | 1011.7 |
| 20260903223429 | 31 | 360 | 16.1 | 33.8 | 0.08 | 0.08 | 0.08 | 63 | 1011.7 |
| 20260903223329 | 31 | 360 | 14.5 | 33.8 | 0.08 | 0.08 | 0.08 | 62 | 1011.7 |
| 20260903223229 | 31 | 360 | 12.9 | 33.8 | 0.08 | 0.08 | 0.08 | 63 | 1011.6 |
| 20260903223130 | 32 | 360 | 14.5 | 33.8 | 0.08 | 0.08 | 0.08 | 62 | 1011.6 |
| 20260903223030 | 32 | 360 | 17.7 | 33.8 | 0.08 | 0.08 | 0.08 | 60 | 1011.7 |
| 20260903222935 | 32 | 360 | 20.9 | 33.8 | 0.05 | 0.05 | 0.05 | 60 | 1011.6 |
| 20260903222836 | 32 | 360 | 22.5 | 33.8 | 0.05 | 0.05 | 0.05 | 57 | 1011.6 |
| 20260903222735 | 32 | 360 | 22.5 | 33.8 | 0.03 | 0.03 | 0.03 | 57 | 1011.7 |
| 20260903222656 | 33 | 360 | 17.7 | 33.8 | 0.03 | 0.03 | 0.03 | 57 | 1011.6 |
| 20260903222516 | 33 | 360 | 14.5 | 32.2 | 0.00 | 0.00 | 0.00 | 57 | 1011.6 |
| 20260903222416 | 33 | 360 | 16.1 | 32.2 | 0.00 | 0.00 | 0.00 | 55 | 1011.6 |
| 20260903222322 | 33 | 360 | 17.7 | 35.4 | 0.00 | 0.00 | 0.00 | 54 | 1011.7 |
| 20260903222243 | 33 | 360 | 17.7 | 35.4 | 0.00 | 0.00 | 0.00 | 53 | 1011.7 |
| 20260903222123 | 33 | 125 | 16.1 | 35.4 | 0.00 | 0.00 | 0.00 | 53 | 1011.6 |
| 20260903222024 | 33 | 360 | 16.1 | 37.0 | 0.00 | 0.00 | 0.00 | 53 | 1011.7 |
| 20260903221944 | 33 | 360 | 17.7 | 37.0 | 0.00 | 0.00 | 0.00 | 53 | 1011.6 |
| 20260903221822 | 33 | 360 | 20.9 | 37.0 | 0.00 | 0.00 | 0.00 | 53 | 1011.6 |
| 20260903221723 | 33 | 360 | 22.5 | 37.0 | 0.00 | 0.00 | 0.00 | 53 | 1011.6 |
| 20260903221623 | 33 | 360 | 24.1 | 40.2 | 0.00 | 0.00 | 0.00 | 53 | 1011.6 |
| 20260903221523 | 33 | 360 | 22.5 | 40.2 | 0.00 | 0.00 | 0.00 | 53 | 1011.7 |
| 20260903221427 | 34 | 360 | 20.9 | 43.5 | 0.00 | 0.00 | 0.00 | 53 | 1011.6 |
| 20260903221327 | 34 | 360 | 20.9 | 46.7 | 0.00 | 0.00 | 0.00 | 53 | 1011.6 |
| 20260903221228 | 34 | 360 | 22.5 | 46.7 | 0.00 | 0.00 | 0.00 | 53 | 1011.7 |
| 20260903221129 | 34 | 360 | 24.1 | 46.7 | 0.00 | 0.00 | 0.00 | 53 | 1011.6 |
| 20260903221029 | 34 | 360 | 25.7 | 46.7 | 0.00 | 0.00 | 0.00 | 53 | 1011.6 |
| 20260903220929 | 34 | 360 | 27.4 | 46.7 | 0.00 | 0.00 | 0.00 | 53 | 1011.5 |
| 20260903220834 | 34 | 360 | 27.4 | 46.7 | 0.00 | 0.00 | 0.00 | 53 | 1011.4 |
| 20260903220736 | 34 | 360 | 24.1 | 46.7 | 0.00 | 0.00 | 0.00 | 52 | 1011.4 |
| 20260903220616 | 34 | 360 | 24.1 | 43.5 | 0.00 | 0.00 | 0.00 | 52 | 1011.4 |
| 20260903220516 | 35 | 360 | 22.5 | 41.8 | 0.00 | 0.00 | 0.00 | 52 | 1011.4 |
| 20260903220437 | 35 | 360 | 24.1 | 41.8 | 0.00 | 0.00 | 0.00 | 51 | 1011.4 |
| 20260903220315 | 35 | 360 | 24.1 | 41.8 | 0.00 | 0.00 | 0.00 | 51 | 1011.3 |
| 20260903220216 | 35 | 360 | 20.9 | 33.8 | 0.00 | 0.00 | 0.00 | 50 | 1011.4 |
| 20260903220121 | 35 | 360 | 17.7 | 33.8 | 0.00 | 0.00 | 0.00 | 50 | 1011.3 |
| 20260903220042 | 35 | 360 | 16.1 | 33.8 | 0.00 | 0.00 | 0.00 | 50 | 1011.4 |
| 20260903215922 | 35 | 360 | 17.7 | 33.8 | 0.00 | 0.00 | 0.00 | 49 | 1011.4 |
| 20260903215843 | 35 | 360 | 16.1 | 30.6 | 0.00 | 0.00 | 0.00 | 49 | 1011.3 |
| 20260903215741 | 35 | 360 | 19.3 | 30.6 | 0.00 | 0.00 | 0.00 | 49 | 1011.3 |
| 20260903215640 | 35 | 360 | 17.7 | 30.6 | 0.00 | 0.00 | 0.00 | 49 | 1011.2 |
| 20260903215519 | 36 | 360 | 17.7 | 30.6 | 0.00 | 0.00 | 0.00 | 48 | 1011.3 |
| 20260903215419 | 36 | 360 | 12.9 | 22.5 | 0.00 | 0.00 | 0.00 | 48 | 1011.2 |
| 20260903215324 | 36 | 360 | 11.3 | 22.5 | 0.00 | 0.00 | 0.00 | 48 | 1011.3 |
| 20260903215224 | 36 | 360 | 8.0 | 22.5 | 0.00 | 0.00 | 0.00 | 49 | 1011.3 |
| 20260903215125 | 36 | 360 | 8.0 | 22.5 | 0.00 | 0.00 | 0.00 | 48 | 1011.3 |
| 20260903215026 | 36 | 360 | 9.7 | 22.5 | 0.00 | 0.00 | 0.00 | 48 | 1011.4 |
| 20260903214926 | 36 | 360 | 11.3 | 22.5 | 0.00 | 0.00 | 0.00 | 49 | 1011.3 |
| 20260903214826 | 36 | 360 | 12.9 | 22.5 | 0.00 | 0.00 | 0.00 | 49 | 1011.3 |
| 20260903214727 | 36 | 360 | 12.9 | 22.5 | 0.00 | 0.00 | 0.00 | 49 | 1011.4 |
| 20260903214631 | 36 | 360 | 11.3 | 19.3 | 0.00 | 0.00 | 0.00 | 48 | 1011.3 |
| 20260903214532 | 36 | 360 | 8.0 | 17.7 | 0.00 | 0.00 | 0.00 | 48 | 1011.4 |
| 20260903214431 | 36 | 360 | 6.4 | 17.7 | 0.00 | 0.00 | 0.00 | 49 | 1011.3 |
| 20260903214331 | 36 | 360 | 6.4 | 19.3 | 0.00 | 0.00 | 0.00 | 49 | 1011.4 |
| 20260903214232 | 36 | 360 | 6.4 | 25.7 | 0.00 | 0.00 | 0.00 | 49 | 1011.4 |
| 20260903214133 | 36 | 360 | 6.4 | 25.7 | 0.00 | 0.00 | 0.00 | 49 | 1011.3 |
| 20260903214017 | 36 | 360 | 9.7 | 25.7 | 0.00 | 0.00 | 0.00 | 49 | 1011.4 |
| 20260903213917 | 36 | 360 | 9.7 | 25.7 | 0.00 | 0.00 | 0.00 | 49 | 1011.4 |
| 20260903213837 | 36 | 360 | 11.3 | 25.7 | 0.00 | 0.00 | 0.00 | 49 | 1011.4 |
| 20260903213717 | 36 | 360 | 12.9 | 25.7 | 0.00 | 0.00 | 0.00 | 49 | 1011.4 |
| 20260903213617 | 36 | 360 | 14.5 | 25.7 | 0.00 | 0.00 | 0.00 | 49 | 1011.4 |
| 20260903213517 | 36 | 360 | 16.1 | 25.7 | 0.00 | 0.00 | 0.00 | 49 | 1011.4 |
| 20260903213418 | 36 | 360 | 16.1 | 25.7 | 0.00 | 0.00 | 0.00 | 49 | 1011.4 |
| 20260903213324 | 36 | 360 | 16.1 | 25.7 | 0.00 | 0.00 | 0.00 | 49 | 1011.4 |
| 20260903213224 | 36 | 360 | 17.7 | 33.8 | 0.00 | 0.00 | 0.00 | 49 | 1011.4 |
| 20260903213125 | 36 | 360 | 16.1 | 38.6 | 0.00 | 0.00 | 0.00 | 49 | 1011.4 |
| 20260903213027 | 36 | 360 | 16.1 | 38.6 | 0.00 | 0.00 | 0.00 | 49 | 1011.5 |
| 20260903212928 | 36 | 360 | 12.9 | 38.6 | 0.00 | 0.00 | 0.00 | 49 | 1011.4 |
| 20260903212830 | 36 | 360 | 14.5 | 38.6 | 0.00 | 0.00 | 0.00 | 49 | 1011.5 |
| 20260903212730 | 36 | 360 | 14.5 | 38.6 | 0.00 | 0.00 | 0.00 | 49 | 1011.5 |
| 20260903212655 | 36 | 360 | 19.3 | 38.6 | 0.00 | 0.00 | 0.00 | 49 | 1011.5 |
| 20260903212535 | 36 | 360 | 20.9 | 38.6 | 0.00 | 0.00 | 0.00 | 49 | 1011.5 |
| 20260903212435 | 36 | 360 | 24.1 | 38.6 | 0.00 | 0.00 | 0.00 | 48 | 1011.5 |
| 20260903212355 | 36 | 360 | 22.5 | 38.6 | 0.00 | 0.00 | 0.00 | 48 | 1011.5 |
| 20260903212234 | 36 | 360 | 17.7 | 33.8 | 0.00 | 0.00 | 0.00 | 48 | 1011.5 |
| 20260903212134 | 36 | 360 | 12.9 | 29.0 | 0.00 | 0.00 | 0.00 | 48 | 1011.5 |
| 20260903212036 | 36 | 360 | 14.5 | 24.1 | 0.00 | 0.00 | 0.00 | 48 | 1011.5 |
| 20260903211920 | 36 | 360 | 16.1 | 25.7 | 0.00 | 0.00 | 0.00 | 48 | 1011.4 |
| 20260903211821 | 36 | 360 | 14.5 | 30.6 | 0.00 | 0.00 | 0.00 | 48 | 1011.5 |
| 20260903211721 | 36 | 360 | 11.3 | 30.6 | 0.00 | 0.00 | 0.00 | 48 | 1011.5 |
| 20260903211622 | 36 | 360 | 8.0 | 30.6 | 0.00 | 0.00 | 0.00 | 48 | 1011.5 |
| 20260903211542 | 36 | 360 | 8.0 | 30.6 | 0.00 | 0.00 | 0.00 | 48 | 1011.4 |
| 20260903211422 | 36 | 360 | 11.3 | 30.6 | 0.00 | 0.00 | 0.00 | 48 | 1011.4 |
| 20260903211323 | 36 | 360 | 14.5 | 30.6 | 0.00 | 0.00 | 0.00 | 48 | 1011.5 |
| 20260903211228 | 36 | 360 | 17.7 | 30.6 | 0.00 | 0.00 | 0.00 | 48 | 1011.6 |
| 20260903211128 | 36 | 360 | 19.3 | 30.6 | 0.00 | 0.00 | 0.00 | 47 | 1011.6 |
| 20260903211029 | 37 | 360 | 17.7 | 30.6 | 0.00 | 0.00 | 0.00 | 47 | 1011.6 |
| 20260903210929 | 37 | 360 | 12.9 | 24.1 | 0.00 | 0.00 | 0.00 | 47 | 1011.6 |
| 20260903210849 | 37 | 360 | 9.7 | 24.1 | 0.00 | 0.00 | 0.00 | 47 | 1011.7 |
| 20260903210729 | 36 | 360 | 8.0 | 24.1 | 0.00 | 0.00 | 0.00 | 47 | 1011.6 |
| 20260903210649 | 36 | 360 | 9.7 | 24.1 | 0.00 | 0.00 | 0.00 | 47 | 1011.6 |
| 20260903210533 | 36 | 360 | 11.3 | 24.1 | 0.00 | 0.00 | 0.00 | 47 | 1011.6 |
| 20260903210433 | 36 | 360 | 11.3 | 24.1 | 0.00 | 0.00 | 0.00 | 47 | 1011.7 |
| 20260903210333 | 36 | 360 | 9.7 | 24.1 | 0.00 | 0.00 | 0.00 | 47 | 1011.7 |
| 20260903210234 | 36 | 360 | 11.3 | 29.0 | 0.00 | 0.00 | 0.00 | 46 | 1011.8 |
| 20260903210134 | 36 | 360 | 11.3 | 29.0 | 0.00 | 0.00 | 0.00 | 47 | 1011.8 |
| 20260903210035 | 36 | 360 | 11.3 | 29.0 | 0.00 | 0.00 | 0.00 | 47 | 1011.7 |
| 20260903205918 | 36 | 360 | 12.9 | 29.0 | 0.00 | 0.00 | 0.00 | 47 | 1011.8 |
| 20260903205820 | 36 | 360 | 14.5 | 29.0 | 0.00 | 0.00 | 0.00 | 47 | 1011.8 |
| 20260903205720 | 36 | 360 | 16.1 | 29.0 | 0.00 | 0.00 | 0.00 | 48 | 1011.9 |
| 20260903205621 | 36 | 360 | 17.7 | 29.0 | 0.00 | 0.00 | 0.00 | 48 | 1011.8 |
| 20260903205542 | 36 | 169 | 16.1 | 29.0 | 0.00 | 0.00 | 0.00 | 47 | 1011.7 |
| 20260903205416 | 36 | 360 | 16.1 | 27.4 | 0.00 | 0.00 | 0.00 | 47 | 1011.8 |
| 20260903205317 | 36 | 360 | 12.9 | 24.1 | 0.00 | 0.00 | 0.00 | 47 | 1011.8 |
| 20260903205221 | 36 | 134 | 12.9 | 20.9 | 0.00 | 0.00 | 0.00 | 47 | 1011.7 |
| 20260903205142 | 36 | 360 | 11.3 | 20.9 | 0.00 | 0.00 | 0.00 | 46 | 1011.7 |
| 20260903205022 | 36 | 360 | 9.7 | 20.9 | 0.00 | 0.00 | 0.00 | 46 | 1011.8 |
| 20260903204942 | 36 | 360 | 6.4 | 17.7 | 0.00 | 0.00 | 0.00 | 47 | 1011.8 |
| 20260903204842 | 36 | 360 | 4.8 | 17.7 | 0.00 | 0.00 | 0.00 | 48 | 1011.8 |
| 20260903204721 | 36 | 360 | 6.4 | 20.9 | 0.00 | 0.00 | 0.00 | 47 | 1011.8 |
| 20260903204620 | 36 | 360 | 8.0 | 20.9 | 0.00 | 0.00 | 0.00 | 47 | 1011.8 |
| 20260903204521 | 36 | 360 | 8.0 | 20.9 | 0.00 | 0.00 | 0.00 | 47 | 1011.9 |
| 20260903204426 | 36 | 360 | 6.4 | 20.9 | 0.00 | 0.00 | 0.00 | 47 | 1011.8 |
| 20260903204347 | 36 | 360 | 8.0 | 20.9 | 0.00 | 0.00 | 0.00 | 48 | 1011.9 |
| 20260903204226 | 36 | 360 | 9.7 | 20.9 | 0.00 | 0.00 | 0.00 | 47 | 1012.0 |
| 20260903204147 | 36 | 360 | 12.9 | 20.9 | 0.00 | 0.00 | 0.00 | 48 | 1011.9 |
| 20260903204046 | 36 | 360 | 12.9 | 20.9 | 0.00 | 0.00 | 0.00 | 47 | 1012.0 |
| 20260903203925 | 36 | 360 | 11.3 | 24.1 | 0.00 | 0.00 | 0.00 | 47 | 1012.0 |
| 20260903203826 | 37 | 360 | 11.3 | 24.1 | 0.00 | 0.00 | 0.00 | 47 | 1012.0 |
| 20260903203725 | 37 | 360 | 9.7 | 24.1 | 0.00 | 0.00 | 0.00 | 47 | 1012.1 |
| 20260903203630 | 37 | 360 | 9.7 | 24.1 | 0.00 | 0.00 | 0.00 | 47 | 1012.0 |
| 20260903203550 | 37 | 360 | 8.0 | 24.1 | 0.00 | 0.00 | 0.00 | 47 | 1012.1 |
| 20260903203429 | 37 | 360 | 11.3 | 24.1 | 0.00 | 0.00 | 0.00 | 46 | 1012.0 |
| 20260903203330 | 37 | 360 | 14.5 | 24.1 | 0.00 | 0.00 | 0.00 | 47 | 1012.1 |
| 20260903203231 | 37 | 113 | 14.5 | 24.1 | 0.00 | 0.00 | 0.00 | 47 | 1012.1 |
| 20260903203152 | 37 | 360 | 12.9 | 24.1 | 0.00 | 0.00 | 0.00 | 46 | 1012.1 |
| 20260903203031 | 37 | 360 | 9.7 | 24.1 | 0.00 | 0.00 | 0.00 | 48 | 1012.1 |
| 20260903202952 | 36 | 360 | 6.4 | 14.5 | 0.00 | 0.00 | 0.00 | 47 | 1012.1 |
| 20260903202816 | 36 | 360 | 4.8 | 14.5 | 0.00 | 0.00 | 0.00 | 48 | 1012.2 |
| 20260903202716 | 36 | 360 | 4.8 | 14.5 | 0.00 | 0.00 | 0.00 | 48 | 1012.1 |
| 20260903202637 | 36 | 360 | 6.4 | 14.5 | 0.00 | 0.00 | 0.00 | 47 | 1012.2 |
| 20260903202559 | 36 | 360 | 6.4 | 16.1 | 0.00 | 0.00 | 0.00 | 48 | 1012.1 |
| 20260903202457 | 36 | 360 | 4.8 | 24.1 | 0.00 | 0.00 | 0.00 | 48 | 1012.3 |
| 20260903202335 | 36 | 360 | 3.2 | 27.4 | 0.00 | 0.00 | 0.00 | 48 | 1012.3 |
| 20260903202236 | 36 | 360 | 4.8 | 27.4 | 0.00 | 0.00 | 0.00 | 49 | 1012.3 |
| 20260903202156 | 36 | 360 | 4.8 | 27.4 | 0.00 | 0.00 | 0.00 | 49 | 1012.3 |
| 20260903202057 | 36 | 360 | 6.4 | 27.4 | 0.00 | 0.00 | 0.00 | 49 | 1012.3 |
| 20260903201921 | 36 | 360 | 6.4 | 27.4 | 0.00 | 0.00 | 0.00 | 48 | 1012.3 |
| 20260903201820 | 36 | 360 | 11.3 | 27.4 | 0.00 | 0.00 | 0.00 | 48 | 1012.3 |
| 20260903201721 | 36 | 360 | 16.1 | 27.4 | 0.00 | 0.00 | 0.00 | 48 | 1012.3 |
| 20260903201621 | 36 | 360 | 17.7 | 27.4 | 0.00 | 0.00 | 0.00 | 46 | 1012.3 |
| 20260903201522 | 37 | 360 | 12.9 | 24.1 | 0.00 | 0.00 | 0.00 | 46 | 1012.4 |
| 20260903201422 | 37 | 360 | 8.0 | 24.1 | 0.00 | 0.00 | 0.00 | 48 | 1012.3 |
| 20260903201327 | 37 | 360 | 6.4 | 20.9 | 0.00 | 0.00 | 0.00 | 47 | 1012.3 |
| 20260903201227 | 37 | 360 | 4.8 | 20.9 | 0.00 | 0.00 | 0.00 | 47 | 1012.3 |
| 20260903201127 | 37 | 360 | 6.4 | 20.9 | 0.00 | 0.00 | 0.00 | 48 | 1012.2 |
| 20260903201028 | 37 | 360 | 8.0 | 20.9 | 0.00 | 0.00 | 0.00 | 47 | 1012.3 |
| 20260903200928 | 37 | 360 | 8.0 | 20.9 | 0.00 | 0.00 | 0.00 | 47 | 1012.3 |
| 20260903200827 | 37 | 360 | 9.7 | 20.9 | 0.00 | 0.00 | 0.00 | 47 | 1012.4 |
| 20260903200748 | 37 | 360 | 9.7 | 20.9 | 0.00 | 0.00 | 0.00 | 47 | 1012.4 |
| 20260903200628 | 37 | 360 | 9.7 | 20.9 | 0.00 | 0.00 | 0.00 | 48 | 1012.4 |
| 20260903200531 | 37 | 360 | 9.7 | 19.3 | 0.00 | 0.00 | 0.00 | 48 | 1012.4 |
| 20260903200433 | 37 | 360 | 4.8 | 17.7 | 0.00 | 0.00 | 0.00 | 49 | 1012.4 |
| 20260903200334 | 36 | 360 | 4.8 | 19.3 | 0.00 | 0.00 | 0.00 | 49 | 1012.4 |
| 20260903200254 | 36 | 360 | 4.8 | 19.3 | 0.00 | 0.00 | 0.00 | 49 | 1012.4 |
| 20260903200134 | 36 | 360 | 6.4 | 19.3 | 0.00 | 0.00 | 0.00 | 48 | 1012.3 |
| 20260903200033 | 36 | 360 | 6.4 | 19.3 | 0.00 | 0.00 | 0.00 | 49 | 1012.4 |
| 20260903195953 | 36 | 360 | 6.4 | 19.3 | 0.00 | 0.00 | 0.00 | 48 | 1012.3 |
| 20260903195833 | 36 | 360 | 8.0 | 19.3 | 0.00 | 0.00 | 0.00 | 48 | 1012.4 |
| 20260903195717 | 36 | 360 | 9.7 | 19.3 | 0.00 | 0.00 | 0.00 | 48 | 1012.5 |
| 20260903195616 | 36 | 360 | 9.7 | 19.3 | 0.00 | 0.00 | 0.00 | 48 | 1012.5 |
| 20260903195517 | 36 | 360 | 9.7 | 19.3 | 0.00 | 0.00 | 0.00 | 48 | 1012.5 |
| 20260903195417 | 37 | 360 | 9.7 | 19.3 | 0.00 | 0.00 | 0.00 | 47 | 1012.5 |
| 20260903195318 | 37 | 360 | 8.0 | 19.3 | 0.00 | 0.00 | 0.00 | 46 | 1012.5 |
| 20260903195219 | 37 | 360 | 6.4 | 19.3 | 0.00 | 0.00 | 0.00 | 46 | 1012.6 |
| 20260903195123 | 37 | 360 | 3.2 | 17.7 | 0.00 | 0.00 | 0.00 | 46 | 1012.5 |
| 20260903195023 | 37 | 360 | 3.2 | 17.7 | 0.00 | 0.00 | 0.00 | 46 | 1012.5 |
| 20260903194923 | 37 | 360 | 3.2 | 17.7 | 0.00 | 0.00 | 0.00 | 46 | 1012.4 |
| 20260903194822 | 37 | 360 | 3.2 | 17.7 | 0.00 | 0.00 | 0.00 | 47 | 1012.5 |
| 20260903194723 | 37 | 360 | 3.2 | 17.7 | 0.00 | 0.00 | 0.00 | 48 | 1012.5 |
| 20260903194623 | 37 | 360 | 3.2 | 17.7 | 0.00 | 0.00 | 0.00 | 48 | 1012.5 |
| 20260903194524 | 36 | 360 | 8.0 | 17.7 | 0.00 | 0.00 | 0.00 | 48 | 1012.6 |
| 20260903194428 | 37 | 360 | 8.0 | 17.7 | 0.00 | 0.00 | 0.00 | 47 | 1012.6 |
| 20260903194328 | 37 | 360 | 6.4 | 17.7 | 0.00 | 0.00 | 0.00 | 49 | 1012.5 |
| 20260903194228 | 36 | 360 | 4.8 | 20.9 | 0.00 | 0.00 | 0.00 | 48 | 1012.6 |
| 20260903194129 | 36 | 360 | 3.2 | 20.9 | 0.00 | 0.00 | 0.00 | 48 | 1012.6 |
| 20260903194030 | 36 | 360 | 3.2 | 20.9 | 0.00 | 0.00 | 0.00 | 48 | 1012.6 |
| 20260903193930 | 36 | 360 | 4.8 | 20.9 | 0.00 | 0.00 | 0.00 | 48 | 1012.6 |
| 20260903193831 | 36 | 360 | 6.4 | 20.9 | 0.00 | 0.00 | 0.00 | 48 | 1012.6 |
| 20260903193755 | 36 | 360 | 9.7 | 20.9 | 0.00 | 0.00 | 0.00 | 48 | 1012.7 |
| 20260903193654 | 36 | 360 | 11.3 | 20.9 | 0.00 | 0.00 | 0.00 | 48 | 1012.7 |
| 20260903193554 | 36 | 360 | 12.9 | 20.9 | 0.00 | 0.00 | 0.00 | 49 | 1012.7 |
| 20260903193433 | 36 | 360 | 11.3 | 20.9 | 0.00 | 0.00 | 0.00 | 47 | 1012.7 |
| 20260903193333 | 36 | 360 | 8.0 | 20.9 | 0.00 | 0.00 | 0.00 | 48 | 1012.7 |
| 20260903193233 | 37 | 360 | 4.8 | 20.9 | 0.00 | 0.00 | 0.00 | 48 | 1012.7 |
| 20260903193133 | 36 | 360 | 4.8 | 20.9 | 0.00 | 0.00 | 0.00 | 47 | 1012.8 |
| 20260903193033 | 36 | 360 | 4.8 | 20.9 | 0.00 | 0.00 | 0.00 | 48 | 1012.7 |
| 20260903192918 | 36 | 360 | 8.0 | 20.9 | 0.00 | 0.00 | 0.00 | 49 | 1012.7 |
| 20260903192819 | 36 | 360 | 8.0 | 20.9 | 0.00 | 0.00 | 0.00 | 49 | 1012.8 |
| 20260903192718 | 36 | 360 | 8.0 | 20.9 | 0.00 | 0.00 | 0.00 | 49 | 1012.8 |
| 20260903192620 | 36 | 360 | 9.7 | 20.9 | 0.00 | 0.00 | 0.00 | 49 | 1012.8 |
| 20260903192519 | 36 | 360 | 11.3 | 20.9 | 0.00 | 0.00 | 0.00 | 49 | 1012.9 |
| 20260903192440 | 36 | 360 | 9.7 | 20.9 | 0.00 | 0.00 | 0.00 | 50 | 1012.8 |
| 20260903192319 | 36 | 360 | 8.0 | 20.9 | 0.00 | 0.00 | 0.00 | 49 | 1012.8 |
| 20260903192240 | 36 | 360 | 6.4 | 17.7 | 0.00 | 0.00 | 0.00 | 49 | 1012.8 |
| 20260903192124 | 36 | 360 | 8.0 | 19.3 | 0.00 | 0.00 | 0.00 | 49 | 1012.8 |
| 20260903192024 | 36 | 360 | 6.4 | 24.1 | 0.00 | 0.00 | 0.00 | 50 | 1012.9 |
| 20260903191925 | 36 | 360 | 8.0 | 24.1 | 0.00 | 0.00 | 0.00 | 51 | 1012.9 |
| 20260903191826 | 36 | 114 | 8.0 | 24.1 | 0.00 | 0.00 | 0.00 | 51 | 1012.9 |
| 20260903191726 | 36 | 360 | 11.3 | 24.1 | 0.00 | 0.00 | 0.00 | 50 | 1013.0 |
| 20260903191626 | 36 | 360 | 11.3 | 27.4 | 0.00 | 0.00 | 0.00 | 49 | 1012.9 |
| 20260903191530 | 36 | 360 | 12.9 | 27.4 | 0.00 | 0.00 | 0.00 | 49 | 1013.0 |
| 20260903191431 | 36 | 360 | 14.5 | 27.4 | 0.00 | 0.00 | 0.00 | 50 | 1013.0 |
| 20260903191332 | 36 | 360 | 16.1 | 27.4 | 0.00 | 0.00 | 0.00 | 51 | 1013.0 |
| 20260903191232 | 36 | 360 | 16.1 | 27.4 | 0.00 | 0.00 | 0.00 | 51 | 1013.0 |
| 20260903191132 | 36 | 360 | 16.1 | 27.4 | 0.00 | 0.00 | 0.00 | 50 | 1013.0 |
| 20260903191053 | 36 | 360 | 17.7 | 27.4 | 0.00 | 0.00 | 0.00 | 51 | 1013.0 |
| 20260903190953 | 36 | 360 | 16.1 | 27.4 | 0.00 | 0.00 | 0.00 | 51 | 1013.1 |
| 20260903190852 | 36 | 360 | 12.9 | 27.4 | 0.00 | 0.00 | 0.00 | 50 | 1013.1 |
| 20260903190716 | 36 | 360 | 8.0 | 22.5 | 0.00 | 0.00 | 0.00 | 50 | 1013.2 |
| 20260903190637 | 36 | 360 | 9.7 | 24.1 | 0.00 | 0.00 | 0.00 | 50 | 1013.2 |
| 20260903190536 | 36 | 360 | 9.7 | 24.1 | 0.00 | 0.00 | 0.00 | 50 | 1013.2 |
| 20260903190435 | 36 | 360 | 8.0 | 24.1 | 0.00 | 0.00 | 0.00 | 50 | 1013.2 |
| 20260903190335 | 36 | 360 | 9.7 | 24.1 | 0.00 | 0.00 | 0.00 | 51 | 1013.2 |
| 20260903190237 | 36 | 360 | 11.3 | 24.1 | 0.00 | 0.00 | 0.00 | 52 | 1013.2 |
| 20260903190136 | 36 | 360 | 8.0 | 24.1 | 0.00 | 0.00 | 0.00 | 52 | 1013.2 |
| 20260903190035 | 36 | 360 | 4.8 | 24.1 | 0.00 | 0.00 | 0.00 | 51 | 1013.3 |
| 20260903185920 | 35 | 360 | 3.2 | 24.1 | 0.00 | 0.00 | 0.00 | 51 | 1013.2 |
| 20260903185822 | 35 | 360 | 6.4 | 24.1 | 0.00 | 0.00 | 0.00 | 52 | 1013.2 |
| 20260903185722 | 35 | 360 | 11.3 | 24.1 | 0.00 | 0.00 | 0.00 | 52 | 1013.3 |
| 20260903185622 | 35 | 360 | 14.5 | 24.1 | 0.00 | 0.00 | 0.00 | 52 | 1013.4 |
| 20260903185522 | 35 | 360 | 16.1 | 24.1 | 0.00 | 0.00 | 0.00 | 51 | 1013.4 |
| 20260903185422 | 35 | 360 | 14.5 | 24.1 | 0.00 | 0.00 | 0.00 | 52 | 1013.4 |
| 20260903185327 | 35 | 360 | 12.9 | 17.7 | 0.00 | 0.00 | 0.00 | 52 | 1013.4 |
| 20260903185227 | 35 | 360 | 8.0 | 17.7 | 0.00 | 0.00 | 0.00 | 51 | 1013.4 |
| 20260903185128 | 35 | 360 | 4.8 | 16.1 | 0.00 | 0.00 | 0.00 | 52 | 1013.4 |
| 20260903185027 | 35 | 360 | 4.8 | 16.1 | 0.00 | 0.00 | 0.00 | 51 | 1013.4 |
| 20260903184928 | 35 | 360 | 4.8 | 16.1 | 0.00 | 0.00 | 0.00 | 51 | 1013.5 |
| 20260903184828 | 35 | 360 | 4.8 | 16.1 | 0.00 | 0.00 | 0.00 | 52 | 1013.5 |
| 20260903184729 | 35 | 360 | 8.0 | 16.1 | 0.00 | 0.00 | 0.00 | 52 | 1013.5 |
| 20260903184649 | 35 | 360 | 9.7 | 22.5 | 0.00 | 0.00 | 0.00 | 51 | 1013.5 |
| 20260903184532 | 35 | 360 | 9.7 | 22.5 | 0.00 | 0.00 | 0.00 | 51 | 1013.6 |
| 20260903184432 | 35 | 360 | 8.0 | 22.5 | 0.00 | 0.00 | 0.00 | 50 | 1013.6 |
| 20260903184332 | 35 | 360 | 8.0 | 22.5 | 0.00 | 0.00 | 0.00 | 50 | 1013.7 |
| 20260903184233 | 35 | 360 | 6.4 | 22.5 | 0.00 | 0.00 | 0.00 | 50 | 1013.7 |
| 20260903184134 | 35 | 360 | 6.4 | 22.5 | 0.00 | 0.00 | 0.00 | 51 | 1013.7 |
| 20260903184034 | 35 | 360 | 9.7 | 22.5 | 0.00 | 0.00 | 0.00 | 51 | 1013.8 |
| 20260903183918 | 35 | 360 | 12.9 | 22.5 | 0.00 | 0.00 | 0.00 | 52 | 1013.7 |
| 20260903183818 | 35 | 360 | 14.5 | 25.7 | 0.00 | 0.00 | 0.00 | 51 | 1013.7 |
| 20260903183719 | 35 | 360 | 16.1 | 27.4 | 0.00 | 0.00 | 0.00 | 51 | 1013.7 |
| 20260903183619 | 35 | 360 | 16.1 | 27.4 | 0.00 | 0.00 | 0.00 | 51 | 1013.7 |
| 20260903183518 | 35 | 360 | 17.7 | 27.4 | 0.00 | 0.00 | 0.00 | 51 | 1013.7 |
| 20260903183439 | 35 | 360 | 16.1 | 27.4 | 0.00 | 0.00 | 0.00 | 50 | 1013.8 |
| 20260903183318 | 35 | 360 | 14.5 | 27.4 | 0.00 | 0.00 | 0.00 | 50 | 1013.7 |
| 20260903183219 | 35 | 360 | 14.5 | 27.4 | 0.00 | 0.00 | 0.00 | 51 | 1013.8 |
| 20260903183140 | 35 | 360 | 16.1 | 27.4 | 0.00 | 0.00 | 0.00 | 51 | 1013.8 |
| 20260903183020 | 35 | 360 | 16.1 | 27.4 | 0.00 | 0.00 | 0.00 | 50 | 1013.7 |
| 20260903182920 | 35 | 360 | 12.9 | 27.4 | 0.00 | 0.00 | 0.00 | 51 | 1013.8 |
| 20260903182822 | 35 | 360 | 9.7 | 22.5 | 0.00 | 0.00 | 0.00 | 51 | 1013.9 |
| 20260903182722 | 35 | 360 | 6.4 | 22.5 | 0.00 | 0.00 | 0.00 | 51 | 1013.8 |
| 20260903182642 | 35 | 360 | 4.8 | 22.5 | 0.00 | 0.00 | 0.00 | 51 | 1013.8 |
| 20260903182521 | 35 | 360 | 3.2 | 22.5 | 0.00 | 0.00 | 0.00 | 52 | 1013.8 |
| 20260903182426 | 35 | 360 | 4.8 | 22.5 | 0.00 | 0.00 | 0.00 | 56 | 1013.8 |
| 20260903182327 | 35 | 360 | 4.8 | 32.2 | 0.00 | 0.00 | 0.00 | 56 | 1013.8 |
| 20260903182228 | 34 | 360 | 6.4 | 32.2 | 0.00 | 0.00 | 0.00 | 55 | 1013.8 |
| 20260903182129 | 34 | 360 | 9.7 | 32.2 | 0.00 | 0.00 | 0.00 | 54 | 1013.9 |
| 20260903182050 | 34 | 360 | 11.3 | 32.2 | 0.00 | 0.00 | 0.00 | 54 | 1013.9 |
| 20260903181929 | 34 | 360 | 8.0 | 32.2 | 0.00 | 0.00 | 0.00 | 54 | 1013.9 |
| 20260903181850 | 34 | 360 | 6.4 | 32.2 | 0.00 | 0.00 | 0.00 | 53 | 1013.9 |
| 20260903181730 | 34 | 360 | 11.3 | 32.2 | 0.00 | 0.00 | 0.00 | 54 | 1013.9 |
| 20260903181634 | 34 | 360 | 16.1 | 32.2 | 0.00 | 0.00 | 0.00 | 54 | 1014.0 |
| 20260903181555 | 34 | 360 | 16.1 | 32.2 | 0.00 | 0.00 | 0.00 | 53 | 1013.9 |
| 20260903181434 | 34 | 360 | 12.9 | 30.6 | 0.00 | 0.00 | 0.00 | 53 | 1014.0 |
| 20260903181334 | 34 | 360 | 14.5 | 30.6 | 0.00 | 0.00 | 0.00 | 53 | 1013.9 |
| 20260903181255 | 34 | 360 | 19.3 | 30.6 | 0.00 | 0.00 | 0.00 | 53 | 1014.0 |
| 20260903181135 | 35 | 360 | 17.7 | 30.6 | 0.00 | 0.00 | 0.00 | 52 | 1014.0 |
| 20260903181035 | 35 | 360 | 16.1 | 27.4 | 0.00 | 0.00 | 0.00 | 52 | 1014.0 |
| 20260903180939 | 35 | 360 | 14.5 | 25.7 | 0.00 | 0.00 | 0.00 | 53 | 1014.0 |
| 20260903180820 | 35 | 360 | 11.3 | 25.7 | 0.00 | 0.00 | 0.00 | 53 | 1014.1 |
| 20260903180739 | 34 | 360 | 9.7 | 25.7 | 0.00 | 0.00 | 0.00 | 53 | 1014.0 |
| 20260903180639 | 34 | 360 | 9.7 | 25.7 | 0.00 | 0.00 | 0.00 | 53 | 1014.1 |
| 20260903180519 | 34 | 360 | 9.7 | 25.7 | 0.00 | 0.00 | 0.00 | 54 | 1014.1 |
| 20260903180419 | 34 | 360 | 8.0 | 25.7 | 0.00 | 0.00 | 0.00 | 55 | 1014.1 |
| 20260903180319 | 34 | 360 | 9.7 | 25.7 | 0.00 | 0.00 | 0.00 | 55 | 1014.1 |
| 20260903180219 | 34 | 360 | 12.9 | 25.7 | 0.00 | 0.00 | 0.00 | 54 | 1014.1 |
| 20260903180139 | 34 | 360 | 14.5 | 25.7 | 0.00 | 0.00 | 0.00 | 53 | 1014.1 |
| 20260903180023 | 34 | 360 | 14.5 | 25.7 | 0.00 | 0.00 | 0.00 | 53 | 1014.1 |
| 20260903175924 | 35 | 360 | 11.3 | 22.5 | 0.00 | 0.00 | 0.00 | 55 | 1014.2 |
| 20260903175826 | 35 | 360 | 8.0 | 22.5 | 0.00 | 0.00 | 0.00 | 54 | 1014.1 |
| 20260903175746 | 35 | 360 | 4.8 | 19.3 | 0.00 | 0.00 | 0.00 | 54 | 1014.1 |
| 20260903175626 | 35 | 360 | 4.8 | 19.3 | 0.00 | 0.00 | 0.00 | 54 | 1014.1 |
| 20260903175526 | 34 | 360 | 4.8 | 19.3 | 0.00 | 0.00 | 0.00 | 53 | 1014.1 |
| 20260903175447 | 35 | 360 | 8.0 | 19.3 | 0.00 | 0.00 | 0.00 | 54 | 1014.3 |
| 20260903175330 | 35 | 360 | 6.4 | 19.3 | 0.00 | 0.00 | 0.00 | 54 | 1014.2 |
| 20260903175251 | 35 | 360 | 6.4 | 24.1 | 0.00 | 0.00 | 0.00 | 53 | 1014.3 |
| 20260903175151 | 35 | 230 | 8.0 | 24.1 | 0.00 | 0.00 | 0.00 | 53 | 1014.2 |
| 20260903175029 | 35 | 360 | 8.0 | 33.8 | 0.00 | 0.00 | 0.00 | 53 | 1014.3 |
| 20260903174930 | 35 | 360 | 8.0 | 33.8 | 0.00 | 0.00 | 0.00 | 53 | 1014.2 |
| 20260903174851 | 35 | 360 | 8.0 | 33.8 | 0.00 | 0.00 | 0.00 | 54 | 1014.2 |
| 20260903174751 | 35 | 360 | 8.0 | 33.8 | 0.00 | 0.00 | 0.00 | 55 | 1014.2 |
| 20260903174651 | 35 | 360 | 8.0 | 33.8 | 0.00 | 0.00 | 0.00 | 55 | 1014.2 |
| 20260903174549 | 34 | 360 | 8.0 | 33.8 | 0.00 | 0.00 | 0.00 | 56 | 1014.2 |
| 20260903174429 | 33 | 360 | 12.9 | 33.8 | 0.00 | 0.00 | 0.00 | 56 | 1014.1 |
| 20260903174335 | 33 | 360 | 17.7 | 33.8 | 0.00 | 0.00 | 0.00 | 55 | 1014.2 |
| 20260903174235 | 34 | 360 | 17.7 | 33.8 | 0.00 | 0.00 | 0.00 | 55 | 1014.2 |
| 20260903174135 | 34 | 360 | 12.9 | 25.7 | 0.00 | 0.00 | 0.00 | 56 | 1014.1 |
| 20260903174056 | 34 | 360 | 9.7 | 25.7 | 0.00 | 0.00 | 0.00 | 56 | 1014.2 |
| 20260903173917 | 33 | 360 | 9.7 | 25.7 | 0.00 | 0.00 | 0.00 | 57 | 1014.2 |
| 20260903173816 | 33 | 360 | 9.7 | 27.4 | 0.00 | 0.00 | 0.00 | 57 | 1014.2 |
| 20260903173721 | 33 | 360 | 11.3 | 27.4 | 0.00 | 0.00 | 0.00 | 57 | 1014.3 |
| 20260903173621 | 33 | 360 | 11.3 | 27.4 | 0.00 | 0.00 | 0.00 | 57 | 1014.2 |
| 20260903173522 | 33 | 360 | 12.9 | 27.4 | 0.00 | 0.00 | 0.00 | 59 | 1014.3 |
| 20260903173443 | 33 | 360 | 9.7 | 27.4 | 0.00 | 0.00 | 0.00 | 59 | 1014.3 |
| 20260903173343 | 33 | 360 | 9.7 | 27.4 | 0.00 | 0.00 | 0.00 | 58 | 1014.3 |
| 20260903173223 | 33 | 178 | 9.7 | 27.4 | 0.00 | 0.00 | 0.00 | 58 | 1014.3 |
| 20260903173123 | 33 | 360 | 14.5 | 27.4 | 0.00 | 0.00 | 0.00 | 58 | 1014.3 |
| 20260903173023 | 33 | 360 | 14.5 | 27.4 | 0.00 | 0.00 | 0.00 | 58 | 1014.4 |
| 20260903172927 | 33 | 360 | 14.5 | 27.4 | 0.00 | 0.00 | 0.00 | 58 | 1014.3 |
| 20260903172829 | 33 | 360 | 14.5 | 25.7 | 0.00 | 0.00 | 0.00 | 58 | 1014.3 |
| 20260903172729 | 33 | 360 | 16.1 | 25.7 | 0.00 | 0.00 | 0.00 | 58 | 1014.3 |
| 20260903172650 | 33 | 360 | 14.5 | 25.7 | 0.00 | 0.00 | 0.00 | 58 | 1014.3 |
| 20260903172530 | 33 | 360 | 14.5 | 25.7 | 0.00 | 0.00 | 0.00 | 57 | 1014.4 |
| 20260903172430 | 34 | 360 | 12.9 | 25.7 | 0.00 | 0.00 | 0.00 | 57 | 1014.5 |
| 20260903172331 | 34 | 360 | 12.9 | 24.1 | 0.00 | 0.00 | 0.00 | 57 | 1014.6 |
| 20260903172215 | 35 | 166 | 8.0 | 20.9 | 0.00 | 0.00 | 0.00 | 55 | 1014.6 |
| 20260903172116 | 35 | 360 | 6.4 | 20.9 | 0.00 | 0.00 | 0.00 | 56 | 1014.6 |
| 20260903172016 | 34 | 360 | 3.2 | 20.9 | 0.00 | 0.00 | 0.00 | 55 | 1014.6 |
| 20260903171917 | 34 | 360 | 6.4 | 20.9 | 0.00 | 0.00 | 0.00 | 56 | 1014.6 |
| 20260903171836 | 34 | 360 | 6.4 | 20.9 | 0.00 | 0.00 | 0.00 | 59 | 1014.7 |
| 20260903171735 | 34 | 360 | 9.7 | 20.9 | 0.00 | 0.00 | 0.00 | 59 | 1014.7 |
| 20260903171615 | 33 | 360 | 9.7 | 20.9 | 0.00 | 0.00 | 0.00 | 59 | 1014.6 |
| 20260903171517 | 33 | 360 | 9.7 | 20.9 | 0.00 | 0.00 | 0.00 | 58 | 1014.7 |
| 20260903171436 | 33 | 360 | 8.0 | 20.9 | 0.00 | 0.00 | 0.00 | 60 | 1014.7 |
| 20260903171357 | 33 | 360 | 6.4 | 19.3 | 0.00 | 0.00 | 0.00 | 60 | 1014.7 |
| 20260903171235 | 33 | 360 | 9.7 | 19.3 | 0.00 | 0.00 | 0.00 | 60 | 1014.7 |
| 20260903171135 | 33 | 360 | 11.3 | 19.3 | 0.00 | 0.00 | 0.00 | 60 | 1014.7 |
| 20260903171036 | 33 | 360 | 11.3 | 25.7 | 0.00 | 0.00 | 0.00 | 59 | 1014.7 |
| 20260903170916 | 33 | 360 | 11.3 | 25.7 | 0.00 | 0.00 | 0.00 | 59 | 1014.8 |
| 20260903170840 | 33 | 360 | 8.0 | 25.7 | 0.00 | 0.00 | 0.00 | 60 | 1014.7 |
| 20260903170720 | 33 | 360 | 8.0 | 25.7 | 0.00 | 0.00 | 0.00 | 59 | 1014.7 |
| 20260903170620 | 33 | 360 | 6.4 | 25.7 | 0.00 | 0.00 | 0.00 | 59 | 1014.7 |
| 20260903170520 | 33 | 360 | 6.4 | 25.7 | 0.00 | 0.00 | 0.00 | 61 | 1014.7 |
| 20260903170422 | 33 | 360 | 6.4 | 25.7 | 0.00 | 0.00 | 0.00 | 61 | 1014.7 |
| 20260903170321 | 32 | 360 | 9.7 | 25.7 | 0.00 | 0.00 | 0.00 | 60 | 1014.8 |
| 20260903170222 | 33 | 360 | 12.9 | 25.7 | 0.00 | 0.00 | 0.00 | 60 | 1014.7 |
| 20260903170147 | 33 | 360 | 16.1 | 22.5 | 0.00 | 0.00 | 0.00 | 61 | 1014.8 |
| 20260903170026 | 33 | 360 | 17.7 | 22.5 | 0.00 | 0.00 | 0.00 | 60 | 1014.8 |
| 20260903165947 | 33 | 360 | 14.5 | 22.5 | 0.00 | 0.00 | 0.00 | 59 | 1014.8 |
| 20260903165827 | 33 | 360 | 9.7 | 22.5 | 0.00 | 0.00 | 0.00 | 58 | 1014.8 |
| 20260903165746 | 33 | 360 | 6.4 | 24.1 | 0.00 | 0.00 | 0.00 | 60 | 1014.8 |
| 20260903165646 | 33 | 360 | 8.0 | 24.1 | 0.00 | 0.00 | 0.00 | 60 | 1014.8 |
| 20260903165526 | 32 | 360 | 9.7 | 30.6 | 0.00 | 0.00 | 0.00 | 60 | 1014.8 |
| 20260903165426 | 32 | 360 | 9.7 | 30.6 | 0.00 | 0.00 | 0.00 | 60 | 1014.8 |
| 20260903165347 | 32 | 360 | 6.4 | 30.6 | 0.00 | 0.00 | 0.00 | 59 | 1014.8 |
| 20260903165231 | 32 | 360 | 8.0 | 30.6 | 0.00 | 0.00 | 0.00 | 59 | 1014.8 |
| 20260903165131 | 32 | 360 | 8.0 | 30.6 | 0.00 | 0.00 | 0.00 | 59 | 1014.9 |
| 20260903165032 | 32 | 360 | 9.7 | 30.6 | 0.00 | 0.00 | 0.00 | 58 | 1014.8 |
| 20260903164952 | 32 | 360 | 9.7 | 30.6 | 0.00 | 0.00 | 0.00 | 58 | 1014.8 |
| 20260903164831 | 33 | 360 | 12.9 | 30.6 | 0.00 | 0.00 | 0.00 | 59 | 1014.9 |
| 20260903164732 | 32 | 360 | 16.1 | 30.6 | 0.00 | 0.00 | 0.00 | 59 | 1014.8 |
| 20260903164617 | 33 | 360 | 16.1 | 30.6 | 0.00 | 0.00 | 0.00 | 60 | 1014.8 |
| 20260903164516 | 33 | 360 | 12.9 | 30.6 | 0.00 | 0.00 | 0.00 | 61 | 1014.8 |
| 20260903164418 | 33 | 360 | 8.0 | 22.5 | 0.00 | 0.00 | 0.00 | 61 | 1014.9 |
| 20260903164317 | 32 | 360 | 6.4 | 24.1 | 0.00 | 0.00 | 0.00 | 62 | 1014.8 |
| 20260903164218 | 32 | 360 | 8.0 | 24.1 | 0.00 | 0.00 | 0.00 | 63 | 1015.0 |
| 20260903164119 | 32 | 360 | 11.3 | 24.1 | 0.00 | 0.00 | 0.00 | 63 | 1015.0 |
| 20260903164038 | 32 | 360 | 12.9 | 24.1 | 0.00 | 0.00 | 0.00 | 62 | 1015.0 |
| 20260903163922 | 32 | 360 | 11.3 | 24.1 | 0.00 | 0.00 | 0.00 | 63 | 1015.0 |
| 20260903163823 | 32 | 360 | 8.0 | 24.1 | 0.00 | 0.00 | 0.00 | 63 | 1015.0 |
| 20260903163724 | 32 | 360 | 12.9 | 27.4 | 0.00 | 0.00 | 0.00 | 63 | 1015.0 |
| 20260903163625 | 32 | 360 | 12.9 | 27.4 | 0.00 | 0.00 | 0.00 | 64 | 1015.0 |
| 20260903163526 | 32 | 360 | 12.9 | 27.4 | 0.00 | 0.00 | 0.00 | 64 | 1015.0 |
| 20260903163426 | 32 | 360 | 11.3 | 27.4 | 0.00 | 0.00 | 0.00 | 63 | 1015.0 |
| 20260903163346 | 32 | 360 | 11.3 | 27.4 | 0.00 | 0.00 | 0.00 | 63 | 1014.9 |
| 20260903163230 | 32 | 360 | 11.3 | 27.4 | 0.00 | 0.00 | 0.00 | 63 | 1015.0 |
| 20260903163131 | 32 | 360 | 12.9 | 27.4 | 0.00 | 0.00 | 0.00 | 63 | 1015.0 |
| 20260903163051 | 32 | 360 | 12.9 | 27.4 | 0.00 | 0.00 | 0.00 | 63 | 1015.0 |
| 20260903162951 | 32 | 360 | 12.9 | 27.4 | 0.00 | 0.00 | 0.00 | 62 | 1015.0 |
| 20260903162850 | 32 | 360 | 8.0 | 24.1 | 0.00 | 0.00 | 0.00 | 63 | 1015.0 |
| 20260903162730 | 32 | 360 | 11.3 | 24.1 | 0.00 | 0.00 | 0.00 | 63 | 1015.1 |
| 20260903162629 | 32 | 360 | 12.9 | 25.7 | 0.00 | 0.00 | 0.00 | 63 | 1015.0 |
| 20260903162550 | 32 | 360 | 12.9 | 25.7 | 0.00 | 0.00 | 0.00 | 63 | 1015.0 |
| 20260903162428 | 32 | 360 | 8.0 | 25.7 | 0.00 | 0.00 | 0.00 | 63 | 1015.0 |
| 20260903162333 | 32 | 360 | 8.0 | 25.7 | 0.00 | 0.00 | 0.00 | 64 | 1015.0 |
| 20260903162235 | 32 | 360 | 8.0 | 25.7 | 0.00 | 0.00 | 0.00 | 64 | 1015.0 |
| 20260903162136 | 32 | 360 | 9.7 | 25.7 | 0.00 | 0.00 | 0.00 | 65 | 1015.0 |
| 20260903162016 | 31 | 360 | 12.9 | 25.7 | 0.00 | 0.00 | 0.00 | 65 | 1015.0 |
| 20260903161937 | 31 | 360 | 14.5 | 25.7 | 0.00 | 0.00 | 0.00 | 65 | 1015.0 |
| 20260903161816 | 31 | 360 | 14.5 | 25.7 | 0.00 | 0.00 | 0.00 | 65 | 1015.0 |
| 20260903161717 | 31 | 360 | 14.5 | 30.6 | 0.00 | 0.00 | 0.00 | 65 | 1015.1 |
| 20260903161620 | 31 | 360 | 16.1 | 30.6 | 0.00 | 0.00 | 0.00 | 65 | 1015.1 |
| 20260903161521 | 31 | 360 | 14.5 | 30.6 | 0.00 | 0.00 | 0.00 | 64 | 1015.0 |
| 20260903161421 | 32 | 360 | 12.9 | 30.6 | 0.00 | 0.00 | 0.00 | 64 | 1015.0 |
| 20260903161344 | 32 | 360 | 12.9 | 30.6 | 0.00 | 0.00 | 0.00 | 64 | 1015.0 |
| 20260903161223 | 32 | 360 | 11.3 | 30.6 | 0.00 | 0.00 | 0.00 | 63 | 1015.0 |
| 20260903161124 | 32 | 360 | 11.3 | 30.6 | 0.00 | 0.00 | 0.00 | 63 | 1014.9 |
| 20260903161043 | 32 | 360 | 8.0 | 30.6 | 0.00 | 0.00 | 0.00 | 63 | 1015.0 |
| 20260903160923 | 32 | 360 | 9.7 | 30.6 | 0.00 | 0.00 | 0.00 | 63 | 1015.0 |
| 20260903160827 | 32 | 360 | 6.4 | 29.0 | 0.00 | 0.00 | 0.00 | 64 | 1014.9 |
| 20260903160728 | 32 | 360 | 8.0 | 29.0 | 0.00 | 0.00 | 0.00 | 65 | 1015.0 |
| 20260903160628 | 31 | 360 | 8.0 | 29.0 | 0.00 | 0.00 | 0.00 | 65 | 1014.9 |
| 20260903160529 | 31 | 360 | 9.7 | 29.0 | 0.00 | 0.00 | 0.00 | 64 | 1014.9 |
| 20260903160430 | 31 | 360 | 9.7 | 30.6 | 0.00 | 0.00 | 0.00 | 64 | 1014.9 |
| 20260903160331 | 31 | 360 | 9.7 | 30.6 | 0.00 | 0.00 | 0.00 | 64 | 1014.9 |
| 20260903160232 | 31 | 360 | 11.3 | 30.6 | 0.00 | 0.00 | 0.00 | 64 | 1014.9 |
| 20260903160116 | 31 | 360 | 8.0 | 30.6 | 0.00 | 0.00 | 0.00 | 64 | 1014.9 |
| 20260903160016 | 31 | 360 | 8.0 | 30.6 | 0.00 | 0.00 | 0.00 | 64 | 1015.0 |
| 20260903155917 | 31 | 360 | 9.7 | 30.6 | 0.00 | 0.00 | 0.00 | 64 | 1015.0 |
| 20260903155819 | 31 | 360 | 11.3 | 30.6 | 0.00 | 0.00 | 0.00 | 64 | 1015.0 |
| 20260903155719 | 31 | 360 | 11.3 | 30.6 | 0.00 | 0.00 | 0.00 | 64 | 1015.0 |
| 20260903155619 | 31 | 360 | 9.7 | 30.6 | 0.00 | 0.00 | 0.00 | 64 | 1015.0 |
| 20260903155524 | 31 | 360 | 9.7 | 27.4 | 0.00 | 0.00 | 0.00 | 64 | 1015.0 |
| 20260903155444 | 31 | 360 | 8.0 | 27.4 | 0.00 | 0.00 | 0.00 | 64 | 1015.0 |
| 20260903155344 | 31 | 360 | 8.0 | 27.4 | 0.00 | 0.00 | 0.00 | 64 | 1015.1 |
| 20260903155243 | 31 | 360 | 8.0 | 27.4 | 0.00 | 0.00 | 0.00 | 64 | 1015.1 |
| 20260903155123 | 31 | 360 | 8.0 | 29.0 | 0.00 | 0.00 | 0.00 | 64 | 1015.0 |
| 20260903155024 | 31 | 360 | 9.7 | 29.0 | 0.00 | 0.00 | 0.00 | 64 | 1015.1 |
| 20260903154924 | 31 | 360 | 12.9 | 29.0 | 0.00 | 0.00 | 0.00 | 64 | 1015.0 |
| 20260903154826 | 31 | 360 | 14.5 | 29.0 | 0.00 | 0.00 | 0.00 | 64 | 1015.0 |
| 20260903154731 | 31 | 360 | 16.1 | 29.0 | 0.00 | 0.00 | 0.00 | 64 | 1015.0 |
| 20260903154631 | 31 | 360 | 14.5 | 29.0 | 0.00 | 0.00 | 0.00 | 64 | 1015.0 |
| 20260903154531 | 31 | 360 | 12.9 | 29.0 | 0.00 | 0.00 | 0.00 | 65 | 1014.9 |
| 20260903154432 | 31 | 360 | 12.9 | 29.0 | 0.00 | 0.00 | 0.00 | 65 | 1015.0 |
| 20260903154333 | 31 | 360 | 12.9 | 29.0 | 0.00 | 0.00 | 0.00 | 65 | 1015.0 |
| 20260903154234 | 31 | 360 | 9.7 | 32.2 | 0.00 | 0.00 | 0.00 | 66 | 1015.0 |
| 20260903154119 | 31 | 360 | 8.0 | 32.2 | 0.00 | 0.00 | 0.00 | 65 | 1015.0 |
| 20260903154020 | 31 | 360 | 4.8 | 32.2 | 0.00 | 0.00 | 0.00 | 66 | 1015.0 |
| 20260903153921 | 31 | 360 | 6.4 | 32.2 | 0.00 | 0.00 | 0.00 | 66 | 1014.9 |
| 20260903153821 | 31 | 360 | 6.4 | 32.2 | 0.00 | 0.00 | 0.00 | 67 | 1015.0 |
| 20260903153722 | 31 | 360 | 9.7 | 32.2 | 0.00 | 0.00 | 0.00 | 67 | 1015.0 |
| 20260903153623 | 30 | 360 | 9.7 | 32.2 | 0.00 | 0.00 | 0.00 | 67 | 1015.0 |
| 20260903153527 | 30 | 360 | 14.5 | 32.2 | 0.00 | 0.00 | 0.00 | 67 | 1014.9 |
| 20260903153428 | 31 | 360 | 17.7 | 32.2 | 0.00 | 0.00 | 0.00 | 68 | 1014.9 |
| 20260903153328 | 31 | 360 | 17.7 | 30.6 | 0.00 | 0.00 | 0.00 | 65 | 1015.0 |
| 20260903153229 | 31 | 360 | 12.9 | 29.0 | 0.00 | 0.00 | 0.00 | 65 | 1015.0 |
| 20260903153128 | 31 | 360 | 11.3 | 22.5 | 0.00 | 0.00 | 0.00 | 66 | 1015.0 |
| 20260903153029 | 31 | 360 | 8.0 | 22.5 | 0.00 | 0.00 | 0.00 | 67 | 1015.0 |
| 20260903152930 | 31 | 360 | 8.0 | 22.5 | 0.00 | 0.00 | 0.00 | 68 | 1015.1 |
| 20260903152835 | 31 | 360 | 6.4 | 25.7 | 0.00 | 0.00 | 0.00 | 68 | 1015.1 |
| 20260903152735 | 31 | 360 | 8.0 | 29.0 | 0.00 | 0.00 | 0.00 | 68 | 1015.1 |
| 20260903152635 | 31 | 360 | 8.0 | 29.0 | 0.00 | 0.00 | 0.00 | 68 | 1015.0 |
| 20260903152536 | 31 | 360 | 8.0 | 29.0 | 0.00 | 0.00 | 0.00 | 68 | 1015.1 |
| 20260903152416 | 31 | 360 | 9.7 | 29.0 | 0.00 | 0.00 | 0.00 | 68 | 1015.0 |
| 20260903152316 | 30 | 360 | 9.7 | 29.0 | 0.00 | 0.00 | 0.00 | 68 | 1015.0 |
| 20260903152221 | 30 | 360 | 11.3 | 29.0 | 0.00 | 0.00 | 0.00 | 69 | 1015.0 |
| 20260903152141 | 30 | 360 | 12.9 | 29.0 | 0.00 | 0.00 | 0.00 | 69 | 1015.1 |
| 20260903152021 | 30 | 360 | 12.9 | 29.0 | 0.00 | 0.00 | 0.00 | 69 | 1015.0 |
| 20260903151921 | 30 | 360 | 9.7 | 24.1 | 0.00 | 0.00 | 0.00 | 69 | 1015.0 |
| 20260903151822 | 30 | 360 | 11.3 | 24.1 | 0.00 | 0.00 | 0.00 | 69 | 1015.0 |
| 20260903151743 | 30 | 360 | 9.7 | 24.1 | 0.00 | 0.00 | 0.00 | 69 | 1015.0 |
| 20260903151623 | 30 | 360 | 8.0 | 24.1 | 0.00 | 0.00 | 0.00 | 69 | 1015.0 |
| 20260903151522 | 30 | 360 | 6.4 | 24.1 | 0.00 | 0.00 | 0.00 | 69 | 1014.9 |
| 20260903151427 | 30 | 360 | 6.4 | 24.1 | 0.00 | 0.00 | 0.00 | 69 | 1014.9 |
| 20260903151327 | 30 | 360 | 8.0 | 24.1 | 0.00 | 0.00 | 0.00 | 70 | 1014.9 |
| 20260903151226 | 30 | 360 | 9.7 | 24.1 | 0.00 | 0.00 | 0.00 | 70 | 1014.9 |
| 20260903151127 | 30 | 360 | 11.3 | 24.1 | 0.00 | 0.00 | 0.00 | 70 | 1014.8 |
| 20260903151047 | 30 | 360 | 9.7 | 24.1 | 0.00 | 0.00 | 0.00 | 70 | 1014.8 |
| 20260903150927 | 30 | 360 | 8.0 | 24.1 | 0.00 | 0.00 | 0.00 | 70 | 1014.9 |
| 20260903150828 | 30 | 360 | 6.4 | 22.5 | 0.00 | 0.00 | 0.00 | 70 | 1015.0 |
| 20260903150732 | 30 | 360 | 4.8 | 25.7 | 0.00 | 0.00 | 0.00 | 71 | 1014.9 |
| 20260903150632 | 30 | 360 | 6.4 | 25.7 | 0.00 | 0.00 | 0.00 | 71 | 1014.9 |
| 20260903150534 | 30 | 360 | 8.0 | 25.7 | 0.00 | 0.00 | 0.00 | 71 | 1015.0 |
| 20260903150433 | 30 | 360 | 9.7 | 25.7 | 0.00 | 0.00 | 0.00 | 71 | 1015.0 |
| 20260903150316 | 30 | 360 | 9.7 | 25.7 | 0.00 | 0.00 | 0.00 | 72 | 1015.0 |
| 20260903150216 | 30 | 360 | 9.7 | 25.7 | 0.00 | 0.00 | 0.00 | 72 | 1015.0 |
| 20260903150120 | 30 | 360 | 12.9 | 25.7 | 0.00 | 0.00 | 0.00 | 72 | 1015.0 |
| 20260903150021 | 30 | 360 | 11.3 | 25.7 | 0.00 | 0.00 | 0.00 | 71 | 1015.0 |
| 20260903145941 | 30 | 360 | 12.9 | 25.7 | 0.00 | 0.00 | 0.00 | 71 | 1014.9 |